Time,TemperatureF,DewpointF,PressureIn,WindDirection,WindDirectionDegrees,WindSpeedMPH,WindSpeedGustMPH,Humidity,HourlyPrecipIn,Conditions,Clouds,dailyrainin,SoftwareType,DateUTC
2013-07-25 00:00:00,73.0,60.5,0.00,SE,135,15.4,17.7,65,0.00,,---,0.00,VWS V14.01,2013-07-25 05:00:00,
2013-07-25 00:01:00,73.0,60.1,0.00,South,180,15.4,15.4,64,0.00,,---,0.00,VWS V14.01,2013-07-25 05:01:00,
2013-07-25 00:02:00,73.0,60.1,0.00,South,180,13.0,15.4,64,0.00,,---,0.00,VWS V14.01,2013-07-25 05:02:00,
2013-07-25 00:03:00,72.8,60.4,0.00,SE,135,13.0,15.9,65,0.00,,---,0.00,VWS V14.01,2013-07-25 05:03:00,
2013-07-25 00:04:00,72.8,60.4,0.00,South,180,10.1,15.9,65,0.00,,---,0.00,VWS V14.01,2013-07-25 05:04:00,
2013-07-25 00:05:00,73.0,60.5,0.00,South,180,13.2,15.9,65,0.00,,---,0.00,VWS V14.01,2013-07-25 05:05:00,
2013-07-25 00:06:00,73.0,60.5,0.00,SSE,158,15.4,15.9,65,0.00,,---,0.00,VWS V14.01,2013-07-25 05:06:00,
2013-07-25 00:07:00,73.0,60.5,0.00,SSE,158,15.4,15.9,65,0.00,,---,0.00,VWS V14.01,2013-07-25 05:07:00,
2013-07-25 00:08:00,73.0,60.5,0.00,South,180,11.0,16.1,65,0.00,,---,0.00,VWS V14.01,2013-07-25 05:08:00,
2013-07-25 00:09:00,73.0,60.5,0.00,South,180,10.7,16.1,65,0.00,,---,0.00,VWS V14.01,2013-07-25 05:09:00,
2013-07-25 00:10:00,73.0,60.1,0.00,South,180,10.1,16.1,64,0.00,,---,0.00,VWS V14.01,2013-07-25 05:10:00,
2013-07-25 00:11:00,73.2,60.7,0.00,SSE,158,8.7,16.1,65,0.00,,---,0.00,VWS V14.01,2013-07-25 05:11:00,
2013-07-25 00:12:00,73.4,60.0,0.00,South,180,12.5,16.1,63,0.00,,---,0.00,VWS V14.01,2013-07-25 05:12:00,
2013-07-25 00:13:00,73.4,60.0,0.00,South,180,18.1,18.1,63,0.00,,---,0.00,VWS V14.01,2013-07-25 05:13:00,
2013-07-25 00:14:00,73.4,60.0,0.00,SE,135,9.4,18.1,63,0.00,,---,0.00,VWS V14.01,2013-07-25 05:14:00,
2013-07-25 00:15:00,73.7,60.3,0.00,SE,135,10.3,18.1,63,0.00,,---,0.00,VWS V14.01,2013-07-25 05:15:00,
2013-07-25 00:16:00,73.7,60.3,0.00,SE,135,12.3,14.1,63,0.00,,---,0.00,VWS V14.01,2013-07-25 05:16:00,
2013-07-25 00:17:00,74.1,60.2,0.00,South,180,12.3,14.8,62,0.00,,---,0.00,VWS V14.01,2013-07-25 05:17:00,
2013-07-25 00:18:00,74.3,60.0,0.00,SSE,158,10.7,14.8,61,0.00,,---,0.00,VWS V14.01,2013-07-25 05:18:00,
2013-07-25 00:19:00,75.0,60.6,0.00,SSE,158,14.3,14.8,61,0.00,,---,0.00,VWS V14.01,2013-07-25 05:19:00,
2013-07-25 00:20:00,75.2,61.3,0.00,South,180,10.5,14.8,62,0.00,,---,0.00,VWS V14.01,2013-07-25 05:20:00,
2013-07-25 00:21:00,75.5,61.6,0.00,SE,135,13.0,14.8,62,0.00,,---,0.00,VWS V14.01,2013-07-25 05:21:00,
2013-07-25 00:22:00,75.5,61.6,0.00,SSE,158,10.1,14.8,62,0.00,,---,0.00,VWS V14.01,2013-07-25 05:22:00,
2013-07-25 00:23:00,75.5,61.6,0.00,South,180,16.8,16.8,62,0.00,,---,0.00,VWS V14.01,2013-07-25 05:23:00,
2013-07-25 00:24:00,76.4,61.0,0.00,SE,135,12.1,17.2,59,0.00,,---,0.00,VWS V14.01,2013-07-25 05:24:00,
2013-07-25 00:25:00,76.8,61.4,0.00,South,180,9.8,17.2,59,0.00,,---,0.00,VWS V14.01,2013-07-25 05:25:00,
2013-07-25 00:28:00,77.9,59.9,0.00,South,180,13.2,17.2,54,0.00,,---,0.00,VWS V14.01,2013-07-25 05:28:00,
2013-07-25 00:29:00,78.0,59.5,0.00,SE,135,15.7,17.2,53,0.00,,---,0.00,VWS V14.01,2013-07-25 05:29:00,
2013-07-25 00:30:00,78.0,59.5,0.00,SE,135,15.7,17.2,53,0.00,,---,0.00,VWS V14.01,2013-07-25 05:30:00,
2013-07-25 00:31:00,78.0,60.1,0.00,SSE,158,11.2,15.7,54,0.00,,---,0.00,VWS V14.01,2013-07-25 05:31:00,
2013-07-25 00:32:00,78.2,59.2,0.00,South,180,12.3,15.7,52,0.00,,---,0.00,VWS V14.01,2013-07-25 05:32:00,
2013-07-25 00:33:00,78.2,59.7,0.00,South,180,12.3,15.7,53,0.00,,---,0.00,VWS V14.01,2013-07-25 05:33:00,
2013-07-25 00:34:00,78.2,60.2,0.00,SSE,158,11.0,15.7,54,0.00,,---,0.00,VWS V14.01,2013-07-25 05:34:00,
2013-07-25 00:35:00,78.0,59.5,0.00,SSW,202,6.5,15.7,53,0.00,,---,0.00,VWS V14.01,2013-07-25 05:35:00,
2013-07-25 00:36:00,77.9,59.4,0.00,SW,225,9.8,15.7,53,0.00,,---,0.00,VWS V14.01,2013-07-25 05:36:00,
2013-07-25 00:37:00,77.7,58.7,0.00,South,180,12.5,15.7,52,0.00,,---,0.00,VWS V14.01,2013-07-25 05:37:00,
2013-07-25 00:38:00,77.7,59.2,0.00,SSE,158,7.2,15.7,53,0.00,,---,0.00,VWS V14.01,2013-07-25 05:38:00,
2013-07-25 00:39:00,78.0,59.5,0.00,South,180,10.5,15.7,53,0.00,,---,0.00,VWS V14.01,2013-07-25 05:39:00,
2013-07-25 00:40:00,78.0,59.0,0.00,SW,225,7.6,15.7,52,0.00,,---,0.00,VWS V14.01,2013-07-25 05:40:00,
2013-07-25 00:41:00,78.4,59.3,0.00,South,180,13.2,15.7,52,0.00,,---,0.00,VWS V14.01,2013-07-25 05:41:00,
2013-07-25 00:42:00,78.2,58.6,0.00,South,180,7.8,15.7,51,0.00,,---,0.00,VWS V14.01,2013-07-25 05:42:00,
2013-07-25 00:43:00,78.6,57.8,0.00,SW,225,7.8,15.7,49,0.00,,---,0.00,VWS V14.01,2013-07-25 05:43:00,
2013-07-25 00:44:00,78.6,57.8,0.00,South,180,7.6,15.7,49,0.00,,---,0.00,VWS V14.01,2013-07-25 05:44:00,
2013-07-25 00:45:00,78.6,57.8,0.00,South,180,10.3,15.7,49,0.00,,---,0.00,VWS V14.01,2013-07-25 05:45:00,
2013-07-25 00:46:00,78.6,57.8,0.00,South,180,8.5,10.3,49,0.00,,---,0.00,VWS V14.01,2013-07-25 05:46:00,
2013-07-25 00:47:00,78.2,58.6,0.00,South,180,11.4,11.4,51,0.00,,---,0.00,VWS V14.01,2013-07-25 05:47:00,
2013-07-25 00:48:00,78.2,58.6,0.00,SSE,158,9.0,11.4,51,0.00,,---,0.00,VWS V14.01,2013-07-25 05:48:00,
2013-07-25 00:49:00,78.0,58.5,0.00,SSE,158,9.0,11.4,51,0.00,,---,0.00,VWS V14.01,2013-07-25 05:49:00,
2013-07-25 00:51:00,78.0,58.5,0.00,South,180,7.8,11.4,51,0.00,,---,0.00,VWS V14.01,2013-07-25 05:51:00,
2013-07-25 00:52:00,78.4,58.2,0.00,South,180,7.4,11.4,50,0.00,,---,0.00,VWS V14.01,2013-07-25 05:52:00,
2013-07-25 00:53:00,78.8,58.6,0.00,SSE,158,11.0,12.5,50,0.00,,---,0.00,VWS V14.01,2013-07-25 05:53:00,
2013-07-25 00:54:00,79.1,58.3,0.00,SSE,158,10.7,12.5,49,0.00,,---,0.00,VWS V14.01,2013-07-25 05:54:00,
2013-07-25 00:55:00,79.1,58.3,0.00,SSE,158,10.7,12.5,49,0.00,,---,0.00,VWS V14.01,2013-07-25 05:55:00,
2013-07-25 00:56:00,80.6,59.1,0.00,SE,135,8.7,12.5,48,0.00,,---,0.00,VWS V14.01,2013-07-25 05:56:00,
2013-07-25 00:57:00,81.1,59.0,0.00,SE,135,7.8,12.5,47,0.00,,---,0.00,VWS V14.01,2013-07-25 05:57:00,
2013-07-25 00:58:00,80.9,58.8,0.00,SE,135,8.1,12.5,47,0.00,,---,0.00,VWS V14.01,2013-07-25 05:58:00,
2013-07-25 00:59:00,81.3,58.5,0.00,SE,135,6.3,12.5,46,0.00,,---,0.00,VWS V14.01,2013-07-25 05:59:00,
2013-07-25 01:00:00,81.6,59.5,0.00,SE,135,5.8,12.5,47,0.00,,---,0.00,VWS V14.01,2013-07-25 06:00:00,
2013-07-25 01:01:00,81.6,59.5,0.00,SSE,158,8.1,8.1,47,0.00,,---,0.00,VWS V14.01,2013-07-25 06:01:00,
2013-07-25 01:02:00,81.6,59.5,0.00,SE,135,10.5,10.5,47,0.00,,---,0.00,VWS V14.01,2013-07-25 06:02:00,
2013-07-25 01:03:00,81.6,59.5,0.00,SSE,158,6.5,10.5,47,0.00,,---,0.00,VWS V14.01,2013-07-25 06:03:00,
2013-07-25 01:04:00,81.8,58.4,0.00,South,180,11.0,11.0,45,0.00,,---,0.00,VWS V14.01,2013-07-25 06:04:00,
2013-07-25 01:05:00,80.9,57.6,0.00,South,180,10.7,12.8,45,0.00,,---,0.00,VWS V14.01,2013-07-25 06:05:00,
2013-07-25 01:07:00,80.4,57.7,0.00,SW,225,7.2,12.8,46,0.00,,---,0.00,VWS V14.01,2013-07-25 06:07:00,
2013-07-25 01:08:00,80.2,57.0,0.00,South,180,4.7,12.8,45,0.00,,---,0.00,VWS V14.01,2013-07-25 06:08:00,
2013-07-25 01:09:00,80.0,57.4,0.00,South,180,5.4,12.8,46,0.00,,---,0.00,VWS V14.01,2013-07-25 06:09:00,
2013-07-25 01:10:00,79.8,57.2,0.00,WSW,248,5.8,12.8,46,0.00,,---,0.00,VWS V14.01,2013-07-25 06:10:00,
2013-07-25 01:12:00,79.8,57.2,0.00,SW,225,5.6,12.8,46,0.00,,---,0.00,VWS V14.01,2013-07-25 06:12:00,
2013-07-25 01:13:00,79.8,57.2,0.00,South,180,7.8,12.8,46,0.00,,---,0.00,VWS V14.01,2013-07-25 06:13:00,
2013-07-25 01:14:00,79.3,56.8,0.00,South,180,5.6,12.8,46,0.00,,---,0.00,VWS V14.01,2013-07-25 06:14:00,
2013-07-25 01:15:00,79.3,56.8,0.00,South,180,5.6,12.8,46,0.00,,---,0.00,VWS V14.01,2013-07-25 06:15:00,
2013-07-25 01:16:00,79.3,56.8,0.00,SE,135,2.5,5.6,46,0.00,,---,0.00,VWS V14.01,2013-07-25 06:16:00,
2013-07-25 01:17:00,79.3,56.8,0.00,SE,135,2.2,5.6,46,0.00,,---,0.00,VWS V14.01,2013-07-25 06:17:00,
2013-07-25 01:18:00,79.5,56.9,0.00,South,180,4.0,5.6,46,0.00,,---,0.00,VWS V14.01,2013-07-25 06:18:00,
2013-07-25 01:19:00,79.3,57.3,0.00,South,180,3.1,5.6,47,0.00,,---,0.00,VWS V14.01,2013-07-25 06:19:00,
2013-07-25 01:20:00,79.3,57.3,0.00,South,180,7.4,7.4,47,0.00,,---,0.00,VWS V14.01,2013-07-25 06:20:00,
2013-07-25 01:21:00,78.6,56.7,0.00,South,180,6.5,8.1,47,0.00,,---,0.00,VWS V14.01,2013-07-25 06:21:00,
2013-07-25 01:22:00,78.2,56.9,0.00,South,180,6.9,8.1,48,0.00,,---,0.00,VWS V14.01,2013-07-25 06:22:00,
2013-07-25 01:23:00,78.2,56.9,0.00,SSE,158,5.8,8.1,48,0.00,,---,0.00,VWS V14.01,2013-07-25 06:23:00,
2013-07-25 01:24:00,78.2,56.9,0.00,SSE,158,5.8,8.1,48,0.00,,---,0.00,VWS V14.01,2013-07-25 06:24:00,
2013-07-25 01:25:00,78.2,56.9,0.00,SW,225,7.8,8.1,48,0.00,,---,0.00,VWS V14.01,2013-07-25 06:25:00,
2013-07-25 01:26:00,77.7,56.5,0.00,SW,225,6.5,8.1,48,0.00,,---,0.00,VWS V14.01,2013-07-25 06:26:00,
2013-07-25 01:27:00,77.7,56.5,0.00,South,180,5.4,8.1,48,0.00,,---,0.00,VWS V14.01,2013-07-25 06:27:00,
2013-07-25 01:28:00,77.5,56.3,0.00,South,180,5.4,8.1,48,0.00,,---,0.00,VWS V14.01,2013-07-25 06:28:00,
2013-07-25 01:29:00,77.3,56.1,0.00,SW,225,4.3,8.1,48,0.00,,---,0.00,VWS V14.01,2013-07-25 06:29:00,
2013-07-25 01:30:00,77.5,56.3,0.00,SW,225,3.1,8.1,48,0.00,,---,0.00,VWS V14.01,2013-07-25 06:30:00,
2013-07-25 01:32:00,77.5,56.3,0.00,South,180,8.7,8.7,48,0.00,,---,0.00,VWS V14.01,2013-07-25 06:32:00,
2013-07-25 01:33:00,77.3,56.7,0.00,SSE,158,11.0,12.3,49,0.00,,---,0.00,VWS V14.01,2013-07-25 06:33:00,
2013-07-25 01:34:00,77.1,56.5,0.00,South,180,9.8,12.3,49,0.00,,---,0.00,VWS V14.01,2013-07-25 06:34:00,
2013-07-25 01:35:00,77.1,56.5,0.00,South,180,7.6,12.3,49,0.00,,---,0.00,VWS V14.01,2013-07-25 06:35:00,
2013-07-25 01:36:00,77.1,56.5,0.00,South,180,7.8,12.3,49,0.00,,---,0.00,VWS V14.01,2013-07-25 06:36:00,
2013-07-25 01:38:00,77.1,56.5,0.00,SSE,158,7.4,12.3,49,0.00,,---,0.00,VWS V14.01,2013-07-25 06:38:00,
2013-07-25 01:39:00,77.3,56.7,0.00,SE,135,7.4,12.3,49,0.00,,---,0.00,VWS V14.01,2013-07-25 06:39:00,
2013-07-25 01:41:00,77.5,56.3,0.00,SW,225,6.3,12.3,48,0.00,,---,0.00,VWS V14.01,2013-07-25 06:41:00,
2013-07-25 01:42:00,77.7,57.0,0.00,SSW,202,5.6,12.3,49,0.00,,---,0.00,VWS V14.01,2013-07-25 06:42:00,
2013-07-25 01:43:00,77.7,57.0,0.00,SSW,202,5.6,12.3,49,0.00,,---,0.00,VWS V14.01,2013-07-25 06:43:00,
2013-07-25 01:44:00,77.9,57.2,0.00,SW,225,5.8,12.3,49,0.00,,---,0.00,VWS V14.01,2013-07-25 06:44:00,
2013-07-25 01:45:00,77.9,57.2,0.00,SW,225,5.6,12.3,49,0.00,,---,0.00,VWS V14.01,2013-07-25 06:45:00,
2013-07-25 01:46:00,77.9,56.6,0.00,South,180,4.3,6.0,48,0.00,,---,0.00,VWS V14.01,2013-07-25 06:46:00,
2013-07-25 01:47:00,78.0,57.3,0.00,South,180,7.6,7.6,49,0.00,,---,0.00,VWS V14.01,2013-07-25 06:47:00,
2013-07-25 01:48:00,77.9,57.2,0.00,SW,225,5.8,7.6,49,0.00,,---,0.00,VWS V14.01,2013-07-25 06:48:00,
2013-07-25 01:49:00,77.7,57.0,0.00,SSW,202,8.5,8.5,49,0.00,,---,0.00,VWS V14.01,2013-07-25 06:49:00,
2013-07-25 01:50:00,77.7,57.0,0.00,South,180,7.8,8.5,49,0.00,,---,0.00,VWS V14.01,2013-07-25 06:50:00,
2013-07-25 01:51:00,77.7,57.0,0.00,South,180,5.4,8.5,49,0.00,,---,0.00,VWS V14.01,2013-07-25 06:51:00,
2013-07-25 01:52:00,77.9,58.3,0.00,SW,225,3.1,8.5,51,0.00,,---,0.00,VWS V14.01,2013-07-25 06:52:00,
2013-07-25 01:53:00,78.2,57.5,0.00,SW,225,3.1,8.5,49,0.00,,---,0.00,VWS V14.01,2013-07-25 06:53:00,
2013-07-25 01:54:00,78.2,57.5,0.00,SW,225,3.1,8.5,49,0.00,,---,0.00,VWS V14.01,2013-07-25 06:54:00,
2013-07-25 01:55:00,78.2,58.1,0.00,South,180,2.9,8.5,50,0.00,,---,0.00,VWS V14.01,2013-07-25 06:55:00,
2013-07-25 01:56:00,78.2,56.9,0.00,South,180,4.0,8.5,48,0.00,,---,0.00,VWS V14.01,2013-07-25 06:56:00,
2013-07-25 01:58:00,78.2,56.9,0.00,South,180,5.8,8.5,48,0.00,,---,0.00,VWS V14.01,2013-07-25 06:58:00,
2013-07-25 01:59:00,78.0,56.8,0.00,SW,225,7.8,8.5,48,0.00,,---,0.00,VWS V14.01,2013-07-25 06:59:00,
2013-07-25 02:00:00,78.0,56.8,0.00,SSW,202,3.6,8.5,48,0.00,,---,0.00,VWS V14.01,2013-07-25 07:00:00,
2013-07-25 02:01:00,78.0,56.8,0.00,South,180,3.8,4.3,48,0.00,,---,0.00,VWS V14.01,2013-07-25 07:01:00,
2013-07-25 02:02:00,78.0,56.8,0.00,SW,225,3.6,4.3,48,0.00,,---,0.00,VWS V14.01,2013-07-25 07:02:00,
2013-07-25 02:03:00,78.0,56.8,0.00,SW,225,2.5,4.3,48,0.00,,---,0.00,VWS V14.01,2013-07-25 07:03:00,
2013-07-25 02:05:00,77.9,56.6,0.00,SW,225,6.5,8.7,48,0.00,,---,0.00,VWS V14.01,2013-07-25 07:05:00,
2013-07-25 02:06:00,77.7,56.5,0.00,SW,225,3.4,8.7,48,0.00,,---,0.00,VWS V14.01,2013-07-25 07:06:00,
2013-07-25 02:08:00,77.7,56.5,0.00,SW,225,3.6,8.7,48,0.00,,---,0.00,VWS V14.01,2013-07-25 07:08:00,
2013-07-25 02:10:00,77.7,56.5,0.00,SW,225,4.5,8.7,48,0.00,,---,0.00,VWS V14.01,2013-07-25 07:10:00,
2013-07-25 02:11:00,77.5,56.3,0.00,SW,225,5.6,8.7,48,0.00,,---,0.00,VWS V14.01,2013-07-25 07:11:00,
2013-07-25 02:12:00,77.3,56.1,0.00,SSW,202,4.9,8.7,48,0.00,,---,0.00,VWS V14.01,2013-07-25 07:12:00,
2013-07-25 02:13:00,77.1,56.0,0.00,South,180,7.2,8.7,48,0.00,,---,0.00,VWS V14.01,2013-07-25 07:13:00,
2013-07-25 02:15:00,77.1,56.0,0.00,SSW,202,6.3,8.7,48,0.00,,---,0.00,VWS V14.01,2013-07-25 07:15:00,
2013-07-25 02:16:00,77.0,55.8,0.00,SSW,202,2.9,6.3,48,0.00,,---,0.00,VWS V14.01,2013-07-25 07:16:00,
2013-07-25 02:17:00,77.1,56.5,0.00,SSW,202,3.8,6.3,49,0.00,,---,0.00,VWS V14.01,2013-07-25 07:17:00,
2013-07-25 02:18:00,77.1,56.0,0.00,WSW,248,5.4,6.3,48,0.00,,---,0.00,VWS V14.01,2013-07-25 07:18:00,
2013-07-25 02:19:00,77.1,56.0,0.00,SW,225,3.1,6.3,48,0.00,,---,0.00,VWS V14.01,2013-07-25 07:19:00,
2013-07-25 02:20:00,77.3,56.7,0.00,NW,315,1.3,6.3,49,0.00,,---,0.00,VWS V14.01,2013-07-25 07:20:00,
2013-07-25 02:21:00,77.3,56.7,0.00,SW,225,3.6,6.3,49,0.00,,---,0.00,VWS V14.01,2013-07-25 07:21:00,
2013-07-25 02:22:00,77.3,56.7,0.00,SW,225,3.6,6.3,49,0.00,,---,0.00,VWS V14.01,2013-07-25 07:22:00,
2013-07-25 02:23:00,77.1,56.0,0.00,SW,225,3.8,6.3,48,0.00,,---,0.00,VWS V14.01,2013-07-25 07:23:00,
2013-07-25 02:24:00,77.3,56.7,0.00,SW,225,3.1,6.3,49,0.00,,---,0.00,VWS V14.01,2013-07-25 07:24:00,
2013-07-25 02:25:00,77.3,56.1,0.00,SW,225,3.4,6.3,48,0.00,,---,0.00,VWS V14.01,2013-07-25 07:25:00,
2013-07-25 02:26:00,77.3,56.1,0.00,SW,225,2.9,6.3,48,0.00,,---,0.00,VWS V14.01,2013-07-25 07:26:00,
2013-07-25 02:27:00,77.3,56.1,0.00,South,180,4.3,6.3,48,0.00,,---,0.00,VWS V14.01,2013-07-25 07:27:00,
2013-07-25 02:28:00,77.1,56.0,0.00,SSW,202,3.1,6.3,48,0.00,,---,0.00,VWS V14.01,2013-07-25 07:28:00,
2013-07-25 02:29:00,77.0,55.8,0.00,South,180,3.1,6.3,48,0.00,,---,0.00,VWS V14.01,2013-07-25 07:29:00,
2013-07-25 02:30:00,77.0,55.8,0.00,South,180,3.8,6.3,48,0.00,,---,0.00,VWS V14.01,2013-07-25 07:30:00,
2013-07-25 02:31:00,77.0,55.8,0.00,South,180,2.9,4.3,48,0.00,,---,0.00,VWS V14.01,2013-07-25 07:31:00,
2013-07-25 02:32:00,77.0,55.8,0.00,SSE,158,3.8,4.3,48,0.00,,---,0.00,VWS V14.01,2013-07-25 07:32:00,
2013-07-25 02:33:00,77.1,56.5,0.00,SW,225,3.1,4.7,49,0.00,,---,0.00,VWS V14.01,2013-07-25 07:33:00,
2013-07-25 02:34:00,77.1,56.5,0.00,SW,225,2.5,4.7,49,0.00,,---,0.00,VWS V14.01,2013-07-25 07:34:00,
2013-07-25 02:35:00,77.1,56.0,0.00,NW,315,1.3,4.7,48,0.00,,---,0.00,VWS V14.01,2013-07-25 07:35:00,
2013-07-25 02:36:00,77.1,56.0,0.00,NW,315,1.1,4.7,48,0.00,,---,0.00,VWS V14.01,2013-07-25 07:36:00,
2013-07-25 02:37:00,77.1,56.5,0.00,SW,225,1.1,4.7,49,0.00,,---,0.00,VWS V14.01,2013-07-25 07:37:00,
2013-07-25 02:38:00,77.1,56.5,0.00,SW,225,3.8,4.7,49,0.00,,---,0.00,VWS V14.01,2013-07-25 07:38:00,
2013-07-25 02:39:00,77.1,56.5,0.00,SW,225,3.6,4.7,49,0.00,,---,0.00,VWS V14.01,2013-07-25 07:39:00,
2013-07-25 02:40:00,77.1,56.5,0.00,SW,225,3.1,4.7,49,0.00,,---,0.00,VWS V14.01,2013-07-25 07:40:00,
2013-07-25 02:41:00,77.1,56.5,0.00,SW,225,3.4,4.7,49,0.00,,---,0.00,VWS V14.01,2013-07-25 07:41:00,
2013-07-25 02:42:00,77.1,56.5,0.00,SW,225,3.1,4.7,49,0.00,,---,0.00,VWS V14.01,2013-07-25 07:42:00,
2013-07-25 02:43:00,77.0,56.9,0.00,West,270,2.5,4.7,50,0.00,,---,0.00,VWS V14.01,2013-07-25 07:43:00,
2013-07-25 02:44:00,77.0,56.9,0.00,West,270,2.5,4.7,50,0.00,,---,0.00,VWS V14.01,2013-07-25 07:44:00,
2013-07-25 02:45:00,77.0,56.9,0.00,WNW,292,2.0,4.7,50,0.00,,---,0.00,VWS V14.01,2013-07-25 07:45:00,
2013-07-25 02:46:00,77.0,57.5,0.00,SW,225,2.0,2.0,51,0.00,,---,0.00,VWS V14.01,2013-07-25 07:46:00,
2013-07-25 02:47:00,77.0,56.9,0.00,SW,225,1.3,2.2,50,0.00,,---,0.00,VWS V14.01,2013-07-25 07:47:00,
2013-07-25 02:48:00,77.0,56.9,0.00,South,180,1.6,2.2,50,0.00,,---,0.00,VWS V14.01,2013-07-25 07:48:00,
2013-07-25 02:49:00,77.0,57.5,0.00,NW,315,1.6,2.2,51,0.00,,---,0.00,VWS V14.01,2013-07-25 07:49:00,
2013-07-25 02:50:00,77.0,58.5,0.00,WSW,248,2.0,2.2,53,0.00,,---,0.00,VWS V14.01,2013-07-25 07:50:00,
2013-07-25 02:51:00,77.0,58.0,0.00,NW,315,1.1,3.1,52,0.00,,---,0.00,VWS V14.01,2013-07-25 07:51:00,
2013-07-25 02:52:00,76.8,56.8,0.00,West,270,1.6,3.1,50,0.00,,---,0.00,VWS V14.01,2013-07-25 07:52:00,
2013-07-25 02:53:00,76.8,57.3,0.00,West,270,3.4,3.4,51,0.00,,---,0.00,VWS V14.01,2013-07-25 07:53:00,
2013-07-25 02:54:00,76.8,57.3,0.00,WSW,248,1.1,3.4,51,0.00,,---,0.00,VWS V14.01,2013-07-25 07:54:00,
2013-07-25 02:55:00,76.8,56.8,0.00,NW,315,2.0,3.4,50,0.00,,---,0.00,VWS V14.01,2013-07-25 07:55:00,
2013-07-25 02:56:00,76.6,57.1,0.00,West,270,1.3,3.4,51,0.00,,---,0.00,VWS V14.01,2013-07-25 07:56:00,
2013-07-25 02:57:00,76.6,57.1,0.00,SW,225,1.1,3.4,51,0.00,,---,0.00,VWS V14.01,2013-07-25 07:57:00,
2013-07-25 02:58:00,76.6,56.6,0.00,West,270,1.3,3.4,50,0.00,,---,0.00,VWS V14.01,2013-07-25 07:58:00,
2013-07-25 02:59:00,76.6,56.6,0.00,SW,225,1.1,3.4,50,0.00,,---,0.00,VWS V14.01,2013-07-25 07:59:00,
2013-07-25 03:00:00,76.6,56.6,0.00,SW,225,2.2,3.4,50,0.00,,---,0.00,VWS V14.01,2013-07-25 08:00:00,
2013-07-25 03:01:00,76.4,57.5,0.00,South,180,2.0,3.4,52,0.00,,---,0.00,VWS V14.01,2013-07-25 08:01:00,
2013-07-25 03:02:00,76.2,58.4,0.00,South,180,5.8,5.8,54,0.00,,---,0.00,VWS V14.01,2013-07-25 08:02:00,
2013-07-25 03:03:00,76.2,58.4,0.00,South,180,4.9,5.8,54,0.00,,---,0.00,VWS V14.01,2013-07-25 08:03:00,
2013-07-25 03:04:00,76.2,58.4,0.00,South,180,6.3,6.3,54,0.00,,---,0.00,VWS V14.01,2013-07-25 08:04:00,
2013-07-25 03:05:00,75.5,58.2,0.00,South,180,6.0,6.3,55,0.00,,---,0.00,VWS V14.01,2013-07-25 08:05:00,
2013-07-25 03:06:00,75.3,59.1,0.00,South,180,3.4,6.3,57,0.00,,---,0.00,VWS V14.01,2013-07-25 08:06:00,
2013-07-25 03:07:00,75.2,58.9,0.00,South,180,5.6,6.3,57,0.00,,---,0.00,VWS V14.01,2013-07-25 08:07:00,
2013-07-25 03:08:00,75.0,58.2,0.00,SSW,202,4.0,6.3,56,0.00,,---,0.00,VWS V14.01,2013-07-25 08:08:00,
2013-07-25 03:09:00,74.8,58.1,0.00,SSW,202,4.3,6.3,56,0.00,,---,0.00,VWS V14.01,2013-07-25 08:09:00,
2013-07-25 03:10:00,74.6,57.9,0.00,South,180,3.8,6.5,56,0.00,,---,0.00,VWS V14.01,2013-07-25 08:10:00,
2013-07-25 03:11:00,74.4,58.2,0.00,South,180,5.8,6.5,57,0.00,,---,0.00,VWS V14.01,2013-07-25 08:11:00,
2013-07-25 03:13:00,74.1,58.8,0.00,South,180,4.0,6.5,59,0.00,,---,0.00,VWS V14.01,2013-07-25 08:13:00,
2013-07-25 03:14:00,73.9,58.7,0.00,South,180,7.4,7.4,59,0.00,,---,0.00,VWS V14.01,2013-07-25 08:14:00,
2013-07-25 03:15:00,73.9,58.7,0.00,SW,225,6.7,6.7,59,0.00,,---,0.00,VWS V14.01,2013-07-25 08:15:00,
2013-07-25 03:16:00,73.5,58.8,0.00,South,180,6.3,7.2,60,0.00,,---,0.00,VWS V14.01,2013-07-25 08:16:00,
2013-07-25 03:17:00,73.5,58.8,0.00,SW,225,7.4,7.8,60,0.00,,---,0.00,VWS V14.01,2013-07-25 08:17:00,
2013-07-25 03:18:00,73.4,58.7,0.00,SW,225,4.7,7.8,60,0.00,,---,0.00,VWS V14.01,2013-07-25 08:18:00,
2013-07-25 03:19:00,73.2,58.9,0.00,South,180,5.6,7.8,61,0.00,,---,0.00,VWS V14.01,2013-07-25 08:19:00,
2013-07-25 03:20:00,73.0,58.8,0.00,SW,225,5.4,7.8,61,0.00,,---,0.00,VWS V14.01,2013-07-25 08:20:00,
2013-07-25 03:21:00,73.0,58.8,0.00,SW,225,5.4,7.8,61,0.00,,---,0.00,VWS V14.01,2013-07-25 08:21:00,
2013-07-25 03:22:00,72.8,59.1,0.00,South,180,3.8,7.8,62,0.00,,---,0.00,VWS V14.01,2013-07-25 08:22:00,
2013-07-25 03:23:00,72.8,59.1,0.00,SW,225,3.4,7.8,62,0.00,,---,0.00,VWS V14.01,2013-07-25 08:23:00,
2013-07-25 03:24:00,72.6,58.9,0.00,SW,225,3.8,7.8,62,0.00,,---,0.00,VWS V14.01,2013-07-25 08:24:00,
2013-07-25 03:25:00,72.6,58.9,0.00,SW,225,3.1,7.8,62,0.00,,---,0.00,VWS V14.01,2013-07-25 08:25:00,
2013-07-25 03:26:00,72.6,59.3,0.00,SW,225,3.1,7.8,63,0.00,,---,0.00,VWS V14.01,2013-07-25 08:26:00,
2013-07-25 03:27:00,72.6,59.3,0.00,SW,225,3.4,7.8,63,0.00,,---,0.00,VWS V14.01,2013-07-25 08:27:00,
2013-07-25 03:28:00,72.5,59.6,0.00,SW,225,2.0,7.8,64,0.00,,---,0.00,VWS V14.01,2013-07-25 08:28:00,
2013-07-25 03:29:00,72.5,59.6,0.00,WSW,248,2.7,7.8,64,0.00,,---,0.00,VWS V14.01,2013-07-25 08:29:00,
2013-07-25 03:30:00,72.5,59.6,0.00,SW,225,2.7,7.8,64,0.00,,---,0.00,VWS V14.01,2013-07-25 08:30:00,
2013-07-25 03:31:00,72.3,60.3,0.00,SW,225,2.2,3.1,66,0.00,,---,0.00,VWS V14.01,2013-07-25 08:31:00,
2013-07-25 03:32:00,72.1,60.5,0.00,SW,225,2.7,3.1,67,0.00,,---,0.00,VWS V14.01,2013-07-25 08:32:00,
2013-07-25 03:33:00,71.9,60.8,0.00,SW,225,2.7,3.1,68,0.00,,---,0.00,VWS V14.01,2013-07-25 08:33:00,
2013-07-25 03:34:00,71.9,60.8,0.00,SW,225,2.2,3.1,68,0.00,,---,0.00,VWS V14.01,2013-07-25 08:34:00,
2013-07-25 03:35:00,71.6,61.3,0.00,SW,225,2.9,3.1,70,0.00,,---,0.00,VWS V14.01,2013-07-25 08:35:00,
2013-07-25 03:36:00,71.4,61.5,0.00,SW,225,1.6,3.1,71,0.00,,---,0.00,VWS V14.01,2013-07-25 08:36:00,
2013-07-25 03:37:00,71.2,60.9,0.00,SW,225,2.9,3.1,70,0.00,,---,0.00,VWS V14.01,2013-07-25 08:37:00,
2013-07-25 03:38:00,71.2,61.3,0.00,SW,225,3.6,3.8,71,0.00,,---,0.00,VWS V14.01,2013-07-25 08:38:00,
2013-07-25 03:39:00,71.2,61.3,0.00,SW,225,3.6,3.8,71,0.00,,---,0.00,VWS V14.01,2013-07-25 08:39:00,
2013-07-25 03:40:00,70.8,61.4,0.00,SW,225,3.4,4.3,72,0.00,,---,0.00,VWS V14.01,2013-07-25 08:40:00,
2013-07-25 03:41:00,70.7,62.0,0.00,SSW,202,2.5,4.3,74,0.00,,---,0.00,VWS V14.01,2013-07-25 08:41:00,
2013-07-25 03:42:00,70.7,62.4,0.00,SW,225,3.1,4.3,75,0.00,,---,0.00,VWS V14.01,2013-07-25 08:42:00,
2013-07-25 03:43:00,70.5,62.2,0.00,West,270,2.2,4.3,75,0.00,,---,0.00,VWS V14.01,2013-07-25 08:43:00,
2013-07-25 03:45:00,70.1,61.8,0.00,WSW,248,2.0,2.0,75,0.00,,---,0.00,VWS V14.01,2013-07-25 08:45:00,
2013-07-25 03:46:00,70.1,61.8,0.00,NW,315,2.0,2.0,75,0.00,,---,0.00,VWS V14.01,2013-07-25 08:46:00,
2013-07-25 03:47:00,70.1,61.8,0.00,West,270,2.7,2.7,75,0.00,,---,0.00,VWS V14.01,2013-07-25 08:47:00,
2013-07-25 03:48:00,70.1,61.8,0.00,WNW,292,3.1,3.6,75,0.00,,---,0.00,VWS V14.01,2013-07-25 08:48:00,
2013-07-25 03:49:00,70.1,61.8,0.00,West,270,1.6,3.6,75,0.00,,---,0.00,VWS V14.01,2013-07-25 08:49:00,
2013-07-25 03:50:00,69.9,61.3,0.00,West,270,3.1,3.6,74,0.00,,---,0.00,VWS V14.01,2013-07-25 08:50:00,
2013-07-25 03:51:00,69.9,61.3,0.00,West,270,2.0,3.6,74,0.00,,---,0.00,VWS V14.01,2013-07-25 08:51:00,
2013-07-25 03:52:00,69.9,61.7,0.00,West,270,0.0,3.6,75,0.00,,---,0.00,VWS V14.01,2013-07-25 08:52:00,
2013-07-25 03:53:00,69.9,61.7,0.00,West,270,0.0,3.6,75,0.00,,---,0.00,VWS V14.01,2013-07-25 08:53:00,
2013-07-25 03:54:00,69.9,61.3,0.00,West,270,0.0,3.6,74,0.00,,---,0.00,VWS V14.01,2013-07-25 08:54:00,
2013-07-25 03:55:00,69.9,61.3,0.00,West,270,0.0,3.6,74,0.00,,---,0.00,VWS V14.01,2013-07-25 08:55:00,
2013-07-25 03:56:00,69.9,61.3,0.00,West,270,0.0,3.6,74,0.00,,---,0.00,VWS V14.01,2013-07-25 08:56:00,
2013-07-25 03:57:00,69.9,61.3,0.00,West,270,0.0,3.6,74,0.00,,---,0.00,VWS V14.01,2013-07-25 08:57:00,
2013-07-25 03:58:00,69.9,61.3,0.00,West,270,0.0,3.6,74,0.00,,---,0.00,VWS V14.01,2013-07-25 08:58:00,
2013-07-25 03:59:00,69.8,61.5,0.00,West,270,0.0,3.6,75,0.00,,---,0.00,VWS V14.01,2013-07-25 08:59:00,
2013-07-25 04:00:00,69.9,61.7,0.00,West,270,0.0,3.6,75,0.00,,---,0.00,VWS V14.01,2013-07-25 09:00:00,
2013-07-25 04:01:00,69.8,61.5,0.00,West,270,0.0,0.0,75,0.00,,---,0.00,VWS V14.01,2013-07-25 09:01:00,
2013-07-25 04:02:00,69.8,61.5,0.00,SW,225,1.6,1.6,75,0.00,,---,0.00,VWS V14.01,2013-07-25 09:02:00,
2013-07-25 04:03:00,69.8,61.5,0.00,SW,225,2.5,2.5,75,0.00,,---,0.00,VWS V14.01,2013-07-25 09:03:00,
2013-07-25 04:04:00,69.8,62.6,0.00,South,180,3.4,3.4,78,0.00,,---,0.00,VWS V14.01,2013-07-25 09:04:00,
2013-07-25 04:05:00,69.6,63.1,0.00,South,180,4.3,4.3,80,0.00,,---,0.00,VWS V14.01,2013-07-25 09:05:00,
2013-07-25 04:06:00,69.6,63.1,0.00,South,180,4.5,4.9,80,0.00,,---,0.00,VWS V14.01,2013-07-25 09:06:00,
2013-07-25 04:07:00,69.2,63.8,0.00,South,180,5.6,5.6,83,0.00,,---,0.00,VWS V14.01,2013-07-25 09:07:00,
2013-07-25 04:08:00,69.0,63.0,0.00,South,180,5.8,5.8,81,0.00,,---,0.00,VWS V14.01,2013-07-25 09:08:00,
2013-07-25 04:09:00,69.0,62.6,0.00,South,180,5.8,5.8,80,0.00,,---,0.00,VWS V14.01,2013-07-25 09:09:00,
2013-07-25 04:10:00,69.0,62.6,0.00,South,180,5.8,5.8,80,0.00,,---,0.00,VWS V14.01,2013-07-25 09:10:00,
2013-07-25 04:11:00,69.0,62.6,0.00,South,180,5.8,5.8,80,0.00,,---,0.00,VWS V14.01,2013-07-25 09:11:00,
2013-07-25 04:12:00,69.0,62.6,0.00,South,180,5.8,5.8,80,0.00,,---,0.00,VWS V14.01,2013-07-25 09:12:00,
2013-07-25 04:13:00,69.0,62.6,0.00,SW,225,2.0,5.8,80,0.00,,---,0.00,VWS V14.01,2013-07-25 09:13:00,
2013-07-25 04:14:00,68.7,61.5,0.00,NW,315,2.7,5.8,78,0.00,,---,0.00,VWS V14.01,2013-07-25 09:14:00,
2013-07-25 04:15:00,68.7,61.5,0.00,NW,315,2.7,5.8,78,0.00,,---,0.00,VWS V14.01,2013-07-25 09:15:00,
2013-07-25 04:16:00,68.7,61.9,0.00,NW,315,4.0,4.0,79,0.00,,---,0.00,VWS V14.01,2013-07-25 09:16:00,
2013-07-25 04:17:00,68.5,62.5,0.00,NW,315,4.9,4.9,81,0.00,,---,0.00,VWS V14.01,2013-07-25 09:17:00,
2013-07-25 04:18:00,68.5,62.8,0.00,NW,315,3.6,4.9,82,0.00,,---,0.00,VWS V14.01,2013-07-25 09:18:00,
2013-07-25 04:19:00,68.5,62.8,0.00,NW,315,3.1,4.9,82,0.00,,---,0.00,VWS V14.01,2013-07-25 09:19:00,
2013-07-25 04:20:00,68.5,62.8,0.00,NW,315,3.4,4.9,82,0.00,,---,0.00,VWS V14.01,2013-07-25 09:20:00,
2013-07-25 04:21:00,68.3,63.3,0.00,NW,315,4.3,4.9,84,0.00,,---,0.00,VWS V14.01,2013-07-25 09:21:00,
2013-07-25 04:22:00,68.3,63.3,0.00,NW,315,2.9,4.9,84,0.00,,---,0.00,VWS V14.01,2013-07-25 09:22:00,
2013-07-25 04:23:00,68.3,63.3,0.00,NW,315,3.4,4.9,84,0.00,,---,0.00,VWS V14.01,2013-07-25 09:23:00,
2013-07-25 04:24:00,68.3,63.0,0.00,NW,315,2.9,4.9,83,0.00,,---,0.00,VWS V14.01,2013-07-25 09:24:00,
2013-07-25 04:25:00,68.3,63.0,0.00,NNW,338,2.7,4.9,83,0.00,,---,0.00,VWS V14.01,2013-07-25 09:25:00,
2013-07-25 04:27:00,68.1,62.4,0.00,North,0,0.0,4.9,82,0.00,,---,0.00,VWS V14.01,2013-07-25 09:27:00,
2013-07-25 04:28:00,68.1,62.4,0.00,North,0,0.0,4.9,82,0.00,,---,0.00,VWS V14.01,2013-07-25 09:28:00,
2013-07-25 04:30:00,68.1,62.4,0.00,NNW,338,2.5,4.9,82,0.00,,---,0.00,VWS V14.01,2013-07-25 09:30:00,
2013-07-25 04:31:00,68.1,62.4,0.00,NW,315,2.2,2.5,82,0.00,,---,0.00,VWS V14.01,2013-07-25 09:31:00,
2013-07-25 04:32:00,68.1,62.8,0.00,NW,315,2.2,2.7,83,0.00,,---,0.00,VWS V14.01,2013-07-25 09:32:00,
2013-07-25 04:33:00,68.1,62.8,0.00,NW,315,2.0,2.7,83,0.00,,---,0.00,VWS V14.01,2013-07-25 09:33:00,
2013-07-25 04:34:00,68.1,63.1,0.00,NW,315,1.6,2.7,84,0.00,,---,0.00,VWS V14.01,2013-07-25 09:34:00,
2013-07-25 04:35:00,68.1,63.5,0.00,West,270,2.7,2.7,85,0.00,,---,0.00,VWS V14.01,2013-07-25 09:35:00,
2013-07-25 04:36:00,68.1,63.8,0.00,NW,315,4.0,4.0,86,0.00,,---,0.00,VWS V14.01,2013-07-25 09:36:00,
2013-07-25 04:37:00,68.0,64.0,0.00,NW,315,5.8,6.3,87,0.00,,---,0.00,VWS V14.01,2013-07-25 09:37:00,
2013-07-25 04:38:00,68.0,64.3,0.00,NW,315,4.0,6.3,88,0.00,,---,0.00,VWS V14.01,2013-07-25 09:38:00,
2013-07-25 04:39:00,67.8,64.1,0.00,NW,315,3.8,6.3,88,0.00,,---,0.00,VWS V14.01,2013-07-25 09:39:00,
2013-07-25 04:40:00,67.8,64.1,0.00,North,0,3.8,6.3,88,0.00,,---,0.00,VWS V14.01,2013-07-25 09:40:00,
2013-07-25 04:41:00,67.8,64.1,0.00,NW,315,2.5,6.3,88,0.00,,---,0.00,VWS V14.01,2013-07-25 09:41:00,
2013-07-25 04:42:00,67.6,63.6,0.00,North,0,2.5,6.3,87,0.00,,---,0.00,VWS V14.01,2013-07-25 09:42:00,
2013-07-25 04:43:00,67.6,63.6,0.00,NW,315,1.1,6.3,87,0.00,,---,0.00,VWS V14.01,2013-07-25 09:43:00,
2013-07-25 04:44:00,67.6,63.6,0.00,NW,315,2.0,6.3,87,0.00,,---,0.00,VWS V14.01,2013-07-25 09:44:00,
2013-07-25 04:45:00,67.6,63.9,0.00,NW,315,3.1,6.3,88,0.00,,---,0.00,VWS V14.01,2013-07-25 09:45:00,
2013-07-25 04:46:00,67.4,64.1,0.00,NW,315,4.9,4.9,89,0.00,,---,0.00,VWS V14.01,2013-07-25 09:46:00,
2013-07-25 04:47:00,67.4,64.1,0.00,NW,315,4.5,4.9,89,0.00,,---,0.00,VWS V14.01,2013-07-25 09:47:00,
2013-07-25 04:48:00,67.4,64.4,0.00,NW,315,4.0,4.9,90,0.00,,---,0.00,VWS V14.01,2013-07-25 09:48:00,
2013-07-25 04:49:00,67.4,64.4,0.00,NW,315,2.5,4.9,90,0.00,,---,0.00,VWS V14.01,2013-07-25 09:49:00,
2013-07-25 04:50:00,67.2,64.5,0.00,WNW,292,2.5,4.9,91,0.00,,---,0.00,VWS V14.01,2013-07-25 09:50:00,
2013-07-25 04:51:00,67.2,64.5,0.00,NW,315,1.3,4.9,91,0.00,,---,0.00,VWS V14.01,2013-07-25 09:51:00,
2013-07-25 04:53:00,67.2,64.5,0.00,NW,315,0.0,4.9,91,0.00,,---,0.00,VWS V14.01,2013-07-25 09:53:00,
2013-07-25 04:54:00,67.2,64.2,0.00,NW,315,1.6,4.9,90,0.00,,---,0.00,VWS V14.01,2013-07-25 09:54:00,
2013-07-25 04:55:00,67.2,64.2,0.00,NW,315,3.1,4.9,90,0.00,,---,0.00,VWS V14.01,2013-07-25 09:55:00,
2013-07-25 04:56:00,67.2,64.5,0.00,NW,315,2.9,4.9,91,0.00,,---,0.00,VWS V14.01,2013-07-25 09:56:00,
2013-07-25 04:57:00,67.2,64.5,0.00,NW,315,3.8,4.9,91,0.00,,---,0.00,VWS V14.01,2013-07-25 09:57:00,
2013-07-25 04:58:00,67.2,64.8,0.00,NW,315,4.0,4.9,92,0.00,,---,0.00,VWS V14.01,2013-07-25 09:58:00,
2013-07-25 04:59:00,67.2,64.8,0.00,NW,315,2.7,4.9,92,0.00,,---,0.00,VWS V14.01,2013-07-25 09:59:00,
2013-07-25 05:00:00,67.2,64.8,0.00,North,0,1.6,4.9,92,0.00,,---,0.00,VWS V14.01,2013-07-25 10:00:00,
2013-07-25 05:01:00,67.4,65.0,0.00,North,0,0.9,1.6,92,0.00,,---,0.00,VWS V14.01,2013-07-25 10:01:00,
2013-07-25 05:02:00,67.4,65.0,0.00,North,0,0.9,1.6,92,0.00,,---,0.00,VWS V14.01,2013-07-25 10:02:00,
2013-07-25 05:03:00,67.4,65.0,0.00,East,90,1.1,1.6,92,0.00,,---,0.00,VWS V14.01,2013-07-25 10:03:00,
2013-07-25 05:04:00,67.6,64.9,0.00,East,90,0.0,1.6,91,0.00,,---,0.00,VWS V14.01,2013-07-25 10:04:00,
2013-07-25 05:05:00,67.6,64.9,0.00,East,90,0.0,1.6,91,0.00,,---,0.00,VWS V14.01,2013-07-25 10:05:00,
2013-07-25 05:06:00,67.8,64.7,0.00,SSE,158,0.0,1.6,90,0.00,,---,0.00,VWS V14.01,2013-07-25 10:06:00,
2013-07-25 05:07:00,67.8,64.7,0.00,South,180,1.3,1.6,90,0.00,,---,0.00,VWS V14.01,2013-07-25 10:07:00,
2013-07-25 05:09:00,67.8,64.7,0.00,South,180,2.7,2.7,90,0.00,,---,0.00,VWS V14.01,2013-07-25 10:09:00,
2013-07-25 05:10:00,67.8,64.7,0.00,SSE,158,3.8,3.8,90,0.00,,---,0.00,VWS V14.01,2013-07-25 10:10:00,
2013-07-25 05:11:00,68.0,64.9,0.00,South,180,3.4,3.8,90,0.00,,---,0.00,VWS V14.01,2013-07-25 10:11:00,
2013-07-25 05:12:00,68.0,64.9,0.00,SSE,158,4.3,4.3,90,0.00,,---,0.00,VWS V14.01,2013-07-25 10:12:00,
2013-07-25 05:13:00,68.0,64.9,0.00,SSE,158,4.3,4.3,90,0.00,,---,0.00,VWS V14.01,2013-07-25 10:13:00,
2013-07-25 05:14:00,68.1,65.4,0.00,South,180,4.3,4.9,91,0.00,,---,0.00,VWS V14.01,2013-07-25 10:14:00,
2013-07-25 05:16:00,68.1,65.4,0.00,SW,225,2.2,4.9,91,0.00,,---,0.00,VWS V14.01,2013-07-25 10:16:00,
2013-07-25 05:17:00,68.3,65.6,0.00,NW,315,0.0,4.9,91,0.00,,---,0.00,VWS V14.01,2013-07-25 10:17:00,
2013-07-25 05:18:00,68.3,65.3,0.00,NW,315,2.7,4.9,90,0.00,,---,0.00,VWS V14.01,2013-07-25 10:18:00,
2013-07-25 05:19:00,68.3,65.6,0.00,NW,315,3.4,4.9,91,0.00,,---,0.00,VWS V14.01,2013-07-25 10:19:00,
2013-07-25 05:20:00,68.3,65.6,0.00,NNW,338,4.0,4.9,91,0.00,,---,0.00,VWS V14.01,2013-07-25 10:20:00,
2013-07-25 05:21:00,68.3,65.6,0.00,North,0,5.8,6.5,91,0.00,,---,0.00,VWS V14.01,2013-07-25 10:21:00,
2013-07-25 05:22:00,68.5,65.5,0.00,NW,315,6.0,6.5,90,0.00,,---,0.00,VWS V14.01,2013-07-25 10:22:00,
2013-07-25 05:23:00,68.5,65.5,0.00,NNW,338,4.9,6.5,90,0.00,,---,0.00,VWS V14.01,2013-07-25 10:23:00,
2013-07-25 05:24:00,68.5,65.1,0.00,NW,315,5.8,6.5,89,0.00,,---,0.00,VWS V14.01,2013-07-25 10:24:00,
2013-07-25 05:25:00,68.5,64.8,0.00,North,0,5.8,6.7,88,0.00,,---,0.00,VWS V14.01,2013-07-25 10:25:00,
2013-07-25 05:26:00,68.7,65.0,0.00,North,0,4.3,6.7,88,0.00,,---,0.00,VWS V14.01,2013-07-25 10:26:00,
2013-07-25 05:27:00,68.7,65.0,0.00,North,0,4.3,6.7,88,0.00,,---,0.00,VWS V14.01,2013-07-25 10:27:00,
2013-07-25 05:29:00,68.7,64.7,0.00,North,0,4.3,6.7,87,0.00,,---,0.00,VWS V14.01,2013-07-25 10:29:00,
2013-07-25 05:30:00,68.9,64.8,0.00,North,0,4.3,6.7,87,0.00,,---,0.00,VWS V14.01,2013-07-25 10:30:00,
2013-07-25 05:31:00,68.9,64.8,0.00,North,0,3.6,4.3,87,0.00,,---,0.00,VWS V14.01,2013-07-25 10:31:00,
2013-07-25 05:32:00,68.9,65.2,0.00,NNW,338,3.6,4.3,88,0.00,,---,0.00,VWS V14.01,2013-07-25 10:32:00,
2013-07-25 05:33:00,69.0,65.3,0.00,North,0,4.3,4.3,88,0.00,,---,0.00,VWS V14.01,2013-07-25 10:33:00,
2013-07-25 05:34:00,69.0,65.3,0.00,North,0,4.3,4.3,88,0.00,,---,0.00,VWS V14.01,2013-07-25 10:34:00,
2013-07-25 05:35:00,69.2,65.5,0.00,North,0,3.6,4.9,88,0.00,,---,0.00,VWS V14.01,2013-07-25 10:35:00,
2013-07-25 05:36:00,69.6,65.2,0.00,North,0,5.8,5.8,86,0.00,,---,0.00,VWS V14.01,2013-07-25 10:36:00,
2013-07-25 05:37:00,69.8,65.1,0.00,North,0,4.3,5.8,85,0.00,,---,0.00,VWS V14.01,2013-07-25 10:37:00,
2013-07-25 05:38:00,69.8,65.1,0.00,North,0,2.7,5.8,85,0.00,,---,0.00,VWS V14.01,2013-07-25 10:38:00,
2013-07-25 05:39:00,70.1,64.7,0.00,North,0,6.3,6.7,83,0.00,,---,0.00,VWS V14.01,2013-07-25 10:39:00,
2013-07-25 05:40:00,70.1,64.7,0.00,NW,315,3.6,6.7,83,0.00,,---,0.00,VWS V14.01,2013-07-25 10:40:00,
2013-07-25 05:41:00,70.8,66.1,0.00,NW,315,4.9,6.7,85,0.00,,---,0.00,VWS V14.01,2013-07-25 10:41:00,
2013-07-25 05:43:00,71.0,64.9,0.00,NW,315,4.0,6.7,81,0.00,,---,0.00,VWS V14.01,2013-07-25 10:43:00,
2013-07-25 05:44:00,71.7,64.5,0.00,NW,315,4.9,6.7,78,0.00,,---,0.00,VWS V14.01,2013-07-25 10:44:00,
2013-07-25 05:45:00,72.1,63.8,0.00,NW,315,4.3,6.7,75,0.00,,---,0.00,VWS V14.01,2013-07-25 10:45:00,
2013-07-25 05:46:00,73.2,65.2,0.00,NW,315,4.3,4.3,76,0.00,,---,0.00,VWS V14.01,2013-07-25 10:46:00,
2013-07-25 05:47:00,73.2,65.2,0.00,NW,315,2.0,5.4,76,0.00,,---,0.00,VWS V14.01,2013-07-25 10:47:00,
2013-07-25 05:48:00,74.3,65.4,0.00,NE,45,2.9,5.4,74,0.00,,---,0.00,VWS V14.01,2013-07-25 10:48:00,
2013-07-25 05:49:00,74.8,66.3,0.00,NE,45,2.0,5.4,75,0.00,,---,0.00,VWS V14.01,2013-07-25 10:49:00,
2013-07-25 05:50:00,75.3,66.9,0.00,NE,45,4.0,5.4,75,0.00,,---,0.00,VWS V14.01,2013-07-25 10:50:00,
2013-07-25 05:51:00,75.5,66.3,0.00,North,0,3.8,5.4,73,0.00,,---,0.00,VWS V14.01,2013-07-25 10:51:00,
2013-07-25 05:52:00,76.2,65.3,0.00,NNE,22,2.5,5.4,69,0.00,,---,0.00,VWS V14.01,2013-07-25 10:52:00,
2013-07-25 05:53:00,76.6,65.7,0.00,NNE,22,2.7,5.4,69,0.00,,---,0.00,VWS V14.01,2013-07-25 10:53:00,
2013-07-25 05:54:00,76.6,64.4,0.00,NE,45,5.4,5.4,66,0.00,,---,0.00,VWS V14.01,2013-07-25 10:54:00,
2013-07-25 05:55:00,76.6,64.4,0.00,NE,45,3.6,5.4,66,0.00,,---,0.00,VWS V14.01,2013-07-25 10:55:00,
2013-07-25 05:56:00,76.6,64.4,0.00,North,0,4.9,5.4,66,0.00,,---,0.00,VWS V14.01,2013-07-25 10:56:00,
2013-07-25 05:57:00,76.4,63.8,0.00,NNE,22,6.0,6.0,65,0.00,,---,0.00,VWS V14.01,2013-07-25 10:57:00,
2013-07-25 05:58:00,76.2,62.7,0.00,North,0,4.3,6.0,63,0.00,,---,0.00,VWS V14.01,2013-07-25 10:58:00,
2013-07-25 05:59:00,76.8,62.3,0.00,NNE,22,4.0,6.0,61,0.00,,---,0.00,VWS V14.01,2013-07-25 10:59:00,
2013-07-25 06:00:00,77.0,63.0,0.00,NE,45,3.8,6.0,62,0.00,,---,0.00,VWS V14.01,2013-07-25 11:00:00,
2013-07-25 06:01:00,77.3,63.8,0.00,NE,45,2.7,3.8,63,0.00,,---,0.00,VWS V14.01,2013-07-25 11:01:00,
2013-07-25 06:02:00,77.5,64.4,0.00,North,0,1.6,3.8,64,0.00,,---,0.00,VWS V14.01,2013-07-25 11:02:00,
2013-07-25 06:03:00,77.7,64.1,0.00,NE,45,0.9,3.8,63,0.00,,---,0.00,VWS V14.01,2013-07-25 11:03:00,
2013-07-25 06:04:00,77.7,62.7,0.00,NE,45,3.6,4.3,60,0.00,,---,0.00,VWS V14.01,2013-07-25 11:04:00,
2013-07-25 06:05:00,77.9,62.4,0.00,North,0,4.0,4.3,59,0.00,,---,0.00,VWS V14.01,2013-07-25 11:05:00,
2013-07-25 06:06:00,78.0,63.0,0.00,NW,315,3.1,4.3,60,0.00,,---,0.00,VWS V14.01,2013-07-25 11:06:00,
2013-07-25 06:07:00,78.0,62.6,0.00,NW,315,2.9,4.3,59,0.00,,---,0.00,VWS V14.01,2013-07-25 11:07:00,
2013-07-25 06:08:00,78.0,62.6,0.00,North,0,2.7,4.3,59,0.00,,---,0.00,VWS V14.01,2013-07-25 11:08:00,
2013-07-25 06:09:00,78.2,62.7,0.00,NNE,22,3.4,4.3,59,0.00,,---,0.00,VWS V14.01,2013-07-25 11:09:00,
2013-07-25 06:10:00,78.4,62.9,0.00,ENE,68,3.4,4.3,59,0.00,,---,0.00,VWS V14.01,2013-07-25 11:10:00,
2013-07-25 06:11:00,78.4,62.9,0.00,NNE,22,4.9,5.6,59,0.00,,---,0.00,VWS V14.01,2013-07-25 11:11:00,
2013-07-25 06:12:00,78.4,61.4,0.00,NNE,22,1.1,5.6,56,0.00,,---,0.00,VWS V14.01,2013-07-25 11:12:00,
2013-07-25 06:13:00,78.6,62.1,0.00,NE,45,2.5,5.6,57,0.00,,---,0.00,VWS V14.01,2013-07-25 11:13:00,
2013-07-25 06:14:00,78.8,61.8,0.00,North,0,3.4,5.6,56,0.00,,---,0.00,VWS V14.01,2013-07-25 11:14:00,
2013-07-25 06:15:00,78.8,61.8,0.00,North,0,2.7,5.6,56,0.00,,---,0.00,VWS V14.01,2013-07-25 11:15:00,
2013-07-25 06:16:00,77.9,60.9,0.00,North,0,7.4,7.4,56,0.00,,---,0.00,VWS V14.01,2013-07-25 11:16:00,
2013-07-25 06:17:00,77.7,60.2,0.00,NW,315,3.8,7.4,55,0.00,,---,0.00,VWS V14.01,2013-07-25 11:17:00,
2013-07-25 06:18:00,77.3,59.9,0.00,NW,315,5.6,7.4,55,0.00,,---,0.00,VWS V14.01,2013-07-25 11:18:00,
2013-07-25 06:19:00,77.3,59.9,0.00,NW,315,5.6,7.4,55,0.00,,---,0.00,VWS V14.01,2013-07-25 11:19:00,
2013-07-25 06:20:00,76.8,60.4,0.00,North,0,5.4,7.4,57,0.00,,---,0.00,VWS V14.01,2013-07-25 11:20:00,
2013-07-25 06:21:00,76.6,60.2,0.00,NNE,22,3.8,7.4,57,0.00,,---,0.00,VWS V14.01,2013-07-25 11:21:00,
2013-07-25 06:22:00,76.6,60.2,0.00,NNE,22,3.8,7.4,57,0.00,,---,0.00,VWS V14.01,2013-07-25 11:22:00,
2013-07-25 06:23:00,77.1,60.8,0.00,NNE,22,4.5,7.4,57,0.00,,---,0.00,VWS V14.01,2013-07-25 11:23:00,
2013-07-25 06:24:00,77.1,60.8,0.00,North,0,3.6,7.4,57,0.00,,---,0.00,VWS V14.01,2013-07-25 11:24:00,
2013-07-25 06:25:00,77.1,60.8,0.00,North,0,3.4,7.4,57,0.00,,---,0.00,VWS V14.01,2013-07-25 11:25:00,
2013-07-25 06:26:00,77.5,61.1,0.00,North,0,6.3,7.4,57,0.00,,---,0.00,VWS V14.01,2013-07-25 11:26:00,
2013-07-25 06:27:00,77.5,61.1,0.00,North,0,5.6,7.4,57,0.00,,---,0.00,VWS V14.01,2013-07-25 11:27:00,
2013-07-25 06:28:00,77.7,61.2,0.00,North,0,5.4,7.4,57,0.00,,---,0.00,VWS V14.01,2013-07-25 11:28:00,
2013-07-25 06:29:00,77.7,60.8,0.00,NNE,22,5.8,7.4,56,0.00,,---,0.00,VWS V14.01,2013-07-25 11:29:00,
2013-07-25 06:31:00,77.7,60.8,0.00,North,0,4.9,7.4,56,0.00,,---,0.00,VWS V14.01,2013-07-25 11:31:00,
2013-07-25 06:32:00,77.7,60.8,0.00,NE,45,3.1,7.4,56,0.00,,---,0.00,VWS V14.01,2013-07-25 11:32:00,
2013-07-25 06:33:00,77.7,60.8,0.00,NE,45,0.9,7.4,56,0.00,,---,0.00,VWS V14.01,2013-07-25 11:33:00,
2013-07-25 06:34:00,78.2,60.8,0.00,East,90,1.6,7.4,55,0.00,,---,0.00,VWS V14.01,2013-07-25 11:34:00,
2013-07-25 06:35:00,78.6,61.6,0.00,NE,45,1.1,7.4,56,0.00,,---,0.00,VWS V14.01,2013-07-25 11:35:00,
2013-07-25 06:36:00,78.6,61.6,0.00,North,0,4.3,7.4,56,0.00,,---,0.00,VWS V14.01,2013-07-25 11:36:00,
2013-07-25 06:37:00,78.6,61.6,0.00,North,0,4.3,7.4,56,0.00,,---,0.00,VWS V14.01,2013-07-25 11:37:00,
2013-07-25 06:38:00,78.6,61.6,0.00,NNE,22,3.4,7.4,56,0.00,,---,0.00,VWS V14.01,2013-07-25 11:38:00,
2013-07-25 06:39:00,78.6,61.6,0.00,North,0,4.0,7.4,56,0.00,,---,0.00,VWS V14.01,2013-07-25 11:39:00,
2013-07-25 06:40:00,78.2,59.7,0.00,NNE,22,4.3,7.4,53,0.00,,---,0.00,VWS V14.01,2013-07-25 11:40:00,
2013-07-25 06:41:00,78.2,60.2,0.00,North,0,4.9,7.4,54,0.00,,---,0.00,VWS V14.01,2013-07-25 11:41:00,
2013-07-25 06:42:00,78.2,60.2,0.00,NNE,22,4.3,7.4,54,0.00,,---,0.00,VWS V14.01,2013-07-25 11:42:00,
2013-07-25 06:44:00,78.4,59.9,0.00,NNE,22,4.3,7.4,53,0.00,,---,0.00,VWS V14.01,2013-07-25 11:44:00,
2013-07-25 06:45:00,78.4,59.9,0.00,NE,45,2.0,7.4,53,0.00,,---,0.00,VWS V14.01,2013-07-25 11:45:00,
2013-07-25 06:46:00,78.4,59.9,0.00,NE,45,3.1,4.3,53,0.00,,---,0.00,VWS V14.01,2013-07-25 11:46:00,
2013-07-25 06:47:00,78.4,59.9,0.00,NE,45,4.3,4.3,53,0.00,,---,0.00,VWS V14.01,2013-07-25 11:47:00,
2013-07-25 06:48:00,78.9,59.8,0.00,NNE,22,2.9,4.3,52,0.00,,---,0.00,VWS V14.01,2013-07-25 11:48:00,
2013-07-25 06:49:00,78.9,60.4,0.00,NE,45,3.1,4.3,53,0.00,,---,0.00,VWS V14.01,2013-07-25 11:49:00,
2013-07-25 06:50:00,78.9,59.8,0.00,NE,45,4.3,5.4,52,0.00,,---,0.00,VWS V14.01,2013-07-25 11:50:00,
2013-07-25 06:51:00,79.1,60.0,0.00,NE,45,3.6,5.4,52,0.00,,---,0.00,VWS V14.01,2013-07-25 11:51:00,
2013-07-25 06:52:00,78.9,59.8,0.00,NE,45,4.3,5.4,52,0.00,,---,0.00,VWS V14.01,2013-07-25 11:52:00,
2013-07-25 06:53:00,78.9,60.4,0.00,North,0,3.8,5.4,53,0.00,,---,0.00,VWS V14.01,2013-07-25 11:53:00,
2013-07-25 06:54:00,78.8,60.7,0.00,North,0,3.8,5.4,54,0.00,,---,0.00,VWS V14.01,2013-07-25 11:54:00,
2013-07-25 06:55:00,78.8,60.7,0.00,NNE,22,4.9,5.4,54,0.00,,---,0.00,VWS V14.01,2013-07-25 11:55:00,
2013-07-25 06:56:00,78.8,60.2,0.00,NE,45,7.4,8.1,53,0.00,,---,0.00,VWS V14.01,2013-07-25 11:56:00,
2013-07-25 06:57:00,78.8,59.7,0.00,NE,45,6.3,8.1,52,0.00,,---,0.00,VWS V14.01,2013-07-25 11:57:00,
2013-07-25 06:58:00,78.6,59.5,0.00,NE,45,4.7,8.1,52,0.00,,---,0.00,VWS V14.01,2013-07-25 11:58:00,
2013-07-25 06:59:00,78.8,60.2,0.00,NNE,22,2.0,8.1,53,0.00,,---,0.00,VWS V14.01,2013-07-25 11:59:00,
2013-07-25 07:00:00,78.8,59.7,0.00,North,0,3.6,8.1,52,0.00,,---,0.00,VWS V14.01,2013-07-25 12:00:00,
2013-07-25 07:01:00,78.8,60.2,0.00,North,0,2.9,3.6,53,0.00,,---,0.00,VWS V14.01,2013-07-25 12:01:00,
2013-07-25 07:03:00,78.9,60.4,0.00,NE,45,3.4,3.6,53,0.00,,---,0.00,VWS V14.01,2013-07-25 12:03:00,
2013-07-25 07:04:00,78.9,59.8,0.00,NNE,22,3.4,4.0,52,0.00,,---,0.00,VWS V14.01,2013-07-25 12:04:00,
2013-07-25 07:05:00,78.8,59.1,0.00,NNE,22,6.0,6.3,51,0.00,,---,0.00,VWS V14.01,2013-07-25 12:05:00,
2013-07-25 07:06:00,78.8,59.1,0.00,North,0,4.0,6.3,51,0.00,,---,0.00,VWS V14.01,2013-07-25 12:06:00,
2013-07-25 07:08:00,78.4,58.8,0.00,NNE,22,3.8,6.3,51,0.00,,---,0.00,VWS V14.01,2013-07-25 12:08:00,
2013-07-25 07:09:00,78.4,58.8,0.00,NNE,22,3.4,6.3,51,0.00,,---,0.00,VWS V14.01,2013-07-25 12:09:00,
2013-07-25 07:10:00,78.6,59.0,0.00,North,0,3.8,6.3,51,0.00,,---,0.00,VWS V14.01,2013-07-25 12:10:00,
2013-07-25 07:11:00,78.6,59.5,0.00,NE,45,4.7,6.3,52,0.00,,---,0.00,VWS V14.01,2013-07-25 12:11:00,
2013-07-25 07:12:00,78.6,59.5,0.00,NE,45,4.9,6.3,52,0.00,,---,0.00,VWS V14.01,2013-07-25 12:12:00,
2013-07-25 07:13:00,78.8,59.7,0.00,NE,45,3.4,6.3,52,0.00,,---,0.00,VWS V14.01,2013-07-25 12:13:00,
2013-07-25 07:14:00,78.8,59.7,0.00,NNE,22,3.4,6.3,52,0.00,,---,0.00,VWS V14.01,2013-07-25 12:14:00,
2013-07-25 07:15:00,78.9,59.8,0.00,NE,45,2.5,6.3,52,0.00,,---,0.00,VWS V14.01,2013-07-25 12:15:00,
2013-07-25 07:16:00,78.9,59.8,0.00,NE,45,3.4,4.0,52,0.00,,---,0.00,VWS V14.01,2013-07-25 12:16:00,
2013-07-25 07:17:00,78.9,59.3,0.00,NE,45,3.4,4.3,51,0.00,,---,0.00,VWS V14.01,2013-07-25 12:17:00,
2013-07-25 07:18:00,79.1,60.0,0.00,NE,45,3.8,4.3,52,0.00,,---,0.00,VWS V14.01,2013-07-25 12:18:00,
2013-07-25 07:19:00,78.9,59.3,0.00,NE,45,2.7,4.3,51,0.00,,---,0.00,VWS V14.01,2013-07-25 12:19:00,
2013-07-25 07:20:00,78.9,59.8,0.00,NE,45,3.8,4.3,52,0.00,,---,0.00,VWS V14.01,2013-07-25 12:20:00,
2013-07-25 07:21:00,78.8,59.1,0.00,NE,45,5.4,5.4,51,0.00,,---,0.00,VWS V14.01,2013-07-25 12:21:00,
2013-07-25 07:22:00,78.8,59.1,0.00,NE,45,5.8,5.8,51,0.00,,---,0.00,VWS V14.01,2013-07-25 12:22:00,
2013-07-25 07:23:00,78.6,59.0,0.00,NE,45,4.0,5.8,51,0.00,,---,0.00,VWS V14.01,2013-07-25 12:23:00,
2013-07-25 07:24:00,78.4,58.8,0.00,NE,45,4.0,5.8,51,0.00,,---,0.00,VWS V14.01,2013-07-25 12:24:00,
2013-07-25 07:25:00,78.2,58.6,0.00,NE,45,3.6,5.8,51,0.00,,---,0.00,VWS V14.01,2013-07-25 12:25:00,
2013-07-25 07:26:00,78.4,58.8,0.00,NE,45,2.9,5.8,51,0.00,,---,0.00,VWS V14.01,2013-07-25 12:26:00,
2013-07-25 07:27:00,78.4,58.8,0.00,NE,45,3.6,5.8,51,0.00,,---,0.00,VWS V14.01,2013-07-25 12:27:00,
2013-07-25 07:28:00,78.6,59.5,0.00,NE,45,3.6,5.8,52,0.00,,---,0.00,VWS V14.01,2013-07-25 12:28:00,
2013-07-25 07:29:00,78.6,59.0,0.00,NE,45,5.4,5.8,51,0.00,,---,0.00,VWS V14.01,2013-07-25 12:29:00,
2013-07-25 07:31:00,78.6,59.0,0.00,NE,45,3.4,5.8,51,0.00,,---,0.00,VWS V14.01,2013-07-25 12:31:00,
2013-07-25 07:32:00,77.7,58.7,0.00,North,0,3.1,5.8,52,0.00,,---,0.00,VWS V14.01,2013-07-25 12:32:00,
2013-07-25 07:33:00,77.7,58.7,0.00,North,0,3.6,5.8,52,0.00,,---,0.00,VWS V14.01,2013-07-25 12:33:00,
2013-07-25 07:34:00,77.7,58.7,0.00,NE,45,3.1,5.8,52,0.00,,---,0.00,VWS V14.01,2013-07-25 12:34:00,
2013-07-25 07:35:00,78.0,59.0,0.00,NE,45,2.7,5.8,52,0.00,,---,0.00,VWS V14.01,2013-07-25 12:35:00,
2013-07-25 07:36:00,78.0,58.5,0.00,NE,45,2.2,5.8,51,0.00,,---,0.00,VWS V14.01,2013-07-25 12:36:00,
2013-07-25 07:37:00,78.0,58.5,0.00,NE,45,1.6,5.8,51,0.00,,---,0.00,VWS V14.01,2013-07-25 12:37:00,
2013-07-25 07:38:00,78.8,59.7,0.00,NE,45,1.6,5.8,52,0.00,,---,0.00,VWS V14.01,2013-07-25 12:38:00,
2013-07-25 07:39:00,78.9,59.3,0.00,NE,45,1.1,5.8,51,0.00,,---,0.00,VWS V14.01,2013-07-25 12:39:00,
2013-07-25 07:40:00,79.1,59.5,0.00,NE,45,0.0,5.8,51,0.00,,---,0.00,VWS V14.01,2013-07-25 12:40:00,
2013-07-25 07:41:00,79.3,59.6,0.00,NE,45,0.0,5.8,51,0.00,,---,0.00,VWS V14.01,2013-07-25 12:41:00,
2013-07-25 07:42:00,79.3,59.1,0.00,NE,45,0.0,5.8,50,0.00,,---,0.00,VWS V14.01,2013-07-25 12:42:00,
2013-07-25 07:43:00,79.3,59.1,0.00,South,180,1.1,5.8,50,0.00,,---,0.00,VWS V14.01,2013-07-25 12:43:00,
2013-07-25 07:44:00,79.3,59.1,0.00,South,180,0.0,5.8,50,0.00,,---,0.00,VWS V14.01,2013-07-25 12:44:00,
2013-07-25 07:45:00,79.7,59.4,0.00,South,180,0.0,5.8,50,0.00,,---,0.00,VWS V14.01,2013-07-25 12:45:00,
2013-07-25 07:46:00,79.8,60.1,0.00,South,180,0.0,0.0,51,0.00,,---,0.00,VWS V14.01,2013-07-25 12:46:00,
2013-07-25 07:47:00,80.0,59.7,0.00,South,180,0.0,0.0,50,0.00,,---,0.00,VWS V14.01,2013-07-25 12:47:00,
2013-07-25 07:48:00,80.0,59.7,0.00,South,180,0.0,0.0,50,0.00,,---,0.00,VWS V14.01,2013-07-25 12:48:00,
2013-07-25 07:49:00,80.0,59.7,0.00,South,180,0.9,0.9,50,0.00,,---,0.00,VWS V14.01,2013-07-25 12:49:00,
2013-07-25 07:50:00,79.8,60.1,0.00,West,270,1.3,1.3,51,0.00,,---,0.00,VWS V14.01,2013-07-25 12:50:00,
2013-07-25 07:51:00,79.7,59.4,0.00,NE,45,0.0,1.3,50,0.00,,---,0.00,VWS V14.01,2013-07-25 12:51:00,
2013-07-25 07:52:00,79.5,59.2,0.00,NE,45,2.0,2.0,50,0.00,,---,0.00,VWS V14.01,2013-07-25 12:52:00,
2013-07-25 07:53:00,79.7,59.4,0.00,NE,45,1.3,2.0,50,0.00,,---,0.00,VWS V14.01,2013-07-25 12:53:00,
2013-07-25 07:54:00,79.8,59.6,0.00,NE,45,1.1,2.0,50,0.00,,---,0.00,VWS V14.01,2013-07-25 12:54:00,
2013-07-25 07:55:00,79.8,59.6,0.00,NE,45,0.9,2.0,50,0.00,,---,0.00,VWS V14.01,2013-07-25 12:55:00,
2013-07-25 07:56:00,80.2,59.9,0.00,NE,45,0.9,2.0,50,0.00,,---,0.00,VWS V14.01,2013-07-25 12:56:00,
2013-07-25 07:57:00,80.2,59.9,0.00,East,90,1.6,2.0,50,0.00,,---,0.00,VWS V14.01,2013-07-25 12:57:00,
2013-07-25 07:58:00,80.2,59.9,0.00,East,90,2.0,2.0,50,0.00,,---,0.00,VWS V14.01,2013-07-25 12:58:00,
2013-07-25 07:59:00,80.2,59.9,0.00,East,90,0.0,2.0,50,0.00,,---,0.00,VWS V14.01,2013-07-25 12:59:00,
2013-07-25 08:00:00,80.2,59.3,0.00,East,90,0.0,2.0,49,0.00,,---,0.00,VWS V14.01,2013-07-25 13:00:00,
2013-07-25 08:02:00,80.2,59.3,0.00,SE,135,4.0,4.0,49,0.00,,---,0.00,VWS V14.01,2013-07-25 13:02:00,
2013-07-25 08:03:00,79.5,59.2,0.00,SE,135,3.8,4.0,50,0.00,,---,0.00,VWS V14.01,2013-07-25 13:03:00,
2013-07-25 08:04:00,79.5,59.2,0.00,SSE,158,4.3,4.9,50,0.00,,---,0.00,VWS V14.01,2013-07-25 13:04:00,
2013-07-25 08:05:00,78.6,59.0,0.00,SSE,158,4.0,4.9,51,0.00,,---,0.00,VWS V14.01,2013-07-25 13:05:00,
2013-07-25 08:06:00,78.2,58.6,0.00,SE,135,2.9,4.9,51,0.00,,---,0.00,VWS V14.01,2013-07-25 13:06:00,
2013-07-25 08:07:00,78.0,59.0,0.00,SE,135,3.6,4.9,52,0.00,,---,0.00,VWS V14.01,2013-07-25 13:07:00,
2013-07-25 08:08:00,77.9,58.8,0.00,SE,135,2.7,4.9,52,0.00,,---,0.00,VWS V14.01,2013-07-25 13:08:00,
2013-07-25 08:09:00,77.5,58.5,0.00,SE,135,3.1,4.9,52,0.00,,---,0.00,VWS V14.01,2013-07-25 13:09:00,
2013-07-25 08:10:00,77.5,58.5,0.00,SE,135,3.1,4.9,52,0.00,,---,0.00,VWS V14.01,2013-07-25 13:10:00,
2013-07-25 08:11:00,77.1,58.7,0.00,SE,135,2.5,4.9,53,0.00,,---,0.00,VWS V14.01,2013-07-25 13:11:00,
2013-07-25 08:12:00,77.0,58.5,0.00,SE,135,2.0,4.9,53,0.00,,---,0.00,VWS V14.01,2013-07-25 13:12:00,
2013-07-25 08:13:00,76.6,58.2,0.00,SE,135,0.0,4.9,53,0.00,,---,0.00,VWS V14.01,2013-07-25 13:13:00,
2013-07-25 08:14:00,76.2,58.4,0.00,SE,135,0.9,4.9,54,0.00,,---,0.00,VWS V14.01,2013-07-25 13:14:00,
2013-07-25 08:15:00,76.1,58.2,0.00,SE,135,2.0,4.9,54,0.00,,---,0.00,VWS V14.01,2013-07-25 13:15:00,
2013-07-25 08:16:00,75.5,58.2,0.00,SE,135,1.3,2.0,55,0.00,,---,0.00,VWS V14.01,2013-07-25 13:16:00,
2013-07-25 08:17:00,75.3,59.6,0.00,SE,135,0.0,2.0,58,0.00,,---,0.00,VWS V14.01,2013-07-25 13:17:00,
2013-07-25 08:18:00,74.8,60.0,0.00,SE,135,0.0,2.0,60,0.00,,---,0.00,VWS V14.01,2013-07-25 13:18:00,
2013-07-25 08:19:00,74.4,60.1,0.00,South,180,0.0,2.0,61,0.00,,---,0.00,VWS V14.01,2013-07-25 13:19:00,
2013-07-25 08:20:00,73.9,60.1,0.00,South,180,1.3,2.0,62,0.00,,---,0.00,VWS V14.01,2013-07-25 13:20:00,
2013-07-25 08:21:00,73.7,59.9,0.00,South,180,1.1,2.0,62,0.00,,---,0.00,VWS V14.01,2013-07-25 13:21:00,
2013-07-25 08:22:00,73.4,60.0,0.00,South,180,0.9,2.0,63,0.00,,---,0.00,VWS V14.01,2013-07-25 13:22:00,
2013-07-25 08:23:00,73.2,59.4,0.00,South,180,0.0,2.0,62,0.00,,---,0.00,VWS V14.01,2013-07-25 13:23:00,
2013-07-25 08:24:00,73.4,59.1,0.00,South,180,0.0,2.0,61,0.00,,---,0.00,VWS V14.01,2013-07-25 13:24:00,
2013-07-25 08:25:00,73.4,59.1,0.00,South,180,0.0,2.0,61,0.00,,---,0.00,VWS V14.01,2013-07-25 13:25:00,
2013-07-25 08:26:00,73.4,59.1,0.00,South,180,0.0,2.0,61,0.00,,---,0.00,VWS V14.01,2013-07-25 13:26:00,
2013-07-25 08:27:00,73.2,58.9,0.00,SE,135,0.9,2.0,61,0.00,,---,0.00,VWS V14.01,2013-07-25 13:27:00,
2013-07-25 08:28:00,73.2,58.9,0.00,SE,135,1.1,2.0,61,0.00,,---,0.00,VWS V14.01,2013-07-25 13:28:00,
2013-07-25 08:29:00,73.2,58.9,0.00,SE,135,1.1,2.0,61,0.00,,---,0.00,VWS V14.01,2013-07-25 13:29:00,
2013-07-25 08:30:00,73.2,58.9,0.00,SE,135,2.0,2.2,61,0.00,,---,0.00,VWS V14.01,2013-07-25 13:30:00,
2013-07-25 08:31:00,72.3,59.0,0.00,SE,135,2.0,2.0,63,0.00,,---,0.00,VWS V14.01,2013-07-25 13:31:00,
2013-07-25 08:32:00,72.1,59.3,0.00,NE,45,1.1,2.0,64,0.00,,---,0.00,VWS V14.01,2013-07-25 13:32:00,
2013-07-25 08:33:00,72.1,59.3,0.00,NE,45,0.0,2.0,64,0.00,,---,0.00,VWS V14.01,2013-07-25 13:33:00,
2013-07-25 08:34:00,72.1,59.3,0.00,NE,45,0.0,2.0,64,0.00,,---,0.00,VWS V14.01,2013-07-25 13:34:00,
2013-07-25 08:35:00,72.1,59.7,0.00,NE,45,0.0,2.0,65,0.00,,---,0.00,VWS V14.01,2013-07-25 13:35:00,
2013-07-25 08:36:00,72.1,59.7,0.00,NE,45,0.0,2.0,65,0.00,,---,0.00,VWS V14.01,2013-07-25 13:36:00,
2013-07-25 08:37:00,72.3,59.9,0.00,NE,45,0.0,2.0,65,0.00,,---,0.00,VWS V14.01,2013-07-25 13:37:00,
2013-07-25 08:38:00,72.5,60.0,0.00,NE,45,0.0,2.0,65,0.00,,---,0.00,VWS V14.01,2013-07-25 13:38:00,
2013-07-25 08:39:00,72.3,60.3,0.00,East,90,0.0,2.0,66,0.00,,---,0.00,VWS V14.01,2013-07-25 13:39:00,
2013-07-25 08:40:00,72.1,60.1,0.00,East,90,1.1,2.0,66,0.00,,---,0.00,VWS V14.01,2013-07-25 13:40:00,
2013-07-25 08:41:00,71.7,59.8,0.00,East,90,1.6,2.0,66,0.00,,---,0.00,VWS V14.01,2013-07-25 13:41:00,
2013-07-25 08:42:00,71.6,60.0,0.00,ESE,112,2.2,2.7,67,0.00,,---,0.00,VWS V14.01,2013-07-25 13:42:00,
2013-07-25 08:43:00,71.4,59.9,0.00,SE,135,2.0,2.7,67,0.00,,---,0.00,VWS V14.01,2013-07-25 13:43:00,
2013-07-25 08:44:00,71.2,59.7,0.00,SE,135,2.0,2.7,67,0.00,,---,0.00,VWS V14.01,2013-07-25 13:44:00,
2013-07-25 08:45:00,71.2,59.7,0.00,SE,135,1.1,2.7,67,0.00,,---,0.00,VWS V14.01,2013-07-25 13:45:00,
2013-07-25 08:46:00,71.2,59.7,0.00,East,90,1.3,1.6,67,0.00,,---,0.00,VWS V14.01,2013-07-25 13:46:00,
2013-07-25 08:47:00,71.2,59.7,0.00,SE,135,1.3,1.6,67,0.00,,---,0.00,VWS V14.01,2013-07-25 13:47:00,
2013-07-25 08:48:00,71.2,59.7,0.00,East,90,1.3,1.6,67,0.00,,---,0.00,VWS V14.01,2013-07-25 13:48:00,
2013-07-25 08:49:00,71.0,59.9,0.00,East,90,2.0,2.0,68,0.00,,---,0.00,VWS V14.01,2013-07-25 13:49:00,
2013-07-25 08:50:00,71.0,59.9,0.00,East,90,1.1,2.0,68,0.00,,---,0.00,VWS V14.01,2013-07-25 13:50:00,
2013-07-25 08:51:00,70.8,59.8,0.00,East,90,1.3,2.0,68,0.00,,---,0.00,VWS V14.01,2013-07-25 13:51:00,
2013-07-25 08:52:00,70.8,59.8,0.00,East,90,0.0,2.0,68,0.00,,---,0.00,VWS V14.01,2013-07-25 13:52:00,
2013-07-25 08:53:00,70.5,59.8,0.00,East,90,0.9,2.0,69,0.00,,---,0.00,VWS V14.01,2013-07-25 13:53:00,
2013-07-25 08:54:00,70.1,59.9,0.00,East,90,1.1,2.0,70,0.00,,---,0.00,VWS V14.01,2013-07-25 13:54:00,
2013-07-25 08:55:00,70.1,59.9,0.00,East,90,1.6,2.0,70,0.00,,---,0.00,VWS V14.01,2013-07-25 13:55:00,
2013-07-25 08:56:00,69.9,59.7,0.00,East,90,0.0,2.0,70,0.00,,---,0.00,VWS V14.01,2013-07-25 13:56:00,
2013-07-25 08:57:00,69.9,59.7,0.00,East,90,0.0,2.0,70,0.00,,---,0.00,VWS V14.01,2013-07-25 13:57:00,
2013-07-25 08:58:00,69.9,59.7,0.00,East,90,0.0,2.0,70,0.00,,---,0.00,VWS V14.01,2013-07-25 13:58:00,
2013-07-25 08:59:00,69.6,59.0,0.00,East,90,0.0,2.0,69,0.00,,---,0.00,VWS V14.01,2013-07-25 13:59:00,
2013-07-25 09:00:00,69.6,59.4,0.00,East,90,0.0,2.0,70,0.00,,---,0.00,VWS V14.01,2013-07-25 14:00:00,
2013-07-25 09:01:00,69.4,59.6,0.00,East,90,0.0,0.0,71,0.00,,---,0.00,VWS V14.01,2013-07-25 14:01:00,
2013-07-25 09:02:00,69.2,59.4,0.00,East,90,0.0,0.0,71,0.00,,---,0.00,VWS V14.01,2013-07-25 14:02:00,
2013-07-25 09:03:00,69.2,59.8,0.00,East,90,0.0,0.0,72,0.00,,---,0.00,VWS V14.01,2013-07-25 14:03:00,
2013-07-25 09:04:00,69.0,59.2,0.00,South,180,1.3,1.3,71,0.00,,---,0.00,VWS V14.01,2013-07-25 14:04:00,
2013-07-25 09:05:00,69.0,59.2,0.00,South,180,0.0,1.3,71,0.00,,---,0.00,VWS V14.01,2013-07-25 14:05:00,
2013-07-25 09:06:00,68.9,59.1,0.00,South,180,0.0,1.3,71,0.00,,---,0.00,VWS V14.01,2013-07-25 14:06:00,
2013-07-25 09:08:00,68.9,59.1,0.00,South,180,0.0,1.3,71,0.00,,---,0.00,VWS V14.01,2013-07-25 14:08:00,
2013-07-25 09:09:00,68.9,59.1,0.00,South,180,0.0,1.3,71,0.00,,---,0.00,VWS V14.01,2013-07-25 14:09:00,
2013-07-25 09:10:00,68.5,59.1,0.00,South,180,0.0,1.3,72,0.00,,---,0.00,VWS V14.01,2013-07-25 14:10:00,
2013-07-25 09:11:00,68.3,59.0,0.00,South,180,0.0,1.3,72,0.00,,---,0.00,VWS V14.01,2013-07-25 14:11:00,
2013-07-25 09:12:00,68.3,59.0,0.00,South,180,0.0,1.3,72,0.00,,---,0.00,VWS V14.01,2013-07-25 14:12:00,
2013-07-25 09:13:00,68.1,58.8,0.00,South,180,0.0,1.3,72,0.00,,---,0.00,VWS V14.01,2013-07-25 14:13:00,
2013-07-25 09:14:00,68.1,58.8,0.00,South,180,0.0,1.3,72,0.00,,---,0.00,VWS V14.01,2013-07-25 14:14:00,
2013-07-25 09:15:00,68.1,58.8,0.00,South,180,0.0,1.3,72,0.00,,---,0.00,VWS V14.01,2013-07-25 14:15:00,
2013-07-25 09:17:00,68.0,59.0,0.00,South,180,0.0,0.0,73,0.00,,---,0.00,VWS V14.01,2013-07-25 14:17:00,
2013-07-25 09:18:00,68.0,59.0,0.00,South,180,0.0,0.0,73,0.00,,---,0.00,VWS V14.01,2013-07-25 14:18:00,
2013-07-25 09:19:00,67.8,58.8,0.00,South,180,0.0,0.0,73,0.00,,---,0.00,VWS V14.01,2013-07-25 14:19:00,
2013-07-25 09:20:00,67.8,59.2,0.00,NE,45,0.0,0.0,74,0.00,,---,0.00,VWS V14.01,2013-07-25 14:20:00,
2013-07-25 09:21:00,67.8,58.8,0.00,NE,45,0.0,0.0,73,0.00,,---,0.00,VWS V14.01,2013-07-25 14:21:00,
2013-07-25 09:22:00,67.6,58.7,0.00,NE,45,0.0,0.0,73,0.00,,---,0.00,VWS V14.01,2013-07-25 14:22:00,
2013-07-25 09:23:00,67.6,59.4,0.00,NE,45,0.0,0.0,75,0.00,,---,0.00,VWS V14.01,2013-07-25 14:23:00,
2013-07-25 09:24:00,67.6,59.4,0.00,NE,45,0.0,0.0,75,0.00,,---,0.00,VWS V14.01,2013-07-25 14:24:00,
2013-07-25 09:25:00,67.4,59.2,0.00,NE,45,0.0,0.0,75,0.00,,---,0.00,VWS V14.01,2013-07-25 14:25:00,
2013-07-25 09:26:00,67.4,59.2,0.00,NE,45,0.0,0.0,75,0.00,,---,0.00,VWS V14.01,2013-07-25 14:26:00,
2013-07-25 09:27:00,67.4,59.2,0.00,NE,45,0.0,0.0,75,0.00,,---,0.00,VWS V14.01,2013-07-25 14:27:00,
2013-07-25 09:28:00,67.4,59.2,0.00,NE,45,0.0,0.0,75,0.00,,---,0.00,VWS V14.01,2013-07-25 14:28:00,
2013-07-25 09:29:00,67.4,59.2,0.00,NE,45,0.0,0.0,75,0.00,,---,0.00,VWS V14.01,2013-07-25 14:29:00,
2013-07-25 09:30:00,67.2,59.8,0.00,NE,45,0.0,0.0,77,0.00,,---,0.00,VWS V14.01,2013-07-25 14:30:00,
2013-07-25 09:31:00,67.2,60.2,0.00,NE,45,0.0,0.0,78,0.00,,---,0.00,VWS V14.01,2013-07-25 14:31:00,
2013-07-25 09:32:00,67.2,60.2,0.00,NE,45,0.0,0.0,78,0.00,,---,0.00,VWS V14.01,2013-07-25 14:32:00,
2013-07-25 09:33:00,67.1,59.6,0.00,NE,45,0.0,0.0,77,0.00,,---,0.00,VWS V14.01,2013-07-25 14:33:00,
2013-07-25 09:34:00,67.1,59.6,0.00,NE,45,0.0,0.0,77,0.00,,---,0.00,VWS V14.01,2013-07-25 14:34:00,
2013-07-25 09:35:00,67.1,59.6,0.00,NE,45,0.0,0.0,77,0.00,,---,0.00,VWS V14.01,2013-07-25 14:35:00,
2013-07-25 09:36:00,67.1,59.6,0.00,NE,45,0.0,0.0,77,0.00,,---,0.00,VWS V14.01,2013-07-25 14:36:00,
2013-07-25 09:38:00,67.1,59.6,0.00,NE,45,0.0,0.0,77,0.00,,---,0.00,VWS V14.01,2013-07-25 14:38:00,
2013-07-25 09:39:00,67.1,59.6,0.00,NE,45,0.0,0.0,77,0.00,,---,0.00,VWS V14.01,2013-07-25 14:39:00,
2013-07-25 09:40:00,67.1,59.6,0.00,NE,45,1.6,2.0,77,0.00,,---,0.00,VWS V14.01,2013-07-25 14:40:00,
2013-07-25 09:41:00,67.1,59.6,0.00,NNE,22,2.2,2.2,77,0.00,,---,0.00,VWS V14.01,2013-07-25 14:41:00,
2013-07-25 09:42:00,66.9,59.8,0.00,NNE,22,2.5,2.5,78,0.00,,---,0.00,VWS V14.01,2013-07-25 14:42:00,
2013-07-25 09:43:00,66.9,59.8,0.00,NNE,22,2.5,2.5,78,0.00,,---,0.00,VWS V14.01,2013-07-25 14:43:00,
2013-07-25 09:44:00,66.9,59.8,0.00,NNE,22,2.5,2.7,78,0.00,,---,0.00,VWS V14.01,2013-07-25 14:44:00,
2013-07-25 09:45:00,66.9,59.4,0.00,NNE,22,2.5,2.7,77,0.00,,---,0.00,VWS V14.01,2013-07-25 14:45:00,
2013-07-25 09:46:00,66.7,59.6,0.00,NNE,22,3.4,3.4,78,0.00,,---,0.00,VWS V14.01,2013-07-25 14:46:00,
2013-07-25 09:47:00,66.7,59.6,0.00,NE,45,3.6,3.6,78,0.00,,---,0.00,VWS V14.01,2013-07-25 14:47:00,
2013-07-25 09:48:00,66.7,59.6,0.00,NNE,22,2.9,3.6,78,0.00,,---,0.00,VWS V14.01,2013-07-25 14:48:00,
2013-07-25 09:49:00,66.7,59.6,0.00,North,0,2.7,3.6,78,0.00,,---,0.00,VWS V14.01,2013-07-25 14:49:00,
2013-07-25 09:50:00,66.7,60.0,0.00,North,0,4.3,4.3,79,0.00,,---,0.00,VWS V14.01,2013-07-25 14:50:00,
2013-07-25 09:51:00,66.7,60.0,0.00,North,0,4.0,4.3,79,0.00,,---,0.00,VWS V14.01,2013-07-25 14:51:00,
2013-07-25 09:52:00,66.7,60.0,0.00,North,0,2.5,4.3,79,0.00,,---,0.00,VWS V14.01,2013-07-25 14:52:00,
2013-07-25 09:53:00,66.5,60.2,0.00,North,0,3.4,4.3,80,0.00,,---,0.00,VWS V14.01,2013-07-25 14:53:00,
2013-07-25 09:54:00,66.3,60.3,0.00,North,0,4.0,4.3,81,0.00,,---,0.00,VWS V14.01,2013-07-25 14:54:00,
2013-07-25 09:55:00,66.2,60.5,0.00,North,0,3.8,4.3,82,0.00,,---,0.00,VWS V14.01,2013-07-25 14:55:00,
2013-07-25 09:56:00,66.2,60.5,0.00,North,0,3.8,4.3,82,0.00,,---,0.00,VWS V14.01,2013-07-25 14:56:00,
2013-07-25 09:57:00,65.8,60.5,0.00,North,0,3.6,4.3,83,0.00,,---,0.00,VWS V14.01,2013-07-25 14:57:00,
2013-07-25 09:58:00,65.8,60.5,0.00,NNW,338,3.4,4.3,83,0.00,,---,0.00,VWS V14.01,2013-07-25 14:58:00,
2013-07-25 09:59:00,65.6,60.7,0.00,NW,315,2.7,4.3,84,0.00,,---,0.00,VWS V14.01,2013-07-25 14:59:00,
2013-07-25 10:00:00,65.6,60.7,0.00,North,0,2.2,4.3,84,0.00,,---,0.00,VWS V14.01,2013-07-25 15:00:00,
2013-07-25 10:02:00,65.4,60.8,0.00,North,0,3.1,3.8,85,0.00,,---,0.00,VWS V14.01,2013-07-25 15:02:00,
2013-07-25 10:03:00,65.1,60.8,0.00,North,0,3.1,3.8,86,0.00,,---,0.00,VWS V14.01,2013-07-25 15:03:00,
2013-07-25 10:04:00,64.9,60.6,0.00,North,0,3.1,3.8,86,0.00,,---,0.00,VWS V14.01,2013-07-25 15:04:00,
2013-07-25 10:05:00,64.9,60.6,0.00,North,0,3.1,3.8,86,0.00,,---,0.00,VWS V14.01,2013-07-25 15:05:00,
2013-07-25 10:06:00,64.9,60.6,0.00,North,0,2.9,3.8,86,0.00,,---,0.00,VWS V14.01,2013-07-25 15:06:00,
2013-07-25 10:07:00,64.7,60.8,0.00,North,0,3.4,3.8,87,0.00,,---,0.00,VWS V14.01,2013-07-25 15:07:00,
2013-07-25 10:08:00,64.7,60.8,0.00,North,0,3.6,3.8,87,0.00,,---,0.00,VWS V14.01,2013-07-25 15:08:00,
2013-07-25 10:09:00,64.5,60.6,0.00,North,0,3.6,3.8,87,0.00,,---,0.00,VWS V14.01,2013-07-25 15:09:00,
2013-07-25 10:10:00,64.5,60.6,0.00,North,0,3.4,3.8,87,0.00,,---,0.00,VWS V14.01,2013-07-25 15:10:00,
2013-07-25 10:11:00,64.5,60.6,0.00,North,0,3.1,3.8,87,0.00,,---,0.00,VWS V14.01,2013-07-25 15:11:00,
2013-07-25 10:12:00,64.5,60.9,0.00,NW,315,3.1,3.8,88,0.00,,---,0.00,VWS V14.01,2013-07-25 15:12:00,
2013-07-25 10:13:00,64.5,60.9,0.00,NW,315,2.9,3.8,88,0.00,,---,0.00,VWS V14.01,2013-07-25 15:13:00,
2013-07-25 10:14:00,64.4,60.7,0.00,NNW,338,3.1,3.8,88,0.00,,---,0.00,VWS V14.01,2013-07-25 15:14:00,
2013-07-25 10:15:00,64.4,60.7,0.00,North,0,3.4,3.8,88,0.00,,---,0.00,VWS V14.01,2013-07-25 15:15:00,
2013-07-25 10:16:00,64.4,60.7,0.00,North,0,3.6,3.8,88,0.00,,---,0.00,VWS V14.01,2013-07-25 15:16:00,
2013-07-25 10:17:00,64.4,60.7,0.00,North,0,2.7,3.8,88,0.00,,---,0.00,VWS V14.01,2013-07-25 15:17:00,
2013-07-25 10:18:00,64.4,60.7,0.00,West,270,2.9,3.8,88,0.00,,---,0.00,VWS V14.01,2013-07-25 15:18:00,
2013-07-25 10:19:00,64.4,60.7,0.00,West,270,2.9,3.8,88,0.00,,---,0.00,VWS V14.01,2013-07-25 15:19:00,
2013-07-25 10:20:00,64.4,61.0,0.00,NW,315,3.4,3.8,89,0.00,,---,0.00,VWS V14.01,2013-07-25 15:20:00,
2013-07-25 10:21:00,64.2,61.2,0.00,NW,315,2.7,3.8,90,0.00,,---,0.00,VWS V14.01,2013-07-25 15:21:00,
2013-07-25 10:22:00,64.2,61.2,0.00,NW,315,2.7,3.8,90,0.00,,---,0.00,VWS V14.01,2013-07-25 15:22:00,
2013-07-25 10:23:00,64.2,61.2,0.00,NW,315,3.4,3.8,90,0.00,,---,0.00,VWS V14.01,2013-07-25 15:23:00,
2013-07-25 10:24:00,64.2,61.2,0.00,NW,315,1.3,3.8,90,0.00,,---,0.00,VWS V14.01,2013-07-25 15:24:00,
2013-07-25 10:25:00,64.2,61.2,0.00,North,0,2.9,3.8,90,0.00,,---,0.00,VWS V14.01,2013-07-25 15:25:00,
2013-07-25 10:26:00,64.2,61.2,0.00,North,0,2.5,3.8,90,0.00,,---,0.00,VWS V14.01,2013-07-25 15:26:00,
2013-07-25 10:27:00,64.2,61.2,0.00,North,0,3.1,3.8,90,0.00,,---,0.00,VWS V14.01,2013-07-25 15:27:00,
2013-07-25 10:28:00,64.0,60.7,0.00,North,0,3.1,3.8,89,0.00,,---,0.00,VWS V14.01,2013-07-25 15:28:00,
2013-07-25 10:29:00,64.0,60.7,0.00,North,0,3.8,3.8,89,0.00,,---,0.00,VWS V14.01,2013-07-25 15:29:00,
2013-07-25 10:30:00,64.0,60.7,0.00,North,0,4.0,4.0,89,0.00,,---,0.00,VWS V14.01,2013-07-25 15:30:00,
2013-07-25 10:31:00,64.0,60.7,0.00,North,0,4.3,4.3,89,0.00,,---,0.00,VWS V14.01,2013-07-25 15:31:00,
2013-07-25 10:32:00,64.0,60.7,0.00,North,0,4.3,4.3,89,0.00,,---,0.00,VWS V14.01,2013-07-25 15:32:00,
2013-07-25 10:33:00,63.8,61.2,0.00,NNE,22,4.7,4.7,91,0.00,,---,0.00,VWS V14.01,2013-07-25 15:33:00,
2013-07-25 10:34:00,63.8,61.2,0.00,NE,45,3.8,4.7,91,0.00,,---,0.00,VWS V14.01,2013-07-25 15:34:00,
2013-07-25 10:35:00,63.8,61.2,0.00,NE,45,3.8,4.7,91,0.00,,---,0.00,VWS V14.01,2013-07-25 15:35:00,
2013-07-25 10:36:00,63.8,61.2,0.00,NE,45,4.0,4.7,91,0.00,,---,0.00,VWS V14.01,2013-07-25 15:36:00,
2013-07-25 10:37:00,63.8,61.2,0.00,NE,45,3.8,4.7,91,0.00,,---,0.00,VWS V14.01,2013-07-25 15:37:00,
2013-07-25 10:38:00,63.8,61.2,0.00,NE,45,4.0,4.7,91,0.00,,---,0.00,VWS V14.01,2013-07-25 15:38:00,
2013-07-25 10:39:00,63.8,61.2,0.00,NE,45,4.9,4.9,91,0.00,,---,0.00,VWS V14.01,2013-07-25 15:39:00,
2013-07-25 10:40:00,63.8,61.2,0.00,NE,45,4.9,5.6,91,0.00,,---,0.00,VWS V14.01,2013-07-25 15:40:00,
2013-07-25 10:41:00,63.8,61.8,0.00,NNE,22,5.6,6.5,93,0.00,,---,0.00,VWS V14.01,2013-07-25 15:41:00,
2013-07-25 10:42:00,63.8,61.8,0.00,NNE,22,5.6,6.5,93,0.00,,---,0.00,VWS V14.01,2013-07-25 15:42:00,
2013-07-25 10:43:00,63.8,61.8,0.00,North,0,3.6,6.5,93,0.00,,---,0.00,VWS V14.01,2013-07-25 15:43:00,
2013-07-25 10:44:00,63.8,61.8,0.00,North,0,4.0,6.5,93,0.00,,---,0.00,VWS V14.01,2013-07-25 15:44:00,
2013-07-25 10:45:00,64.2,62.1,0.00,NNE,22,4.0,6.5,93,0.00,,---,0.00,VWS V14.01,2013-07-25 15:45:00,
2013-07-25 10:46:00,64.2,61.8,0.00,North,0,5.8,5.8,92,0.00,,---,0.00,VWS V14.01,2013-07-25 15:46:00,
2013-07-25 10:47:00,64.4,62.0,0.00,NNE,22,4.9,5.8,92,0.00,,---,0.00,VWS V14.01,2013-07-25 15:47:00,
2013-07-25 10:48:00,64.4,62.0,0.00,North,0,3.8,5.8,92,0.00,,---,0.00,VWS V14.01,2013-07-25 15:48:00,
2013-07-25 10:49:00,64.4,62.0,0.00,NNE,22,5.4,5.8,92,0.00,,---,0.00,VWS V14.01,2013-07-25 15:49:00,
2013-07-25 10:50:00,64.4,62.0,0.00,North,0,4.0,5.8,92,0.00,,---,0.00,VWS V14.01,2013-07-25 15:50:00,
2013-07-25 10:51:00,64.4,62.0,0.00,NNE,22,3.8,5.8,92,0.00,,---,0.00,VWS V14.01,2013-07-25 15:51:00,
2013-07-25 10:52:00,64.4,62.0,0.00,NNE,22,5.4,5.8,92,0.00,,---,0.00,VWS V14.01,2013-07-25 15:52:00,
2013-07-25 10:53:00,64.2,61.8,0.00,North,0,4.9,5.8,92,0.00,,---,0.00,VWS V14.01,2013-07-25 15:53:00,
2013-07-25 10:54:00,64.2,61.8,0.00,NNE,22,4.7,5.8,92,0.00,,---,0.00,VWS V14.01,2013-07-25 15:54:00,
2013-07-25 10:55:00,64.0,61.6,0.00,North,0,4.0,5.8,92,0.00,,---,0.00,VWS V14.01,2013-07-25 15:55:00,
2013-07-25 10:56:00,64.0,61.6,0.00,NE,45,5.4,5.8,92,0.00,,---,0.00,VWS V14.01,2013-07-25 15:56:00,
2013-07-25 10:57:00,64.0,61.6,0.00,North,0,3.8,5.8,92,0.00,,---,0.00,VWS V14.01,2013-07-25 15:57:00,
2013-07-25 10:58:00,64.0,61.6,0.00,NNE,22,3.6,5.8,92,0.00,,---,0.00,VWS V14.01,2013-07-25 15:58:00,
2013-07-25 10:59:00,63.8,61.5,0.00,North,0,4.0,5.8,92,0.00,,---,0.00,VWS V14.01,2013-07-25 15:59:00,
2013-07-25 11:00:00,63.8,61.5,0.00,NNE,22,4.9,5.8,92,0.00,,---,0.00,VWS V14.01,2013-07-25 16:00:00,
2013-07-25 11:01:00,63.8,61.5,0.00,NNE,22,4.3,4.9,92,0.00,,---,0.00,VWS V14.01,2013-07-25 16:01:00,
2013-07-25 11:02:00,63.8,61.5,0.00,NNE,22,4.3,4.9,92,0.00,,---,0.00,VWS V14.01,2013-07-25 16:02:00,
2013-07-25 11:03:00,63.6,61.6,0.00,NNE,22,4.0,4.9,93,0.00,,---,0.00,VWS V14.01,2013-07-25 16:03:00,
2013-07-25 11:04:00,63.6,61.6,0.00,North,0,4.0,4.9,93,0.00,,---,0.00,VWS V14.01,2013-07-25 16:04:00,
2013-07-25 11:05:00,63.6,61.6,0.00,North,0,3.6,4.9,93,0.00,,---,0.00,VWS V14.01,2013-07-25 16:05:00,
2013-07-25 11:06:00,63.6,61.6,0.00,North,0,3.8,5.4,93,0.00,,---,0.00,VWS V14.01,2013-07-25 16:06:00,
2013-07-25 11:07:00,63.5,61.4,0.00,North,0,4.3,5.4,93,0.00,,---,0.00,VWS V14.01,2013-07-25 16:07:00,
2013-07-25 11:08:00,63.5,61.4,0.00,North,0,4.9,5.4,93,0.00,,---,0.00,VWS V14.01,2013-07-25 16:08:00,
2013-07-25 11:09:00,63.5,61.4,0.00,North,0,5.8,5.8,93,0.00,,---,0.00,VWS V14.01,2013-07-25 16:09:00,
2013-07-25 11:10:00,63.3,61.5,0.00,North,0,5.4,5.8,94,0.00,,---,0.00,VWS V14.01,2013-07-25 16:10:00,
2013-07-25 11:11:00,63.3,61.5,0.00,NNE,22,4.3,5.8,94,0.00,,---,0.00,VWS V14.01,2013-07-25 16:11:00,
2013-07-25 11:12:00,63.3,61.5,0.00,North,0,4.9,5.8,94,0.00,,---,0.00,VWS V14.01,2013-07-25 16:12:00,
2013-07-25 11:13:00,63.3,61.5,0.00,NNE,22,4.0,5.8,94,0.00,,---,0.00,VWS V14.01,2013-07-25 16:13:00,
2013-07-25 11:14:00,63.3,61.5,0.00,North,0,5.4,5.8,94,0.00,,---,0.00,VWS V14.01,2013-07-25 16:14:00,
2013-07-25 11:15:00,63.3,61.5,0.00,North,0,4.9,5.8,94,0.00,,---,0.00,VWS V14.01,2013-07-25 16:15:00,
2013-07-25 11:16:00,63.3,61.8,0.00,North,0,5.6,6.0,95,0.00,,---,0.00,VWS V14.01,2013-07-25 16:16:00,
2013-07-25 11:17:00,63.1,61.7,0.00,North,0,4.9,6.0,95,0.00,,---,0.00,VWS V14.01,2013-07-25 16:17:00,
2013-07-25 11:18:00,63.1,61.7,0.00,North,0,4.3,6.0,95,0.00,,---,0.00,VWS V14.01,2013-07-25 16:18:00,
2013-07-25 11:19:00,63.1,61.7,0.00,North,0,4.0,6.0,95,0.00,,---,0.00,VWS V14.01,2013-07-25 16:19:00,
2013-07-25 11:20:00,63.1,61.7,0.00,North,0,4.0,6.0,95,0.00,,---,0.00,VWS V14.01,2013-07-25 16:20:00,
2013-07-25 11:21:00,63.1,61.7,0.00,North,0,4.7,6.0,95,0.00,,---,0.00,VWS V14.01,2013-07-25 16:21:00,
2013-07-25 11:22:00,63.1,61.7,0.00,North,0,4.3,6.0,95,0.00,,---,0.00,VWS V14.01,2013-07-25 16:22:00,
2013-07-25 11:23:00,63.1,61.7,0.00,North,0,4.7,6.0,95,0.00,,---,0.00,VWS V14.01,2013-07-25 16:23:00,
2013-07-25 11:24:00,63.1,61.7,0.00,North,0,4.7,6.0,95,0.00,,---,0.00,VWS V14.01,2013-07-25 16:24:00,
2013-07-25 11:25:00,63.1,61.7,0.00,NNE,22,4.0,6.0,95,0.00,,---,0.00,VWS V14.01,2013-07-25 16:25:00,
2013-07-25 11:27:00,63.1,61.7,0.00,North,0,4.9,6.0,95,0.00,,---,0.00,VWS V14.01,2013-07-25 16:27:00,
2013-07-25 11:28:00,63.1,61.9,0.00,NE,45,4.3,6.0,96,0.00,,---,0.00,VWS V14.01,2013-07-25 16:28:00,
2013-07-25 11:29:00,63.1,61.9,0.00,NE,45,4.3,6.0,96,0.00,,---,0.00,VWS V14.01,2013-07-25 16:29:00,
2013-07-25 11:30:00,62.9,61.5,0.00,NE,45,2.9,6.0,95,0.00,,---,0.00,VWS V14.01,2013-07-25 16:30:00,
2013-07-25 11:31:00,62.9,61.5,0.00,NE,45,4.3,4.3,95,0.00,,---,0.00,VWS V14.01,2013-07-25 16:31:00,
2013-07-25 11:32:00,62.9,61.5,0.00,NE,45,5.6,5.6,95,0.00,,---,0.00,VWS V14.01,2013-07-25 16:32:00,
2013-07-25 11:33:00,62.9,61.5,0.00,NNE,22,4.3,5.6,95,0.00,,---,0.00,VWS V14.01,2013-07-25 16:33:00,
2013-07-25 11:35:00,62.9,61.8,0.00,NE,45,4.9,5.6,96,0.00,,---,0.00,VWS V14.01,2013-07-25 16:35:00,
2013-07-25 11:36:00,62.9,61.8,0.00,NE,45,4.3,5.6,96,0.00,,---,0.00,VWS V14.01,2013-07-25 16:36:00,
2013-07-25 11:37:00,62.9,61.8,0.00,NNE,22,4.0,5.6,96,0.00,,---,0.00,VWS V14.01,2013-07-25 16:37:00,
2013-07-25 11:38:00,62.9,61.8,0.00,NNE,22,4.3,5.6,96,0.00,,---,0.00,VWS V14.01,2013-07-25 16:38:00,
2013-07-25 11:39:00,62.9,61.8,0.00,NNE,22,5.6,5.8,96,0.00,,---,0.00,VWS V14.01,2013-07-25 16:39:00,
2013-07-25 11:40:00,62.9,61.8,0.00,NNE,22,4.3,5.8,96,0.00,,---,0.00,VWS V14.01,2013-07-25 16:40:00,
2013-07-25 11:41:00,62.9,61.8,0.00,NNE,22,4.9,5.8,96,0.00,,---,0.00,VWS V14.01,2013-07-25 16:41:00,
2013-07-25 11:42:00,62.9,61.8,0.00,NNE,22,5.4,5.8,96,0.00,,---,0.00,VWS V14.01,2013-07-25 16:42:00,
2013-07-25 11:43:00,62.9,61.8,0.00,NNE,22,5.4,5.8,96,0.00,,---,0.00,VWS V14.01,2013-07-25 16:43:00,
2013-07-25 11:44:00,62.9,61.8,0.00,North,0,4.5,5.8,96,0.00,,---,0.00,VWS V14.01,2013-07-25 16:44:00,
2013-07-25 11:45:00,62.9,61.8,0.00,NNE,22,4.0,5.8,96,0.00,,---,0.00,VWS V14.01,2013-07-25 16:45:00,
2013-07-25 11:46:00,62.7,61.6,0.00,North,0,4.9,4.9,96,0.00,,---,0.00,VWS V14.01,2013-07-25 16:46:00,
2013-07-25 11:47:00,62.7,61.6,0.00,NNE,22,4.7,5.4,96,0.00,,---,0.00,VWS V14.01,2013-07-25 16:47:00,
2013-07-25 11:48:00,62.7,61.6,0.00,NNE,22,4.9,5.4,96,0.00,,---,0.00,VWS V14.01,2013-07-25 16:48:00,
2013-07-25 11:49:00,62.7,61.6,0.00,North,0,4.9,5.4,96,0.00,,---,0.00,VWS V14.01,2013-07-25 16:49:00,
2013-07-25 11:50:00,62.7,61.6,0.00,North,0,5.8,5.8,96,0.00,,---,0.00,VWS V14.01,2013-07-25 16:50:00,
2013-07-25 11:51:00,62.7,61.6,0.00,North,0,4.9,5.8,96,0.00,,---,0.00,VWS V14.01,2013-07-25 16:51:00,
2013-07-25 11:52:00,62.7,61.6,0.00,NNE,22,4.0,5.8,96,0.00,,---,0.00,VWS V14.01,2013-07-25 16:52:00,
2013-07-25 11:53:00,62.7,61.6,0.00,NNE,22,5.4,5.8,96,0.00,,---,0.00,VWS V14.01,2013-07-25 16:53:00,
2013-07-25 11:55:00,62.7,61.6,0.00,NNE,22,4.0,5.8,96,0.00,,---,0.00,VWS V14.01,2013-07-25 16:55:00,
2013-07-25 11:56:00,62.6,61.4,0.00,NE,45,4.0,5.8,96,0.00,,---,0.00,VWS V14.01,2013-07-25 16:56:00,
2013-07-25 11:57:00,62.6,61.4,0.00,NE,45,4.9,5.8,96,0.00,,---,0.00,VWS V14.01,2013-07-25 16:57:00,
2013-07-25 11:58:00,62.6,61.4,0.00,NE,45,4.3,5.8,96,0.00,,---,0.00,VWS V14.01,2013-07-25 16:58:00,
2013-07-25 11:59:00,62.6,61.4,0.00,NE,45,4.3,5.8,96,0.00,,---,0.00,VWS V14.01,2013-07-25 16:59:00,
2013-07-25 12:00:00,62.6,61.4,0.00,NE,45,4.0,5.8,96,0.00,,---,0.00,VWS V14.01,2013-07-25 17:00:00,
2013-07-25 12:01:00,62.4,61.2,0.00,NE,45,4.3,4.9,96,0.00,,---,0.00,VWS V14.01,2013-07-25 17:01:00,
2013-07-25 12:02:00,62.4,61.2,0.00,NE,45,4.3,4.9,96,0.00,,---,0.00,VWS V14.01,2013-07-25 17:02:00,
2013-07-25 12:03:00,62.4,61.2,0.00,NE,45,4.0,4.9,96,0.00,,---,0.00,VWS V14.01,2013-07-25 17:03:00,
2013-07-25 12:04:00,62.4,61.2,0.00,NE,45,4.0,4.9,96,0.00,,---,0.00,VWS V14.01,2013-07-25 17:04:00,
2013-07-25 12:05:00,62.4,61.2,0.00,NNE,22,4.9,4.9,96,0.00,,---,0.00,VWS V14.01,2013-07-25 17:05:00,
2013-07-25 12:06:00,62.4,61.2,0.00,NE,45,3.8,4.9,96,0.00,,---,0.00,VWS V14.01,2013-07-25 17:06:00,
2013-07-25 12:07:00,62.4,61.2,0.00,NE,45,4.3,4.9,96,0.00,,---,0.00,VWS V14.01,2013-07-25 17:07:00,
2013-07-25 12:08:00,62.2,61.0,0.00,NE,45,4.0,4.9,96,0.00,,---,0.00,VWS V14.01,2013-07-25 17:08:00,
2013-07-25 12:09:00,62.2,61.0,0.00,NE,45,3.8,4.9,96,0.00,,---,0.00,VWS V14.01,2013-07-25 17:09:00,
2013-07-25 12:10:00,62.2,61.0,0.00,NE,45,3.8,4.9,96,0.00,,---,0.00,VWS V14.01,2013-07-25 17:10:00,
2013-07-25 12:11:00,62.2,61.0,0.00,NE,45,4.7,4.9,96,0.00,,---,0.00,VWS V14.01,2013-07-25 17:11:00,
2013-07-25 12:12:00,62.2,61.0,0.00,NE,45,4.9,4.9,96,0.00,,---,0.00,VWS V14.01,2013-07-25 17:12:00,
2013-07-25 12:13:00,62.2,61.0,0.00,NE,45,4.3,4.9,96,0.00,,---,0.00,VWS V14.01,2013-07-25 17:13:00,
2013-07-25 12:14:00,62.0,60.9,0.00,NE,45,4.3,4.9,96,0.00,,---,0.00,VWS V14.01,2013-07-25 17:14:00,
2013-07-25 12:15:00,62.0,60.9,0.00,NE,45,4.3,4.9,96,0.00,,---,0.00,VWS V14.01,2013-07-25 17:15:00,
2013-07-25 12:16:00,62.0,61.2,0.00,NNE,22,4.9,4.9,97,0.00,,---,0.00,VWS V14.01,2013-07-25 17:16:00,
2013-07-25 12:17:00,62.0,61.2,0.00,North,0,3.4,4.9,97,0.00,,---,0.00,VWS V14.01,2013-07-25 17:17:00,
2013-07-25 12:19:00,62.0,61.2,0.00,NNE,22,4.0,5.4,97,0.00,,---,0.00,VWS V14.01,2013-07-25 17:19:00,
2013-07-25 12:20:00,62.0,61.2,0.00,NNE,22,3.6,5.4,97,0.00,,---,0.00,VWS V14.01,2013-07-25 17:20:00,
2013-07-25 12:21:00,61.8,61.0,0.00,North,0,4.0,5.4,97,0.00,,---,0.00,VWS V14.01,2013-07-25 17:21:00,
2013-07-25 12:22:00,61.8,61.0,0.00,NNE,22,4.0,5.4,97,0.00,,---,0.00,VWS V14.01,2013-07-25 17:22:00,
2013-07-25 12:24:00,61.8,61.0,0.00,NNE,22,4.0,5.4,97,0.00,,---,0.00,VWS V14.01,2013-07-25 17:24:00,
2013-07-25 12:25:00,61.7,60.8,0.00,NNE,22,3.6,5.4,97,0.00,,---,0.00,VWS V14.01,2013-07-25 17:25:00,
2013-07-25 12:26:00,61.7,60.8,0.00,NE,45,4.3,5.4,97,0.00,,---,0.00,VWS V14.01,2013-07-25 17:26:00,
2013-07-25 12:27:00,61.7,60.5,0.00,NE,45,4.3,5.4,96,0.00,,---,0.00,VWS V14.01,2013-07-25 17:27:00,
2013-07-25 12:28:00,61.7,60.5,0.00,NE,45,3.8,5.4,96,0.00,,---,0.00,VWS V14.01,2013-07-25 17:28:00,
2013-07-25 12:29:00,61.5,60.3,0.00,NE,45,3.8,5.4,96,0.00,,---,0.00,VWS V14.01,2013-07-25 17:29:00,
2013-07-25 12:30:00,61.5,60.3,0.00,NNE,22,4.0,5.4,96,0.00,,---,0.00,VWS V14.01,2013-07-25 17:30:00,
2013-07-25 12:31:00,61.5,60.3,0.00,NE,45,3.8,4.3,96,0.00,,---,0.00,VWS V14.01,2013-07-25 17:31:00,
2013-07-25 12:33:00,61.5,60.3,0.00,NE,45,3.8,4.3,96,0.00,,---,0.00,VWS V14.01,2013-07-25 17:33:00,
2013-07-25 12:34:00,61.3,60.2,0.00,NE,45,3.6,4.3,96,0.00,,---,0.00,VWS V14.01,2013-07-25 17:34:00,
2013-07-25 12:35:00,61.3,60.2,0.00,NE,45,3.6,4.3,96,0.00,,---,0.00,VWS V14.01,2013-07-25 17:35:00,
2013-07-25 12:36:00,61.3,60.2,0.00,NE,45,3.6,4.3,96,0.00,,---,0.00,VWS V14.01,2013-07-25 17:36:00,
2013-07-25 12:37:00,61.3,60.2,0.00,NE,45,3.1,4.3,96,0.00,,---,0.00,VWS V14.01,2013-07-25 17:37:00,
2013-07-25 12:38:00,61.1,60.0,0.00,NE,45,3.4,4.3,96,0.00,,---,0.00,VWS V14.01,2013-07-25 17:38:00,
2013-07-25 12:39:00,61.1,60.0,0.00,NE,45,3.1,4.3,96,0.00,,---,0.00,VWS V14.01,2013-07-25 17:39:00,
2013-07-25 12:40:00,61.1,60.0,0.00,NE,45,3.8,4.3,96,0.00,,---,0.00,VWS V14.01,2013-07-25 17:40:00,
2013-07-25 12:41:00,61.1,60.0,0.00,NE,45,4.3,4.3,96,0.00,,---,0.00,VWS V14.01,2013-07-25 17:41:00,
2013-07-25 12:42:00,61.1,60.0,0.00,NNE,22,4.3,4.3,96,0.00,,---,0.00,VWS V14.01,2013-07-25 17:42:00,
2013-07-25 12:43:00,60.9,59.8,0.00,NE,45,3.8,4.3,96,0.00,,---,0.00,VWS V14.01,2013-07-25 17:43:00,
2013-07-25 12:44:00,60.9,59.8,0.00,North,0,3.4,4.3,96,0.00,,---,0.00,VWS V14.01,2013-07-25 17:44:00,
2013-07-25 12:45:00,61.1,60.3,0.00,NNE,22,4.0,4.3,97,0.00,,---,0.00,VWS V14.01,2013-07-25 17:45:00,
2013-07-25 12:46:00,61.1,60.3,0.00,NNE,22,3.6,4.0,97,0.00,,---,0.00,VWS V14.01,2013-07-25 17:46:00,
2013-07-25 12:47:00,60.9,60.1,0.00,NNE,22,3.4,4.0,97,0.00,,---,0.00,VWS V14.01,2013-07-25 17:47:00,
2013-07-25 12:48:00,60.9,60.1,0.00,NNE,22,3.6,4.0,97,0.00,,---,0.00,VWS V14.01,2013-07-25 17:48:00,
2013-07-25 12:49:00,60.9,60.1,0.00,North,0,3.1,4.0,97,0.00,,---,0.00,VWS V14.01,2013-07-25 17:49:00,
2013-07-25 12:50:00,60.8,59.9,0.00,NNE,22,2.7,4.0,97,0.00,,---,0.00,VWS V14.01,2013-07-25 17:50:00,
2013-07-25 12:51:00,60.8,59.9,0.00,North,0,2.0,4.0,97,0.00,,---,0.00,VWS V14.01,2013-07-25 17:51:00,
2013-07-25 12:53:00,60.8,59.9,0.00,North,0,2.2,4.0,97,0.00,,---,0.00,VWS V14.01,2013-07-25 17:53:00,
2013-07-25 12:54:00,60.6,59.4,0.00,NNE,22,0.0,4.0,96,0.00,,---,0.00,VWS V14.01,2013-07-25 17:54:00,
2013-07-25 12:55:00,60.6,59.4,0.00,North,0,0.0,4.0,96,0.00,,---,0.00,VWS V14.01,2013-07-25 17:55:00,
2013-07-25 12:56:00,60.4,59.3,0.00,NW,315,2.5,4.0,96,0.00,,---,0.00,VWS V14.01,2013-07-25 17:56:00,
2013-07-25 12:57:00,60.4,59.3,0.00,NW,315,2.2,4.0,96,0.00,,---,0.00,VWS V14.01,2013-07-25 17:57:00,
2013-07-25 12:58:00,60.4,59.3,0.00,NW,315,2.2,4.0,96,0.00,,---,0.00,VWS V14.01,2013-07-25 17:58:00,
2013-07-25 12:59:00,60.2,59.4,0.00,NNW,338,2.0,4.0,97,0.00,,---,0.00,VWS V14.01,2013-07-25 17:59:00,
2013-07-25 13:00:00,60.2,59.4,0.00,North,0,1.3,4.0,97,0.00,,---,0.00,VWS V14.01,2013-07-25 18:00:00,
2013-07-25 13:01:00,60.0,58.9,0.00,NW,315,1.1,1.3,96,0.00,,---,0.00,VWS V14.01,2013-07-25 18:01:00,
2013-07-25 13:02:00,60.0,58.9,0.00,NW,315,1.6,1.6,96,0.00,,---,0.00,VWS V14.01,2013-07-25 18:02:00,
2013-07-25 13:03:00,59.9,58.7,0.00,NW,315,1.3,1.6,96,0.00,,---,0.00,VWS V14.01,2013-07-25 18:03:00,
2013-07-25 13:04:00,59.9,58.7,0.00,West,270,1.1,1.6,96,0.00,,---,0.00,VWS V14.01,2013-07-25 18:04:00,
2013-07-25 13:05:00,59.7,58.5,0.00,West,270,1.1,1.6,96,0.00,,---,0.00,VWS V14.01,2013-07-25 18:05:00,
2013-07-25 13:06:00,59.7,58.5,0.00,West,270,1.1,1.6,96,0.00,,---,0.00,VWS V14.01,2013-07-25 18:06:00,
2013-07-25 13:07:00,59.7,58.5,0.00,West,270,1.1,1.6,96,0.00,,---,0.00,VWS V14.01,2013-07-25 18:07:00,
2013-07-25 13:08:00,59.7,58.5,0.00,WSW,248,1.3,2.0,96,0.00,,---,0.00,VWS V14.01,2013-07-25 18:08:00,
2013-07-25 13:09:00,59.7,58.5,0.00,West,270,0.0,2.0,96,0.00,,---,0.00,VWS V14.01,2013-07-25 18:09:00,
2013-07-25 13:10:00,59.7,58.5,0.00,NW,315,2.7,2.7,96,0.00,,---,0.00,VWS V14.01,2013-07-25 18:10:00,
2013-07-25 13:11:00,59.7,58.5,0.00,North,0,2.9,2.9,96,0.00,,---,0.00,VWS V14.01,2013-07-25 18:11:00,
2013-07-25 13:12:00,59.7,58.5,0.00,NW,315,2.5,2.9,96,0.00,,---,0.00,VWS V14.01,2013-07-25 18:12:00,
2013-07-25 13:14:00,59.9,59.0,0.00,NW,315,3.1,3.1,97,0.00,,---,0.00,VWS V14.01,2013-07-25 18:14:00,
2013-07-25 13:15:00,60.0,59.2,0.00,NW,315,3.6,3.6,97,0.00,,---,0.00,VWS V14.01,2013-07-25 18:15:00,
2013-07-25 13:16:00,60.0,59.5,0.00,NW,315,4.3,4.3,98,0.00,,---,0.00,VWS V14.01,2013-07-25 18:16:00,
2013-07-25 13:17:00,60.0,59.5,0.00,NW,315,4.7,4.7,98,0.00,,---,0.00,VWS V14.01,2013-07-25 18:17:00,
2013-07-25 13:19:00,60.0,59.5,0.00,NNW,338,4.7,4.7,98,0.00,,---,0.00,VWS V14.01,2013-07-25 18:19:00,
2013-07-25 13:20:00,60.0,59.5,0.00,NW,315,5.4,5.4,98,0.00,,---,0.00,VWS V14.01,2013-07-25 18:20:00,
2013-07-25 13:21:00,60.0,59.5,0.00,NW,315,4.3,5.4,98,0.00,,---,0.00,VWS V14.01,2013-07-25 18:21:00,
2013-07-25 13:22:00,60.0,59.5,0.00,NW,315,4.0,5.4,98,0.00,,---,0.00,VWS V14.01,2013-07-25 18:22:00,
2013-07-25 13:23:00,60.0,59.5,0.00,NW,315,4.5,5.4,98,0.00,,---,0.00,VWS V14.01,2013-07-25 18:23:00,
2013-07-25 13:24:00,60.0,59.5,0.00,NW,315,4.9,5.4,98,0.00,,---,0.00,VWS V14.01,2013-07-25 18:24:00,
2013-07-25 13:25:00,60.0,59.5,0.00,NW,315,4.0,5.4,98,0.00,,---,0.00,VWS V14.01,2013-07-25 18:25:00,
2013-07-25 13:26:00,60.0,59.8,0.00,NW,315,3.8,5.4,99,0.00,,---,0.00,VWS V14.01,2013-07-25 18:26:00,
2013-07-25 13:27:00,60.0,59.8,0.00,NW,315,3.8,5.4,99,0.00,,---,0.00,VWS V14.01,2013-07-25 18:27:00,
2013-07-25 13:28:00,60.0,59.8,0.00,NW,315,2.9,5.4,99,0.00,,---,0.00,VWS V14.01,2013-07-25 18:28:00,
2013-07-25 13:29:00,60.0,59.8,0.00,NW,315,4.0,5.4,99,0.00,,---,0.00,VWS V14.01,2013-07-25 18:29:00,
2013-07-25 13:30:00,60.0,59.8,0.00,NW,315,4.0,5.4,99,0.00,,---,0.00,VWS V14.01,2013-07-25 18:30:00,
2013-07-25 13:31:00,59.9,59.6,0.00,NW,315,3.4,4.3,99,0.00,,---,0.00,VWS V14.01,2013-07-25 18:31:00,
2013-07-25 13:32:00,59.9,59.6,0.00,NW,315,3.4,4.3,99,0.00,,---,0.00,VWS V14.01,2013-07-25 18:32:00,
2013-07-25 13:34:00,59.9,59.6,0.00,NNW,338,3.8,4.3,99,0.00,,---,0.00,VWS V14.01,2013-07-25 18:34:00,
2013-07-25 13:35:00,59.9,59.6,0.00,NW,315,4.0,4.3,99,0.00,,---,0.00,VWS V14.01,2013-07-25 18:35:00,
2013-07-25 13:36:00,59.9,59.6,0.00,NW,315,3.4,4.3,99,0.00,,---,0.00,VWS V14.01,2013-07-25 18:36:00,
2013-07-25 13:37:00,59.9,59.6,0.00,NW,315,3.6,4.3,99,0.00,,---,0.00,VWS V14.01,2013-07-25 18:37:00,
2013-07-25 13:38:00,59.9,59.6,0.00,NW,315,3.1,4.3,99,0.00,,---,0.00,VWS V14.01,2013-07-25 18:38:00,
2013-07-25 13:39:00,59.9,59.6,0.00,NW,315,3.4,4.3,99,0.00,,---,0.00,VWS V14.01,2013-07-25 18:39:00,
2013-07-25 13:41:00,59.7,59.4,0.00,NW,315,3.1,4.3,99,0.00,,---,0.00,VWS V14.01,2013-07-25 18:41:00,
2013-07-25 13:43:00,59.7,59.1,0.00,North,0,2.7,4.3,98,0.00,,---,0.00,VWS V14.01,2013-07-25 18:43:00,
2013-07-25 13:45:00,59.7,59.1,0.00,NW,315,2.7,4.3,98,0.00,,---,0.00,VWS V14.01,2013-07-25 18:45:00,
2013-07-25 13:47:00,59.7,59.4,0.00,NW,315,2.9,2.9,99,0.00,,---,0.00,VWS V14.01,2013-07-25 18:47:00,
2013-07-25 13:48:00,59.7,59.4,0.00,NW,315,2.5,2.9,99,0.00,,---,0.00,VWS V14.01,2013-07-25 18:48:00,
2013-07-25 13:49:00,59.9,59.6,0.00,NNW,338,2.5,2.9,99,0.00,,---,0.00,VWS V14.01,2013-07-25 18:49:00,
2013-07-25 13:50:00,59.9,59.6,0.00,NW,315,2.9,2.9,99,0.00,,---,0.00,VWS V14.01,2013-07-25 18:50:00,
2013-07-25 13:51:00,59.9,59.6,0.00,NW,315,2.5,2.9,99,0.00,,---,0.00,VWS V14.01,2013-07-25 18:51:00,
2013-07-25 13:52:00,59.9,59.6,0.00,NW,315,1.6,2.9,99,0.00,,---,0.00,VWS V14.01,2013-07-25 18:52:00,
2013-07-25 13:53:00,59.7,59.1,0.00,NW,315,1.1,2.9,98,0.00,,---,0.00,VWS V14.01,2013-07-25 18:53:00,
2013-07-25 13:54:00,59.7,59.1,0.00,NW,315,1.3,2.9,98,0.00,,---,0.00,VWS V14.01,2013-07-25 18:54:00,
2013-07-25 13:55:00,59.5,58.9,0.00,NW,315,1.6,2.9,98,0.00,,---,0.00,VWS V14.01,2013-07-25 18:55:00,
2013-07-25 13:56:00,59.5,58.9,0.00,NW,315,2.0,2.9,98,0.00,,---,0.00,VWS V14.01,2013-07-25 18:56:00,
2013-07-25 13:57:00,59.3,58.8,0.00,NW,315,2.0,2.9,98,0.00,,---,0.00,VWS V14.01,2013-07-25 18:57:00,
2013-07-25 13:58:00,59.3,58.8,0.00,NW,315,2.2,2.9,98,0.00,,---,0.00,VWS V14.01,2013-07-25 18:58:00,
2013-07-25 13:59:00,59.3,58.8,0.00,NW,315,2.0,2.9,98,0.00,,---,0.00,VWS V14.01,2013-07-25 18:59:00,
2013-07-25 14:00:00,59.1,58.6,0.00,NW,315,2.5,2.9,98,0.00,,---,0.00,VWS V14.01,2013-07-25 19:00:00,
2013-07-25 14:01:00,59.1,58.6,0.00,WNW,292,3.1,3.8,98,0.00,,---,0.00,VWS V14.01,2013-07-25 19:01:00,
2013-07-25 14:02:00,59.1,58.6,0.00,NW,315,3.4,3.8,98,0.00,,---,0.00,VWS V14.01,2013-07-25 19:02:00,
2013-07-25 14:04:00,59.1,58.6,0.00,North,0,2.9,3.8,98,0.00,,---,0.00,VWS V14.01,2013-07-25 19:04:00,
2013-07-25 14:05:00,59.1,58.6,0.00,North,0,2.9,3.8,98,0.00,,---,0.00,VWS V14.01,2013-07-25 19:05:00,
2013-07-25 14:06:00,59.1,58.6,0.00,North,0,2.9,3.8,98,0.00,,---,0.00,VWS V14.01,2013-07-25 19:06:00,
2013-07-25 14:07:00,59.3,58.8,0.00,North,0,3.6,3.8,98,0.00,,---,0.00,VWS V14.01,2013-07-25 19:07:00,
2013-07-25 14:08:00,59.3,58.8,0.00,North,0,5.6,5.6,98,0.00,,---,0.00,VWS V14.01,2013-07-25 19:08:00,
2013-07-25 14:09:00,59.3,58.8,0.00,North,0,5.6,5.6,98,0.00,,---,0.00,VWS V14.01,2013-07-25 19:09:00,
2013-07-25 14:10:00,59.3,58.8,0.00,North,0,6.0,6.0,98,0.00,,---,0.00,VWS V14.01,2013-07-25 19:10:00,
2013-07-25 14:11:00,59.9,59.6,0.00,North,0,3.6,6.0,99,0.00,,---,0.00,VWS V14.01,2013-07-25 19:11:00,
2013-07-25 14:12:00,59.9,59.6,0.00,North,0,3.6,6.0,99,0.00,,---,0.00,VWS V14.01,2013-07-25 19:12:00,
2013-07-25 14:13:00,59.9,59.6,0.00,North,0,4.9,6.0,99,0.00,,---,0.00,VWS V14.01,2013-07-25 19:13:00,
2013-07-25 14:14:00,60.0,59.8,0.00,NW,315,3.8,6.0,99,0.00,,---,0.00,VWS V14.01,2013-07-25 19:14:00,
2013-07-25 14:15:00,60.0,59.8,0.00,North,0,5.6,6.0,99,0.00,,---,0.00,VWS V14.01,2013-07-25 19:15:00,
2013-07-25 14:16:00,60.0,59.8,0.00,North,0,4.3,5.8,99,0.00,,---,0.00,VWS V14.01,2013-07-25 19:16:00,
2013-07-25 14:17:00,60.0,59.8,0.00,North,0,5.4,5.8,99,0.00,,---,0.00,VWS V14.01,2013-07-25 19:17:00,
2013-07-25 14:18:00,60.0,59.8,0.00,North,0,5.6,7.2,99,0.00,,---,0.00,VWS V14.01,2013-07-25 19:18:00,
2013-07-25 14:19:00,60.0,59.8,0.00,North,0,6.5,7.2,99,0.00,,---,0.00,VWS V14.01,2013-07-25 19:19:00,
2013-07-25 14:20:00,60.0,59.8,0.00,North,0,6.0,7.2,99,0.00,,---,0.00,VWS V14.01,2013-07-25 19:20:00,
2013-07-25 14:21:00,60.0,59.8,0.00,North,0,5.4,7.2,99,0.00,,---,0.00,VWS V14.01,2013-07-25 19:21:00,
2013-07-25 14:22:00,60.0,59.8,0.00,North,0,6.5,7.2,99,0.00,,---,0.00,VWS V14.01,2013-07-25 19:22:00,
2013-07-25 14:23:00,60.0,59.8,0.00,North,0,5.4,7.2,99,0.00,,---,0.00,VWS V14.01,2013-07-25 19:23:00,
2013-07-25 14:25:00,60.0,59.8,0.00,North,0,6.0,7.2,99,0.00,,---,0.00,VWS V14.01,2013-07-25 19:25:00,
2013-07-25 14:26:00,60.2,59.9,0.00,North,0,6.0,7.2,99,0.00,,---,0.00,VWS V14.01,2013-07-25 19:26:00,
2013-07-25 14:27:00,60.2,59.9,0.00,North,0,6.9,7.2,99,0.00,,---,0.00,VWS V14.01,2013-07-25 19:27:00,
2013-07-25 14:28:00,60.2,59.9,0.00,North,0,5.4,7.2,99,0.00,,---,0.00,VWS V14.01,2013-07-25 19:28:00,
2013-07-25 14:29:00,60.2,59.9,0.00,North,0,4.9,7.2,99,0.00,,---,0.00,VWS V14.01,2013-07-25 19:29:00,
2013-07-25 14:30:00,60.2,59.9,0.00,North,0,6.5,7.2,99,0.00,,---,0.00,VWS V14.01,2013-07-25 19:30:00,
2013-07-25 14:31:00,60.2,59.9,0.00,North,0,5.8,6.5,99,0.00,,---,0.00,VWS V14.01,2013-07-25 19:31:00,
2013-07-25 14:32:00,60.0,59.8,0.00,North,0,5.8,6.5,99,0.00,,---,0.00,VWS V14.01,2013-07-25 19:32:00,
2013-07-25 14:33:00,60.0,59.8,0.00,North,0,6.5,6.5,99,0.00,,---,0.00,VWS V14.01,2013-07-25 19:33:00,
2013-07-25 14:34:00,60.0,59.8,0.00,North,0,6.5,6.5,99,0.00,,---,0.00,VWS V14.01,2013-07-25 19:34:00,
2013-07-25 14:35:00,60.0,59.8,0.00,North,0,6.0,6.5,99,0.00,,---,0.00,VWS V14.01,2013-07-25 19:35:00,
2013-07-25 14:36:00,60.0,59.8,0.00,NW,315,5.6,6.5,99,0.00,,---,0.00,VWS V14.01,2013-07-25 19:36:00,
2013-07-25 14:37:00,60.0,59.8,0.00,North,0,4.0,6.5,99,0.00,,---,0.00,VWS V14.01,2013-07-25 19:37:00,
2013-07-25 14:38:00,60.0,59.8,0.00,North,0,4.9,6.5,99,0.00,,---,0.00,VWS V14.01,2013-07-25 19:38:00,
2013-07-25 14:39:00,60.0,59.8,0.00,North,0,6.3,6.5,99,0.00,,---,0.00,VWS V14.01,2013-07-25 19:39:00,
2013-07-25 14:40:00,60.0,59.8,0.00,NNW,338,3.6,6.5,99,0.00,,---,0.00,VWS V14.01,2013-07-25 19:40:00,
2013-07-25 14:41:00,60.0,59.5,0.00,NW,315,3.6,6.5,98,0.00,,---,0.00,VWS V14.01,2013-07-25 19:41:00,
2013-07-25 14:42:00,60.0,59.5,0.00,NW,315,3.6,6.5,98,0.00,,---,0.00,VWS V14.01,2013-07-25 19:42:00,
2013-07-25 14:43:00,59.9,59.3,0.00,NW,315,3.1,6.5,98,0.00,,---,0.00,VWS V14.01,2013-07-25 19:43:00,
2013-07-25 14:44:00,59.9,59.3,0.00,NW,315,3.4,6.5,98,0.00,,---,0.00,VWS V14.01,2013-07-25 19:44:00,
2013-07-25 14:46:00,59.9,59.3,0.00,NW,315,3.8,6.5,98,0.00,,---,0.00,VWS V14.01,2013-07-25 19:46:00,
2013-07-25 14:47:00,59.9,59.3,0.00,NW,315,3.8,6.5,98,0.00,,---,0.00,VWS V14.01,2013-07-25 19:47:00,
2013-07-25 14:49:00,59.5,58.9,0.00,NW,315,3.8,6.5,98,0.00,,---,0.00,VWS V14.01,2013-07-25 19:49:00,
2013-07-25 14:50:00,59.5,58.9,0.00,NW,315,3.8,6.5,98,0.00,,---,0.00,VWS V14.01,2013-07-25 19:50:00,
2013-07-25 14:51:00,59.5,58.9,0.00,NW,315,3.6,6.5,98,0.00,,---,0.00,VWS V14.01,2013-07-25 19:51:00,
2013-07-25 14:52:00,59.5,58.9,0.00,NW,315,3.6,6.5,98,0.00,,---,0.00,VWS V14.01,2013-07-25 19:52:00,
2013-07-25 14:53:00,59.5,58.9,0.00,NW,315,3.8,6.5,98,0.00,,---,0.00,VWS V14.01,2013-07-25 19:53:00,
2013-07-25 14:54:00,59.1,58.3,0.00,NNW,338,3.1,6.5,97,0.00,,---,0.00,VWS V14.01,2013-07-25 19:54:00,
2013-07-25 14:55:00,59.1,58.3,0.00,NW,315,2.9,6.5,97,0.00,,---,0.00,VWS V14.01,2013-07-25 19:55:00,
2013-07-25 14:56:00,59.0,58.1,0.00,North,0,3.1,6.5,97,0.00,,---,0.00,VWS V14.01,2013-07-25 19:56:00,
2013-07-25 14:57:00,59.0,58.1,0.00,NW,315,2.9,6.5,97,0.00,,---,0.00,VWS V14.01,2013-07-25 19:57:00,
2013-07-25 14:58:00,59.0,58.1,0.00,NW,315,2.5,6.5,97,0.00,,---,0.00,VWS V14.01,2013-07-25 19:58:00,
2013-07-25 15:00:00,59.0,58.1,0.00,NW,315,2.7,6.5,97,0.00,,---,0.00,VWS V14.01,2013-07-25 20:00:00,
2013-07-25 15:01:00,59.0,58.1,0.00,NW,315,4.3,4.3,97,0.00,,---,0.00,VWS V14.01,2013-07-25 20:01:00,
2013-07-25 15:02:00,58.8,57.9,0.00,NW,315,3.8,4.3,97,0.00,,---,0.00,VWS V14.01,2013-07-25 20:02:00,
2013-07-25 15:03:00,58.8,57.9,0.00,NW,315,3.6,4.5,97,0.00,,---,0.00,VWS V14.01,2013-07-25 20:03:00,
2013-07-25 15:04:00,58.8,57.9,0.00,NW,315,4.3,4.9,97,0.00,,---,0.00,VWS V14.01,2013-07-25 20:04:00,
2013-07-25 15:05:00,58.8,57.9,0.00,NW,315,4.3,4.9,97,0.00,,---,0.00,VWS V14.01,2013-07-25 20:05:00,
2013-07-25 15:06:00,58.8,58.2,0.00,NW,315,4.7,5.4,98,0.00,,---,0.00,VWS V14.01,2013-07-25 20:06:00,
2013-07-25 15:07:00,58.8,58.2,0.00,NW,315,3.8,5.4,98,0.00,,---,0.00,VWS V14.01,2013-07-25 20:07:00,
2013-07-25 15:08:00,58.8,58.2,0.00,NNW,338,3.1,5.4,98,0.00,,---,0.00,VWS V14.01,2013-07-25 20:08:00,
2013-07-25 15:09:00,58.6,58.0,0.00,NW,315,3.1,5.4,98,0.00,,---,0.00,VWS V14.01,2013-07-25 20:09:00,
2013-07-25 15:10:00,58.6,58.0,0.00,NW,315,3.4,5.4,98,0.00,,---,0.00,VWS V14.01,2013-07-25 20:10:00,
2013-07-25 15:11:00,58.6,58.0,0.00,NW,315,2.7,5.4,98,0.00,,---,0.00,VWS V14.01,2013-07-25 20:11:00,
2013-07-25 15:12:00,58.6,58.0,0.00,NW,315,2.9,5.4,98,0.00,,---,0.00,VWS V14.01,2013-07-25 20:12:00,
2013-07-25 15:13:00,58.6,58.0,0.00,NW,315,2.9,5.4,98,0.00,,---,0.00,VWS V14.01,2013-07-25 20:13:00,
2013-07-25 15:14:00,58.4,57.9,0.00,North,0,2.5,5.4,98,0.00,,---,0.00,VWS V14.01,2013-07-25 20:14:00,
2013-07-25 15:15:00,58.4,57.9,0.00,North,0,2.9,5.4,98,0.00,,---,0.00,VWS V14.01,2013-07-25 20:15:00,
2013-07-25 15:16:00,58.4,57.9,0.00,NW,315,3.6,3.6,98,0.00,,---,0.00,VWS V14.01,2013-07-25 20:16:00,
2013-07-25 15:17:00,58.4,57.9,0.00,North,0,3.4,3.6,98,0.00,,---,0.00,VWS V14.01,2013-07-25 20:17:00,
2013-07-25 15:18:00,58.4,57.9,0.00,NW,315,3.4,3.6,98,0.00,,---,0.00,VWS V14.01,2013-07-25 20:18:00,
2013-07-25 15:19:00,58.4,57.9,0.00,NNW,338,3.6,3.6,98,0.00,,---,0.00,VWS V14.01,2013-07-25 20:19:00,
2013-07-25 15:20:00,58.4,57.9,0.00,NNW,338,3.8,3.8,98,0.00,,---,0.00,VWS V14.01,2013-07-25 20:20:00,
2013-07-25 15:21:00,58.4,57.9,0.00,North,0,4.0,4.0,98,0.00,,---,0.00,VWS V14.01,2013-07-25 20:21:00,
2013-07-25 15:22:00,58.4,57.9,0.00,North,0,3.4,4.0,98,0.00,,---,0.00,VWS V14.01,2013-07-25 20:22:00,
2013-07-25 15:23:00,58.4,57.9,0.00,NW,315,3.6,4.0,98,0.00,,---,0.00,VWS V14.01,2013-07-25 20:23:00,
2013-07-25 15:24:00,58.4,58.1,0.00,NNW,338,3.6,4.0,99,0.00,,---,0.00,VWS V14.01,2013-07-25 20:24:00,
2013-07-25 15:25:00,58.6,58.0,0.00,North,0,4.0,4.0,98,0.00,,---,0.00,VWS V14.01,2013-07-25 20:25:00,
2013-07-25 15:26:00,58.8,58.2,0.00,North,0,4.9,4.9,98,0.00,,---,0.00,VWS V14.01,2013-07-25 20:26:00,
2013-07-25 15:27:00,58.8,58.5,0.00,North,0,3.8,4.9,99,0.00,,---,0.00,VWS V14.01,2013-07-25 20:27:00,
2013-07-25 15:28:00,58.8,58.5,0.00,North,0,6.5,6.5,99,0.00,,---,0.00,VWS V14.01,2013-07-25 20:28:00,
2013-07-25 15:29:00,58.8,58.5,0.00,NW,315,3.6,6.5,99,0.00,,---,0.00,VWS V14.01,2013-07-25 20:29:00,
2013-07-25 15:30:00,59.0,58.7,0.00,North,0,3.4,6.5,99,0.00,,---,0.00,VWS V14.01,2013-07-25 20:30:00,
2013-07-25 15:31:00,59.1,58.9,0.00,NNE,22,3.8,6.0,99,0.00,,---,0.00,VWS V14.01,2013-07-25 20:31:00,
2013-07-25 15:32:00,59.1,58.9,0.00,NNW,338,4.3,6.0,99,0.00,,---,0.00,VWS V14.01,2013-07-25 20:32:00,
2013-07-25 15:33:00,59.1,58.9,0.00,North,0,4.0,6.0,99,0.00,,---,0.00,VWS V14.01,2013-07-25 20:33:00,
2013-07-25 15:35:00,59.1,58.9,0.00,NW,315,4.3,6.5,99,0.00,,---,0.00,VWS V14.01,2013-07-25 20:35:00,
2013-07-25 15:36:00,59.1,58.9,0.00,North,0,3.8,6.5,99,0.00,,---,0.00,VWS V14.01,2013-07-25 20:36:00,
2013-07-25 15:37:00,59.1,58.9,0.00,North,0,3.1,6.5,99,0.00,,---,0.00,VWS V14.01,2013-07-25 20:37:00,
2013-07-25 15:38:00,59.1,58.9,0.00,NW,315,3.6,6.5,99,0.00,,---,0.00,VWS V14.01,2013-07-25 20:38:00,
2013-07-25 15:39:00,59.1,58.9,0.00,NNW,338,3.6,6.5,99,0.00,,---,0.00,VWS V14.01,2013-07-25 20:39:00,
2013-07-25 15:40:00,59.1,58.9,0.00,NW,315,2.7,6.5,99,0.00,,---,0.00,VWS V14.01,2013-07-25 20:40:00,
2013-07-25 15:41:00,59.1,58.9,0.00,NW,315,2.7,6.5,99,0.00,,---,0.00,VWS V14.01,2013-07-25 20:41:00,
2013-07-25 15:42:00,59.1,58.9,0.00,NW,315,2.9,6.5,99,0.00,,---,0.00,VWS V14.01,2013-07-25 20:42:00,
2013-07-25 15:43:00,59.1,58.9,0.00,NW,315,2.9,6.5,99,0.00,,---,0.00,VWS V14.01,2013-07-25 20:43:00,
2013-07-25 15:44:00,59.1,58.9,0.00,NNW,338,3.6,6.5,99,0.00,,---,0.00,VWS V14.01,2013-07-25 20:44:00,
2013-07-25 15:45:00,59.1,58.9,0.00,NW,315,3.1,6.5,99,0.00,,---,0.00,VWS V14.01,2013-07-25 20:45:00,
2013-07-25 15:47:00,59.1,58.9,0.00,NW,315,3.4,3.4,99,0.00,,---,0.00,VWS V14.01,2013-07-25 20:47:00,
2013-07-25 15:48:00,59.0,58.7,0.00,NNW,338,2.7,3.8,99,0.00,,---,0.00,VWS V14.01,2013-07-25 20:48:00,
2013-07-25 15:49:00,59.0,58.7,0.00,NW,315,3.1,3.8,99,0.00,,---,0.00,VWS V14.01,2013-07-25 20:49:00,
2013-07-25 15:50:00,59.0,58.7,0.00,NW,315,3.1,3.8,99,0.00,,---,0.00,VWS V14.01,2013-07-25 20:50:00,
2013-07-25 15:51:00,59.0,58.7,0.00,NW,315,2.7,3.8,99,0.00,,---,0.00,VWS V14.01,2013-07-25 20:51:00,
2013-07-25 15:52:00,59.0,58.7,0.00,North,0,2.9,3.8,99,0.00,,---,0.00,VWS V14.01,2013-07-25 20:52:00,
2013-07-25 15:53:00,59.0,58.7,0.00,North,0,2.7,3.8,99,0.00,,---,0.00,VWS V14.01,2013-07-25 20:53:00,
2013-07-25 15:54:00,59.0,58.7,0.00,NW,315,2.7,3.8,99,0.00,,---,0.00,VWS V14.01,2013-07-25 20:54:00,
2013-07-25 15:55:00,58.8,58.2,0.00,North,0,2.7,3.8,98,0.00,,---,0.00,VWS V14.01,2013-07-25 20:55:00,
2013-07-25 15:56:00,58.8,58.2,0.00,NW,315,2.5,3.8,98,0.00,,---,0.00,VWS V14.01,2013-07-25 20:56:00,
2013-07-25 15:58:00,58.8,58.2,0.00,NW,315,2.5,3.8,98,0.00,,---,0.00,VWS V14.01,2013-07-25 20:58:00,
2013-07-25 15:59:00,58.6,58.0,0.00,NW,315,2.9,3.8,98,0.00,,---,0.00,VWS V14.01,2013-07-25 20:59:00,
2013-07-25 16:00:00,58.6,58.0,0.00,NW,315,3.1,3.8,98,0.00,,---,0.00,VWS V14.01,2013-07-25 21:00:00,
2013-07-25 16:01:00,58.6,58.0,0.00,NW,315,3.6,3.8,98,0.00,,---,0.00,VWS V14.01,2013-07-25 21:01:00,
2013-07-25 16:02:00,58.4,58.1,0.00,NW,315,3.8,3.8,99,0.00,,---,0.00,VWS V14.01,2013-07-25 21:02:00,
2013-07-25 16:03:00,58.4,58.1,0.00,NW,315,3.6,3.8,99,0.00,,---,0.00,VWS V14.01,2013-07-25 21:03:00,
2013-07-25 16:04:00,58.4,57.9,0.00,North,0,3.6,3.8,98,0.00,,---,0.00,VWS V14.01,2013-07-25 21:04:00,
2013-07-25 16:05:00,58.2,57.7,0.00,NNW,338,3.1,3.8,98,0.00,,---,0.00,VWS V14.01,2013-07-25 21:05:00,
2013-07-25 16:06:00,58.2,57.7,0.00,NNW,338,3.1,3.8,98,0.00,,---,0.00,VWS V14.01,2013-07-25 21:06:00,
2013-07-25 16:07:00,58.2,57.7,0.00,NW,315,2.7,3.8,98,0.00,,---,0.00,VWS V14.01,2013-07-25 21:07:00,
2013-07-25 16:08:00,58.2,57.7,0.00,NW,315,3.1,3.8,98,0.00,,---,0.00,VWS V14.01,2013-07-25 21:08:00,
2013-07-25 16:09:00,58.2,57.7,0.00,NW,315,3.6,3.8,98,0.00,,---,0.00,VWS V14.01,2013-07-25 21:09:00,
2013-07-25 16:10:00,58.2,57.7,0.00,NW,315,3.1,3.8,98,0.00,,---,0.00,VWS V14.01,2013-07-25 21:10:00,
2013-07-25 16:11:00,58.2,57.7,0.00,NW,315,3.6,3.8,98,0.00,,---,0.00,VWS V14.01,2013-07-25 21:11:00,
2013-07-25 16:12:00,58.2,57.7,0.00,NNW,338,2.0,3.8,98,0.00,,---,0.00,VWS V14.01,2013-07-25 21:12:00,
2013-07-25 16:13:00,58.2,58.0,0.00,NW,315,2.2,3.8,99,0.00,,---,0.00,VWS V14.01,2013-07-25 21:13:00,
2013-07-25 16:14:00,58.2,58.0,0.00,NNW,338,2.2,3.8,99,0.00,,---,0.00,VWS V14.01,2013-07-25 21:14:00,
2013-07-25 16:15:00,58.2,58.0,0.00,NNW,338,2.2,3.8,99,0.00,,---,0.00,VWS V14.01,2013-07-25 21:15:00,
2013-07-25 16:16:00,58.2,58.0,0.00,NW,315,2.2,2.9,99,0.00,,---,0.00,VWS V14.01,2013-07-25 21:16:00,
2013-07-25 16:17:00,58.2,58.0,0.00,NW,315,2.2,2.9,99,0.00,,---,0.00,VWS V14.01,2013-07-25 21:17:00,
2013-07-25 16:19:00,58.2,58.0,0.00,NW,315,2.2,2.9,99,0.00,,---,0.00,VWS V14.01,2013-07-25 21:19:00,
2013-07-25 16:20:00,57.9,57.3,0.00,NW,315,1.6,2.9,98,0.00,,---,0.00,VWS V14.01,2013-07-25 21:20:00,
2013-07-25 16:21:00,57.9,57.3,0.00,WNW,292,1.1,2.9,98,0.00,,---,0.00,VWS V14.01,2013-07-25 21:21:00,
2013-07-25 16:22:00,57.7,57.1,0.00,NW,315,0.9,2.9,98,0.00,,---,0.00,VWS V14.01,2013-07-25 21:22:00,
2013-07-25 16:23:00,57.7,57.1,0.00,NW,315,0.0,2.9,98,0.00,,---,0.00,VWS V14.01,2013-07-25 21:23:00,
2013-07-25 16:24:00,57.7,57.1,0.00,NW,315,0.0,2.9,98,0.00,,---,0.00,VWS V14.01,2013-07-25 21:24:00,
2013-07-25 16:25:00,57.5,57.0,0.00,NW,315,0.0,2.9,98,0.00,,---,0.00,VWS V14.01,2013-07-25 21:25:00,
2013-07-25 16:26:00,57.5,57.0,0.00,NW,315,0.0,2.9,98,0.00,,---,0.00,VWS V14.01,2013-07-25 21:26:00,
2013-07-25 16:27:00,57.3,56.8,0.00,NW,315,0.0,2.9,98,0.00,,---,0.00,VWS V14.01,2013-07-25 21:27:00,
2013-07-25 16:28:00,57.3,56.8,0.00,NW,315,0.0,2.9,98,0.00,,---,0.00,VWS V14.01,2013-07-25 21:28:00,
2013-07-25 16:29:00,57.3,56.8,0.00,NW,315,0.0,2.9,98,0.00,,---,0.00,VWS V14.01,2013-07-25 21:29:00,
2013-07-25 16:30:00,57.3,56.8,0.00,NW,315,0.0,2.9,98,0.00,,---,0.00,VWS V14.01,2013-07-25 21:30:00,
2013-07-25 16:31:00,57.2,56.6,0.00,NW,315,0.0,0.0,98,0.00,,---,0.00,VWS V14.01,2013-07-25 21:31:00,
2013-07-25 16:32:00,57.2,56.6,0.00,WNW,292,0.0,0.0,98,0.00,,---,0.00,VWS V14.01,2013-07-25 21:32:00,
2013-07-25 16:34:00,57.2,56.6,0.00,WNW,292,1.1,1.1,98,0.00,,---,0.00,VWS V14.01,2013-07-25 21:34:00,
2013-07-25 16:36:00,57.2,56.6,0.00,West,270,1.6,2.2,98,0.00,,---,0.00,VWS V14.01,2013-07-25 21:36:00,
2013-07-25 16:37:00,57.2,56.6,0.00,West,270,1.6,2.2,98,0.00,,---,0.00,VWS V14.01,2013-07-25 21:37:00,
2013-07-25 16:38:00,57.2,56.6,0.00,West,270,0.0,2.2,98,0.00,,---,0.00,VWS V14.01,2013-07-25 21:38:00,
2013-07-25 16:39:00,57.2,56.6,0.00,West,270,0.0,2.2,98,0.00,,---,0.00,VWS V14.01,2013-07-25 21:39:00,
2013-07-25 16:40:00,57.0,56.4,0.00,West,270,0.0,2.2,98,0.00,,---,0.00,VWS V14.01,2013-07-25 21:40:00,
2013-07-25 16:41:00,57.0,56.4,0.00,NW,315,2.5,2.5,98,0.00,,---,0.00,VWS V14.01,2013-07-25 21:41:00,
2013-07-25 16:42:00,57.0,56.4,0.00,NW,315,1.6,2.5,98,0.00,,---,0.00,VWS V14.01,2013-07-25 21:42:00,
2013-07-25 16:43:00,57.0,56.4,0.00,NW,315,2.0,2.5,98,0.00,,---,0.00,VWS V14.01,2013-07-25 21:43:00,
2013-07-25 16:44:00,56.8,56.2,0.00,NW,315,2.5,2.5,98,0.00,,---,0.00,VWS V14.01,2013-07-25 21:44:00,
2013-07-25 16:45:00,56.8,56.2,0.00,NW,315,2.5,2.5,98,0.00,,---,0.00,VWS V14.01,2013-07-25 21:45:00,
2013-07-25 16:46:00,56.8,56.2,0.00,NW,315,2.9,2.9,98,0.00,,---,0.00,VWS V14.01,2013-07-25 21:46:00,
2013-07-25 16:47:00,56.8,56.2,0.00,NW,315,2.7,2.9,98,0.00,,---,0.00,VWS V14.01,2013-07-25 21:47:00,
2013-07-25 16:48:00,57.0,56.4,0.00,NW,315,2.7,2.9,98,0.00,,---,0.00,VWS V14.01,2013-07-25 21:48:00,
2013-07-25 16:49:00,57.0,56.4,0.00,NW,315,2.7,2.9,98,0.00,,---,0.00,VWS V14.01,2013-07-25 21:49:00,
2013-07-25 16:50:00,57.0,56.4,0.00,NW,315,3.1,3.1,98,0.00,,---,0.00,VWS V14.01,2013-07-25 21:50:00,
2013-07-25 16:51:00,57.3,57.1,0.00,NNW,338,3.8,3.8,99,0.00,,---,0.00,VWS V14.01,2013-07-25 21:51:00,
2013-07-25 16:52:00,57.3,57.1,0.00,NW,315,3.6,3.8,99,0.00,,---,0.00,VWS V14.01,2013-07-25 21:52:00,
2013-07-25 16:53:00,57.7,57.4,0.00,NW,315,3.8,4.0,99,0.00,,---,0.00,VWS V14.01,2013-07-25 21:53:00,
2013-07-25 16:54:00,57.9,57.6,0.00,NW,315,4.0,4.0,99,0.00,,---,0.00,VWS V14.01,2013-07-25 21:54:00,
2013-07-25 16:55:00,58.1,57.8,0.00,NW,315,3.6,4.0,99,0.00,,---,0.00,VWS V14.01,2013-07-25 21:55:00,
2013-07-25 16:56:00,58.2,58.0,0.00,NNW,338,4.3,4.3,99,0.00,,---,0.00,VWS V14.01,2013-07-25 21:56:00,
2013-07-25 16:58:00,58.2,58.0,0.00,NNW,338,4.3,4.3,99,0.00,,---,0.00,VWS V14.01,2013-07-25 21:58:00,
2013-07-25 16:59:00,58.4,58.1,0.00,NW,315,3.6,4.3,99,0.00,,---,0.00,VWS V14.01,2013-07-25 21:59:00,
2013-07-25 17:00:00,58.4,58.1,0.00,NW,315,3.1,4.3,99,0.00,,---,0.00,VWS V14.01,2013-07-25 22:00:00,
2013-07-25 17:01:00,58.6,58.3,0.00,NW,315,3.8,3.8,99,0.00,,---,0.00,VWS V14.01,2013-07-25 22:01:00,
2013-07-25 17:02:00,58.6,58.3,0.00,NNW,338,4.0,4.0,99,0.00,,---,0.00,VWS V14.01,2013-07-25 22:02:00,
2013-07-25 17:03:00,58.6,58.3,0.00,North,0,3.6,4.3,99,0.00,,---,0.00,VWS V14.01,2013-07-25 22:03:00,
2013-07-25 17:04:00,58.8,58.5,0.00,North,0,5.6,5.6,99,0.00,,---,0.00,VWS V14.01,2013-07-25 22:04:00,
2013-07-25 17:05:00,58.8,58.5,0.00,NW,315,4.7,7.2,99,0.00,,---,0.00,VWS V14.01,2013-07-25 22:05:00,
2013-07-25 17:06:00,59.0,58.7,0.00,North,0,6.5,7.2,99,0.00,,---,0.00,VWS V14.01,2013-07-25 22:06:00,
2013-07-25 17:07:00,59.1,58.9,0.00,North,0,4.9,7.2,99,0.00,,---,0.00,VWS V14.01,2013-07-25 22:07:00,
2013-07-25 17:08:00,59.1,58.9,0.00,North,0,4.0,7.2,99,0.00,,---,0.00,VWS V14.01,2013-07-25 22:08:00,
2013-07-25 17:09:00,59.1,58.9,0.00,North,0,4.0,7.2,99,0.00,,---,0.00,VWS V14.01,2013-07-25 22:09:00,
2013-07-25 17:10:00,59.1,58.9,0.00,NW,315,4.7,7.2,99,0.00,,---,0.00,VWS V14.01,2013-07-25 22:10:00,
2013-07-25 17:11:00,59.1,58.9,0.00,North,0,4.9,7.2,99,0.00,,---,0.00,VWS V14.01,2013-07-25 22:11:00,
2013-07-25 17:12:00,59.1,58.9,0.00,NW,315,6.5,7.2,99,0.00,,---,0.00,VWS V14.01,2013-07-25 22:12:00,
2013-07-25 17:13:00,59.3,59.0,0.00,North,0,3.6,7.6,99,0.00,,---,0.00,VWS V14.01,2013-07-25 22:13:00,
2013-07-25 17:14:00,59.3,59.0,0.00,NW,315,4.3,7.6,99,0.00,,---,0.00,VWS V14.01,2013-07-25 22:14:00,
2013-07-25 17:15:00,59.3,59.0,0.00,North,0,6.5,7.6,99,0.00,,---,0.00,VWS V14.01,2013-07-25 22:15:00,
2013-07-25 17:16:00,59.3,59.0,0.00,NNW,338,6.3,7.2,99,0.00,,---,0.00,VWS V14.01,2013-07-25 22:16:00,
2013-07-25 17:17:00,59.3,59.0,0.00,NNW,338,7.4,7.4,99,0.00,,---,0.00,VWS V14.01,2013-07-25 22:17:00,
2013-07-25 17:18:00,59.3,59.0,0.00,North,0,5.8,7.4,99,0.00,,---,0.00,VWS V14.01,2013-07-25 22:18:00,
2013-07-25 17:19:00,59.3,59.0,0.00,North,0,5.4,7.4,99,0.00,,---,0.00,VWS V14.01,2013-07-25 22:19:00,
2013-07-25 17:20:00,59.3,59.0,0.00,NW,315,6.0,7.4,99,0.00,,---,0.00,VWS V14.01,2013-07-25 22:20:00,
2013-07-25 17:21:00,59.3,59.0,0.00,North,0,4.9,7.4,99,0.00,,---,0.00,VWS V14.01,2013-07-25 22:21:00,
2013-07-25 17:22:00,59.3,59.0,0.00,North,0,4.3,7.4,99,0.00,,---,0.00,VWS V14.01,2013-07-25 22:22:00,
2013-07-25 17:23:00,59.3,59.0,0.00,NNW,338,6.7,7.4,99,0.00,,---,0.00,VWS V14.01,2013-07-25 22:23:00,
2013-07-25 17:24:00,59.3,59.0,0.00,WNW,292,4.9,7.4,99,0.00,,---,0.00,VWS V14.01,2013-07-25 22:24:00,
2013-07-25 17:25:00,59.3,59.0,0.00,NW,315,6.0,8.1,99,0.00,,---,0.00,VWS V14.01,2013-07-25 22:25:00,
2013-07-25 17:26:00,59.3,59.0,0.00,North,0,6.0,8.1,99,0.00,,---,0.00,VWS V14.01,2013-07-25 22:26:00,
2013-07-25 17:27:00,59.3,59.0,0.00,North,0,5.4,8.1,99,0.00,,---,0.00,VWS V14.01,2013-07-25 22:27:00,
2013-07-25 17:28:00,59.3,59.0,0.00,NW,315,4.9,8.1,99,0.00,,---,0.00,VWS V14.01,2013-07-25 22:28:00,
2013-07-25 17:29:00,59.3,59.0,0.00,NNW,338,4.7,8.1,99,0.00,,---,0.00,VWS V14.01,2013-07-25 22:29:00,
2013-07-25 17:30:00,59.1,58.9,0.00,North,0,6.9,8.1,99,0.00,,---,0.00,VWS V14.01,2013-07-25 22:30:00,
2013-07-25 17:31:00,59.1,58.9,0.00,North,0,3.6,7.2,99,0.00,,---,0.00,VWS V14.01,2013-07-25 22:31:00,
2013-07-25 17:32:00,59.1,58.9,0.00,North,0,5.4,7.2,99,0.00,,---,0.00,VWS V14.01,2013-07-25 22:32:00,
2013-07-25 17:33:00,59.1,58.9,0.00,North,0,4.3,7.2,99,0.00,,---,0.00,VWS V14.01,2013-07-25 22:33:00,
2013-07-25 17:34:00,59.1,58.9,0.00,North,0,4.3,7.2,99,0.00,,---,0.00,VWS V14.01,2013-07-25 22:34:00,
2013-07-25 17:35:00,59.1,58.9,0.00,NNW,338,4.0,7.2,99,0.00,,---,0.00,VWS V14.01,2013-07-25 22:35:00,
2013-07-25 17:36:00,59.1,58.9,0.00,North,0,4.9,7.2,99,0.00,,---,0.00,VWS V14.01,2013-07-25 22:36:00,
2013-07-25 17:37:00,59.1,58.9,0.00,NW,315,4.7,7.2,99,0.00,,---,0.00,VWS V14.01,2013-07-25 22:37:00,
2013-07-25 17:38:00,59.1,58.9,0.00,NW,315,4.0,7.2,99,0.00,,---,0.00,VWS V14.01,2013-07-25 22:38:00,
2013-07-25 17:39:00,59.1,58.9,0.00,NW,315,4.9,7.2,99,0.00,,---,0.00,VWS V14.01,2013-07-25 22:39:00,
2013-07-25 17:40:00,59.1,58.9,0.00,NW,315,3.8,7.2,99,0.00,,---,0.00,VWS V14.01,2013-07-25 22:40:00,
2013-07-25 17:41:00,59.1,58.9,0.00,NW,315,4.0,7.2,99,0.00,,---,0.00,VWS V14.01,2013-07-25 22:41:00,
2013-07-25 17:42:00,59.1,58.9,0.00,NW,315,4.0,7.2,99,0.00,,---,0.00,VWS V14.01,2013-07-25 22:42:00,
2013-07-25 17:43:00,59.1,58.9,0.00,North,0,4.7,7.2,99,0.00,,---,0.00,VWS V14.01,2013-07-25 22:43:00,
2013-07-25 17:44:00,59.1,58.6,0.00,NW,315,4.3,7.2,98,0.00,,---,0.00,VWS V14.01,2013-07-25 22:44:00,
2013-07-25 17:45:00,59.1,58.6,0.00,North,0,3.4,7.2,98,0.00,,---,0.00,VWS V14.01,2013-07-25 22:45:00,
2013-07-25 17:46:00,59.1,58.6,0.00,NNW,338,4.0,4.0,98,0.00,,---,0.00,VWS V14.01,2013-07-25 22:46:00,
2013-07-25 17:47:00,59.1,58.6,0.00,NW,315,3.8,4.0,98,0.00,,---,0.00,VWS V14.01,2013-07-25 22:47:00,
2013-07-25 17:48:00,59.1,58.6,0.00,NW,315,3.4,4.9,98,0.00,,---,0.00,VWS V14.01,2013-07-25 22:48:00,
2013-07-25 17:49:00,59.0,58.4,0.00,NW,315,3.6,4.9,98,0.00,,---,0.00,VWS V14.01,2013-07-25 22:49:00,
2013-07-25 17:50:00,59.0,58.4,0.00,NW,315,3.6,4.9,98,0.00,,---,0.00,VWS V14.01,2013-07-25 22:50:00,
2013-07-25 17:52:00,59.0,58.4,0.00,North,0,3.1,4.9,98,0.00,,---,0.00,VWS V14.01,2013-07-25 22:52:00,
2013-07-25 17:54:00,59.0,58.4,0.00,NNW,338,3.1,4.9,98,0.00,,---,0.00,VWS V14.01,2013-07-25 22:54:00,
2013-07-25 17:55:00,59.0,58.4,0.00,North,0,3.4,4.9,98,0.00,,---,0.00,VWS V14.01,2013-07-25 22:55:00,
2013-07-25 17:56:00,59.0,58.4,0.00,NW,315,3.6,4.9,98,0.00,,---,0.00,VWS V14.01,2013-07-25 22:56:00,
2013-07-25 17:57:00,59.0,58.4,0.00,NW,315,4.3,4.9,98,0.00,,---,0.00,VWS V14.01,2013-07-25 22:57:00,
2013-07-25 17:58:00,59.0,58.4,0.00,NW,315,4.0,4.9,98,0.00,,---,0.00,VWS V14.01,2013-07-25 22:58:00,
2013-07-25 18:00:00,59.0,58.4,0.00,NW,315,3.8,4.9,98,0.00,,---,0.00,VWS V14.01,2013-07-25 23:00:00,
2013-07-25 18:01:00,58.8,58.2,0.00,NW,315,3.6,3.8,98,0.00,,---,0.00,VWS V14.01,2013-07-25 23:01:00,
2013-07-25 18:02:00,58.8,58.2,0.00,NW,315,3.1,3.8,98,0.00,,---,0.00,VWS V14.01,2013-07-25 23:02:00,
2013-07-25 18:03:00,58.6,58.0,0.00,NW,315,2.7,3.8,98,0.00,,---,0.00,VWS V14.01,2013-07-25 23:03:00,
2013-07-25 18:04:00,58.6,58.0,0.00,NW,315,2.7,3.8,98,0.00,,---,0.00,VWS V14.01,2013-07-25 23:04:00,
2013-07-25 18:05:00,58.6,58.0,0.00,NW,315,2.5,3.8,98,0.00,,---,0.00,VWS V14.01,2013-07-25 23:05:00,
2013-07-25 18:06:00,58.4,57.9,0.00,NW,315,1.3,3.8,98,0.00,,---,0.00,VWS V14.01,2013-07-25 23:06:00,
2013-07-25 18:07:00,58.4,57.9,0.00,NW,315,1.1,3.8,98,0.00,,---,0.00,VWS V14.01,2013-07-25 23:07:00,
2013-07-25 18:08:00,58.2,57.7,0.00,NW,315,2.0,3.8,98,0.00,,---,0.00,VWS V14.01,2013-07-25 23:08:00,
2013-07-25 18:09:00,58.2,57.7,0.00,WNW,292,2.2,3.8,98,0.00,,---,0.00,VWS V14.01,2013-07-25 23:09:00,
2013-07-25 18:10:00,58.2,57.7,0.00,West,270,1.3,3.8,98,0.00,,---,0.00,VWS V14.01,2013-07-25 23:10:00,
2013-07-25 18:11:00,58.2,57.7,0.00,NW,315,2.0,3.8,98,0.00,,---,0.00,VWS V14.01,2013-07-25 23:11:00,
2013-07-25 18:12:00,58.2,57.7,0.00,NW,315,2.0,3.8,98,0.00,,---,0.00,VWS V14.01,2013-07-25 23:12:00,
2013-07-25 18:13:00,58.2,57.7,0.00,West,270,2.5,3.8,98,0.00,,---,0.00,VWS V14.01,2013-07-25 23:13:00,
2013-07-25 18:14:00,58.1,57.5,0.00,West,270,0.9,3.8,98,0.00,,---,0.00,VWS V14.01,2013-07-25 23:14:00,
2013-07-25 18:15:00,58.1,57.5,0.00,West,270,2.2,3.8,98,0.00,,---,0.00,VWS V14.01,2013-07-25 23:15:00,
2013-07-25 18:16:00,58.1,57.5,0.00,West,270,0.9,2.2,98,0.00,,---,0.00,VWS V14.01,2013-07-25 23:16:00,
2013-07-25 18:17:00,58.1,57.5,0.00,West,270,1.3,2.2,98,0.00,,---,0.00,VWS V14.01,2013-07-25 23:17:00,
2013-07-25 18:18:00,58.1,57.5,0.00,West,270,2.5,2.5,98,0.00,,---,0.00,VWS V14.01,2013-07-25 23:18:00,
2013-07-25 18:19:00,58.1,57.5,0.00,WSW,248,0.9,2.5,98,0.00,,---,0.00,VWS V14.01,2013-07-25 23:19:00,
2013-07-25 18:20:00,58.1,57.5,0.00,West,270,1.3,2.5,98,0.00,,---,0.00,VWS V14.01,2013-07-25 23:20:00,
2013-07-25 18:21:00,58.1,57.5,0.00,WSW,248,2.0,2.5,98,0.00,,---,0.00,VWS V14.01,2013-07-25 23:21:00,
2013-07-25 18:23:00,58.1,57.5,0.00,West,270,0.9,2.5,98,0.00,,---,0.00,VWS V14.01,2013-07-25 23:23:00,
2013-07-25 18:24:00,57.9,57.3,0.00,West,270,1.6,2.5,98,0.00,,---,0.00,VWS V14.01,2013-07-25 23:24:00,
2013-07-25 18:25:00,57.9,57.3,0.00,West,270,2.2,2.5,98,0.00,,---,0.00,VWS V14.01,2013-07-25 23:25:00,
2013-07-25 18:26:00,57.9,57.3,0.00,West,270,1.1,2.5,98,0.00,,---,0.00,VWS V14.01,2013-07-25 23:26:00,
2013-07-25 18:27:00,57.9,57.3,0.00,West,270,0.0,2.5,98,0.00,,---,0.00,VWS V14.01,2013-07-25 23:27:00,
2013-07-25 18:28:00,57.9,57.3,0.00,West,270,1.1,2.5,98,0.00,,---,0.00,VWS V14.01,2013-07-25 23:28:00,
2013-07-25 18:30:00,57.9,57.3,0.00,West,270,1.3,2.5,98,0.00,,---,0.00,VWS V14.01,2013-07-25 23:30:00,
2013-07-25 18:31:00,57.9,57.3,0.00,WNW,292,2.7,2.7,98,0.00,,---,0.00,VWS V14.01,2013-07-25 23:31:00,
2013-07-25 18:32:00,57.9,57.3,0.00,West,270,1.1,2.7,98,0.00,,---,0.00,VWS V14.01,2013-07-25 23:32:00,
2013-07-25 18:33:00,57.9,57.3,0.00,NW,315,1.6,2.7,98,0.00,,---,0.00,VWS V14.01,2013-07-25 23:33:00,
2013-07-25 18:34:00,57.9,57.3,0.00,NW,315,1.3,2.7,98,0.00,,---,0.00,VWS V14.01,2013-07-25 23:34:00,
2013-07-25 18:35:00,57.9,57.3,0.00,NW,315,2.2,2.7,98,0.00,,---,0.00,VWS V14.01,2013-07-25 23:35:00,
2013-07-25 18:36:00,57.9,57.3,0.00,NW,315,2.5,2.7,98,0.00,,---,0.00,VWS V14.01,2013-07-25 23:36:00,
2013-07-25 18:37:00,57.9,57.3,0.00,NW,315,3.6,3.6,98,0.00,,---,0.00,VWS V14.01,2013-07-25 23:37:00,
2013-07-25 18:38:00,57.9,57.3,0.00,NW,315,3.6,4.0,98,0.00,,---,0.00,VWS V14.01,2013-07-25 23:38:00,
2013-07-25 18:39:00,57.9,57.3,0.00,NW,315,3.8,4.0,98,0.00,,---,0.00,VWS V14.01,2013-07-25 23:39:00,
2013-07-25 18:40:00,57.9,57.3,0.00,NNW,338,4.0,4.0,98,0.00,,---,0.00,VWS V14.01,2013-07-25 23:40:00,
2013-07-25 18:41:00,57.9,57.3,0.00,NW,315,4.5,4.5,98,0.00,,---,0.00,VWS V14.01,2013-07-25 23:41:00,
2013-07-25 18:42:00,57.9,57.6,0.00,NW,315,4.3,5.4,99,0.00,,---,0.00,VWS V14.01,2013-07-25 23:42:00,
2013-07-25 18:43:00,57.9,57.6,0.00,NW,315,4.0,5.4,99,0.00,,---,0.00,VWS V14.01,2013-07-25 23:43:00,
2013-07-25 18:44:00,57.9,57.6,0.00,North,0,3.1,5.4,99,0.00,,---,0.00,VWS V14.01,2013-07-25 23:44:00,
2013-07-25 18:45:00,57.7,57.4,0.00,NW,315,4.0,5.4,99,0.00,,---,0.00,VWS V14.01,2013-07-25 23:45:00,
2013-07-25 18:46:00,57.7,57.4,0.00,NW,315,5.6,5.6,99,0.00,,---,0.00,VWS V14.01,2013-07-25 23:46:00,
2013-07-25 18:47:00,57.7,57.4,0.00,NW,315,5.4,6.0,99,0.00,,---,0.00,VWS V14.01,2013-07-25 23:47:00,
2013-07-25 18:48:00,57.7,57.4,0.00,NW,315,4.5,6.0,99,0.00,,---,0.00,VWS V14.01,2013-07-25 23:48:00,
2013-07-25 18:49:00,57.7,57.4,0.00,NW,315,4.0,6.0,99,0.00,,---,0.00,VWS V14.01,2013-07-25 23:49:00,
2013-07-25 18:50:00,57.7,57.4,0.00,NW,315,3.1,6.0,99,0.00,,---,0.00,VWS V14.01,2013-07-25 23:50:00,
2013-07-25 18:51:00,57.7,57.4,0.00,NW,315,2.9,6.0,99,0.00,,---,0.00,VWS V14.01,2013-07-25 23:51:00,
2013-07-25 18:52:00,57.7,57.4,0.00,NW,315,2.9,6.0,99,0.00,,---,0.00,VWS V14.01,2013-07-25 23:52:00,
2013-07-25 18:53:00,57.5,57.0,0.00,NW,315,0.9,6.0,98,0.00,,---,0.00,VWS V14.01,2013-07-25 23:53:00,
2013-07-25 18:54:00,57.5,57.0,0.00,NW,315,0.0,6.0,98,0.00,,---,0.00,VWS V14.01,2013-07-25 23:54:00,
2013-07-25 18:55:00,57.3,56.8,0.00,WNW,292,0.0,6.0,98,0.00,,---,0.00,VWS V14.01,2013-07-25 23:55:00,
2013-07-25 18:56:00,57.3,56.8,0.00,West,270,1.1,6.0,98,0.00,,---,0.00,VWS V14.01,2013-07-25 23:56:00,
2013-07-25 18:57:00,57.3,56.8,0.00,West,270,0.0,6.0,98,0.00,,---,0.00,VWS V14.01,2013-07-25 23:57:00,
2013-07-25 18:58:00,57.3,56.8,0.00,WNW,292,1.3,6.0,98,0.00,,---,0.00,VWS V14.01,2013-07-25 23:58:00,
2013-07-25 18:59:00,57.3,56.8,0.00,NW,315,1.6,6.0,98,0.00,,---,0.00,VWS V14.01,2013-07-25 23:59:00,
2013-07-25 19:00:00,57.3,56.8,0.00,West,270,1.3,6.0,98,0.00,,---,0.00,VWS V14.01,2013-07-26 00:00:00,
2013-07-25 19:01:00,57.3,56.8,0.00,West,270,2.0,3.1,98,0.00,,---,0.00,VWS V14.01,2013-07-26 00:01:00,
2013-07-25 19:02:00,57.3,56.8,0.00,West,270,0.9,3.1,98,0.00,,---,0.00,VWS V14.01,2013-07-26 00:02:00,
2013-07-25 19:03:00,57.3,56.8,0.00,WNW,292,0.0,3.1,98,0.00,,---,0.00,VWS V14.01,2013-07-26 00:03:00,
2013-07-25 19:04:00,57.3,56.8,0.00,West,270,2.2,3.1,98,0.00,,---,0.00,VWS V14.01,2013-07-26 00:04:00,
2013-07-25 19:05:00,57.3,56.8,0.00,West,270,2.0,3.1,98,0.00,,---,0.00,VWS V14.01,2013-07-26 00:05:00,
2013-07-25 19:06:00,57.3,56.8,0.00,West,270,0.0,3.1,98,0.00,,---,0.00,VWS V14.01,2013-07-26 00:06:00,
2013-07-25 19:07:00,57.3,56.8,0.00,West,270,1.1,3.1,98,0.00,,---,0.00,VWS V14.01,2013-07-26 00:07:00,
2013-07-25 19:08:00,57.5,57.0,0.00,West,270,2.0,3.1,98,0.00,,---,0.00,VWS V14.01,2013-07-26 00:08:00,
2013-07-25 19:09:00,57.7,57.1,0.00,West,270,0.0,3.1,98,0.00,,---,0.00,VWS V14.01,2013-07-26 00:09:00,
2013-07-25 19:10:00,57.7,57.1,0.00,West,270,0.0,3.1,98,0.00,,---,0.00,VWS V14.01,2013-07-26 00:10:00,
2013-07-25 19:11:00,57.9,57.3,0.00,WNW,292,1.6,3.1,98,0.00,,---,0.00,VWS V14.01,2013-07-26 00:11:00,
2013-07-25 19:12:00,57.9,57.3,0.00,WNW,292,1.6,3.1,98,0.00,,---,0.00,VWS V14.01,2013-07-26 00:12:00,
2013-07-25 19:13:00,58.1,57.5,0.00,West,270,2.2,3.1,98,0.00,,---,0.00,VWS V14.01,2013-07-26 00:13:00,
2013-07-25 19:14:00,58.2,57.7,0.00,West,270,1.3,3.1,98,0.00,,---,0.00,VWS V14.01,2013-07-26 00:14:00,
2013-07-25 19:15:00,58.2,57.7,0.00,West,270,2.5,3.1,98,0.00,,---,0.00,VWS V14.01,2013-07-26 00:15:00,
2013-07-25 19:16:00,58.2,57.7,0.00,West,270,1.3,2.9,98,0.00,,---,0.00,VWS V14.01,2013-07-26 00:16:00,
2013-07-25 19:17:00,58.4,57.9,0.00,West,270,2.2,2.9,98,0.00,,---,0.00,VWS V14.01,2013-07-26 00:17:00,
2013-07-25 19:18:00,58.2,57.7,0.00,West,270,0.0,2.9,98,0.00,,---,0.00,VWS V14.01,2013-07-26 00:18:00,
2013-07-25 19:19:00,58.2,57.7,0.00,WNW,292,1.6,2.9,98,0.00,,---,0.00,VWS V14.01,2013-07-26 00:19:00,
2013-07-25 19:20:00,58.2,57.7,0.00,WNW,292,0.0,2.9,98,0.00,,---,0.00,VWS V14.01,2013-07-26 00:20:00,
2013-07-25 19:21:00,58.1,57.5,0.00,WNW,292,0.0,2.9,98,0.00,,---,0.00,VWS V14.01,2013-07-26 00:21:00,
2013-07-25 19:22:00,57.9,57.3,0.00,West,270,1.1,2.9,98,0.00,,---,0.00,VWS V14.01,2013-07-26 00:22:00,
2013-07-25 19:23:00,57.9,57.3,0.00,West,270,0.0,2.9,98,0.00,,---,0.00,VWS V14.01,2013-07-26 00:23:00,
2013-07-25 19:24:00,57.9,57.3,0.00,NW,315,0.0,2.9,98,0.00,,---,0.00,VWS V14.01,2013-07-26 00:24:00,
2013-07-25 19:25:00,57.7,57.1,0.00,NW,315,1.1,2.9,98,0.00,,---,0.00,VWS V14.01,2013-07-26 00:25:00,
2013-07-25 19:26:00,57.9,57.3,0.00,NW,315,1.1,2.9,98,0.00,,---,0.00,VWS V14.01,2013-07-26 00:26:00,
2013-07-25 19:27:00,57.9,57.3,0.00,NW,315,1.6,2.9,98,0.00,,---,0.00,VWS V14.01,2013-07-26 00:27:00,
2013-07-25 19:28:00,58.1,57.5,0.00,NW,315,1.6,2.9,98,0.00,,---,0.00,VWS V14.01,2013-07-26 00:28:00,
2013-07-25 19:29:00,58.6,58.0,0.00,NW,315,1.6,2.9,98,0.00,,---,0.00,VWS V14.01,2013-07-26 00:29:00,
2013-07-25 19:30:00,58.6,58.0,0.00,NW,315,1.6,2.9,98,0.00,,---,0.00,VWS V14.01,2013-07-26 00:30:00,
2013-07-25 19:31:00,59.0,58.4,0.00,West,270,0.9,1.6,98,0.00,,---,0.00,VWS V14.01,2013-07-26 00:31:00,
2013-07-25 19:32:00,59.1,58.6,0.00,WNW,292,1.6,2.2,98,0.00,,---,0.00,VWS V14.01,2013-07-26 00:32:00,
2013-07-25 19:33:00,59.3,58.8,0.00,West,270,1.6,2.5,98,0.00,,---,0.00,VWS V14.01,2013-07-26 00:33:00,
2013-07-25 19:34:00,59.5,58.9,0.00,West,270,2.0,2.5,98,0.00,,---,0.00,VWS V14.01,2013-07-26 00:34:00,
2013-07-25 19:35:00,59.5,58.9,0.00,West,270,0.9,2.5,98,0.00,,---,0.00,VWS V14.01,2013-07-26 00:35:00,
2013-07-25 19:36:00,60.2,59.7,0.00,West,270,0.0,2.5,98,0.00,,---,0.00,VWS V14.01,2013-07-26 00:36:00,
2013-07-25 19:37:00,60.2,59.7,0.00,WSW,248,0.9,2.5,98,0.00,,---,0.00,VWS V14.01,2013-07-26 00:37:00,
2013-07-25 19:38:00,60.6,59.7,0.00,WSW,248,1.1,2.5,97,0.00,,---,0.00,VWS V14.01,2013-07-26 00:38:00,
2013-07-25 19:39:00,60.8,59.9,0.00,SW,225,0.0,2.5,97,0.00,,---,0.00,VWS V14.01,2013-07-26 00:39:00,
2013-07-25 19:40:00,60.8,59.9,0.00,SW,225,0.0,2.5,97,0.00,,---,0.00,VWS V14.01,2013-07-26 00:40:00,
2013-07-25 19:41:00,61.1,60.3,0.00,West,270,0.0,2.5,97,0.00,,---,0.00,VWS V14.01,2013-07-26 00:41:00,
2013-07-25 19:42:00,61.3,60.4,0.00,WSW,248,0.0,2.5,97,0.00,,---,0.00,VWS V14.01,2013-07-26 00:42:00,
2013-07-25 19:43:00,61.7,60.8,0.00,West,270,0.0,2.5,97,0.00,,---,0.00,VWS V14.01,2013-07-26 00:43:00,
2013-07-25 19:44:00,61.8,61.0,0.00,West,270,1.3,2.5,97,0.00,,---,0.00,VWS V14.01,2013-07-26 00:44:00,
2013-07-25 19:45:00,62.0,61.2,0.00,West,270,1.1,2.5,97,0.00,,---,0.00,VWS V14.01,2013-07-26 00:45:00,
2013-07-25 19:46:00,62.6,61.7,0.00,NW,315,0.0,1.3,97,0.00,,---,0.00,VWS V14.01,2013-07-26 00:46:00,
2013-07-25 19:47:00,62.6,61.7,0.00,North,0,0.0,1.3,97,0.00,,---,0.00,VWS V14.01,2013-07-26 00:47:00,
2013-07-25 19:48:00,62.6,61.7,0.00,North,0,0.0,1.3,97,0.00,,---,0.00,VWS V14.01,2013-07-26 00:48:00,
2013-07-25 19:49:00,62.9,61.8,0.00,North,0,0.9,1.3,96,0.00,,---,0.00,VWS V14.01,2013-07-26 00:49:00,
2013-07-25 19:50:00,63.1,61.9,0.00,North,0,0.0,1.3,96,0.00,,---,0.00,VWS V14.01,2013-07-26 00:50:00,
2013-07-25 19:51:00,63.6,62.2,0.00,North,0,0.0,1.3,95,0.00,,---,0.00,VWS V14.01,2013-07-26 00:51:00,
2013-07-25 19:52:00,63.8,62.1,0.00,North,0,0.0,1.3,94,0.00,,---,0.00,VWS V14.01,2013-07-26 00:52:00,
2013-07-25 19:53:00,64.2,62.4,0.00,NNW,338,0.0,1.3,94,0.00,,---,0.00,VWS V14.01,2013-07-26 00:53:00,
2013-07-25 19:54:00,64.4,62.3,0.00,North,0,0.0,1.3,93,0.00,,---,0.00,VWS V14.01,2013-07-26 00:54:00,
2013-07-25 19:55:00,64.5,62.5,0.00,North,0,0.0,1.3,93,0.00,,---,0.00,VWS V14.01,2013-07-26 00:55:00,
2013-07-25 19:56:00,65.1,63.0,0.00,NNW,338,0.0,1.3,93,0.00,,---,0.00,VWS V14.01,2013-07-26 00:56:00,
2013-07-25 19:57:00,65.1,63.0,0.00,NNW,338,0.0,1.3,93,0.00,,---,0.00,VWS V14.01,2013-07-26 00:57:00,
2013-07-25 19:58:00,65.3,63.2,0.00,NW,315,0.0,1.3,93,0.00,,---,0.00,VWS V14.01,2013-07-26 00:58:00,
2013-07-25 19:59:00,65.4,63.4,0.00,NW,315,1.6,1.6,93,0.00,,---,0.00,VWS V14.01,2013-07-26 00:59:00,
2013-07-25 20:00:00,65.8,63.4,0.00,NW,315,0.9,2.0,92,0.00,,---,0.00,VWS V14.01,2013-07-26 01:00:00,
2013-07-25 20:01:00,65.8,63.4,0.00,West,270,1.6,2.2,92,0.00,,---,0.00,VWS V14.01,2013-07-26 01:01:00,
2013-07-25 20:02:00,65.8,63.4,0.00,NW,315,1.6,2.2,92,0.00,,---,0.00,VWS V14.01,2013-07-26 01:02:00,
2013-07-25 20:03:00,65.6,62.0,0.00,NW,315,2.5,2.5,88,0.00,,---,0.00,VWS V14.01,2013-07-26 01:03:00,
2013-07-25 20:04:00,65.6,62.0,0.00,WNW,292,2.2,2.5,88,0.00,,---,0.00,VWS V14.01,2013-07-26 01:04:00,
2013-07-25 20:05:00,65.6,62.0,0.00,WNW,292,2.0,2.5,88,0.00,,---,0.00,VWS V14.01,2013-07-26 01:05:00,
2013-07-25 20:06:00,65.6,60.3,0.00,WNW,292,1.3,2.7,83,0.00,,---,0.00,VWS V14.01,2013-07-26 01:06:00,
2013-07-25 20:07:00,65.8,60.5,0.00,WNW,292,1.3,2.7,83,0.00,,---,0.00,VWS V14.01,2013-07-26 01:07:00,
2013-07-25 20:08:00,65.8,60.8,0.00,NW,315,2.0,2.7,84,0.00,,---,0.00,VWS V14.01,2013-07-26 01:08:00,
2013-07-25 20:09:00,66.2,61.2,0.00,North,0,1.1,2.7,84,0.00,,---,0.00,VWS V14.01,2013-07-26 01:09:00,
2013-07-25 20:10:00,66.3,61.4,0.00,NNE,22,1.1,2.7,84,0.00,,---,0.00,VWS V14.01,2013-07-26 01:10:00,
2013-07-25 20:11:00,66.7,61.7,0.00,North,0,1.1,2.7,84,0.00,,---,0.00,VWS V14.01,2013-07-26 01:11:00,
2013-07-25 20:12:00,66.9,61.6,0.00,North,0,3.6,3.6,83,0.00,,---,0.00,VWS V14.01,2013-07-26 01:12:00,
2013-07-25 20:13:00,66.9,61.6,0.00,NW,315,3.8,3.8,83,0.00,,---,0.00,VWS V14.01,2013-07-26 01:13:00,
2013-07-25 20:14:00,66.9,61.6,0.00,NNW,338,4.3,4.3,83,0.00,,---,0.00,VWS V14.01,2013-07-26 01:14:00,
2013-07-25 20:15:00,66.9,60.5,0.00,North,0,3.6,4.3,80,0.00,,---,0.00,VWS V14.01,2013-07-26 01:15:00,
2013-07-25 20:16:00,66.9,60.2,0.00,North,0,5.6,5.6,79,0.00,,---,0.00,VWS V14.01,2013-07-26 01:16:00,
2013-07-25 20:17:00,66.9,60.2,0.00,North,0,4.0,5.6,79,0.00,,---,0.00,VWS V14.01,2013-07-26 01:17:00,
2013-07-25 20:18:00,66.9,60.2,0.00,North,0,4.9,5.6,79,0.00,,---,0.00,VWS V14.01,2013-07-26 01:18:00,
2013-07-25 20:19:00,66.9,60.5,0.00,North,0,7.6,7.6,80,0.00,,---,0.00,VWS V14.01,2013-07-26 01:19:00,
2013-07-25 20:20:00,66.7,60.0,0.00,North,0,3.8,7.6,79,0.00,,---,0.00,VWS V14.01,2013-07-26 01:20:00,
2013-07-25 20:21:00,66.5,60.2,0.00,North,0,4.3,7.6,80,0.00,,---,0.00,VWS V14.01,2013-07-26 01:21:00,
2013-07-25 20:22:00,66.5,60.2,0.00,North,0,2.9,7.6,80,0.00,,---,0.00,VWS V14.01,2013-07-26 01:22:00,
2013-07-25 20:23:00,66.7,60.7,0.00,North,0,3.1,7.6,81,0.00,,---,0.00,VWS V14.01,2013-07-26 01:23:00,
2013-07-25 20:24:00,66.7,60.7,0.00,North,0,3.8,7.6,81,0.00,,---,0.00,VWS V14.01,2013-07-26 01:24:00,
2013-07-25 20:25:00,66.9,60.9,0.00,North,0,4.9,7.6,81,0.00,,---,0.00,VWS V14.01,2013-07-26 01:25:00,
2013-07-25 20:26:00,66.9,60.9,0.00,NW,315,2.5,7.6,81,0.00,,---,0.00,VWS V14.01,2013-07-26 01:26:00,
2013-07-25 20:27:00,67.1,61.0,0.00,North,0,2.7,7.6,81,0.00,,---,0.00,VWS V14.01,2013-07-26 01:27:00,
2013-07-25 20:28:00,67.2,61.2,0.00,North,0,2.7,7.6,81,0.00,,---,0.00,VWS V14.01,2013-07-26 01:28:00,
2013-07-25 20:29:00,67.4,61.4,0.00,North,0,2.0,7.6,81,0.00,,---,0.00,VWS V14.01,2013-07-26 01:29:00,
2013-07-25 20:30:00,67.8,61.4,0.00,North,0,2.9,7.6,80,0.00,,---,0.00,VWS V14.01,2013-07-26 01:30:00,
2013-07-25 20:31:00,67.8,61.4,0.00,NW,315,2.7,4.7,80,0.00,,---,0.00,VWS V14.01,2013-07-26 01:31:00,
2013-07-25 20:32:00,68.0,61.2,0.00,North,0,3.1,4.7,79,0.00,,---,0.00,VWS V14.01,2013-07-26 01:32:00,
2013-07-25 20:33:00,68.1,61.4,0.00,North,0,4.0,4.7,79,0.00,,---,0.00,VWS V14.01,2013-07-26 01:33:00,
2013-07-25 20:34:00,68.1,61.4,0.00,North,0,3.4,4.7,79,0.00,,---,0.00,VWS V14.01,2013-07-26 01:34:00,
2013-07-25 20:35:00,68.1,61.4,0.00,NW,315,2.0,4.7,79,0.00,,---,0.00,VWS V14.01,2013-07-26 01:35:00,
2013-07-25 20:36:00,68.5,61.7,0.00,North,0,3.8,4.7,79,0.00,,---,0.00,VWS V14.01,2013-07-26 01:36:00,
2013-07-25 20:37:00,68.5,61.4,0.00,North,0,3.6,4.7,78,0.00,,---,0.00,VWS V14.01,2013-07-26 01:37:00,
2013-07-25 20:38:00,68.5,61.0,0.00,West,270,2.0,4.7,77,0.00,,---,0.00,VWS V14.01,2013-07-26 01:38:00,
2013-07-25 20:39:00,68.5,61.0,0.00,NW,315,2.5,4.7,77,0.00,,---,0.00,VWS V14.01,2013-07-26 01:39:00,
2013-07-25 20:40:00,68.5,61.0,0.00,NW,315,3.8,4.7,77,0.00,,---,0.00,VWS V14.01,2013-07-26 01:40:00,
2013-07-25 20:41:00,69.0,61.2,0.00,NW,315,3.6,4.7,76,0.00,,---,0.00,VWS V14.01,2013-07-26 01:41:00,
2013-07-25 20:43:00,69.2,61.3,0.00,NNW,338,3.1,4.7,76,0.00,,---,0.00,VWS V14.01,2013-07-26 01:43:00,
2013-07-25 20:44:00,69.4,61.1,0.00,NW,315,2.9,4.7,75,0.00,,---,0.00,VWS V14.01,2013-07-26 01:44:00,
2013-07-25 20:45:00,69.6,61.3,0.00,WNW,292,1.6,4.7,75,0.00,,---,0.00,VWS V14.01,2013-07-26 01:45:00,
2013-07-25 20:46:00,69.8,61.5,0.00,NW,315,2.9,3.8,75,0.00,,---,0.00,VWS V14.01,2013-07-26 01:46:00,
2013-07-25 20:47:00,69.9,61.7,0.00,NW,315,2.5,3.8,75,0.00,,---,0.00,VWS V14.01,2013-07-26 01:47:00,
2013-07-25 20:48:00,70.1,61.8,0.00,NW,315,3.1,3.8,75,0.00,,---,0.00,VWS V14.01,2013-07-26 01:48:00,
2013-07-25 20:49:00,70.3,61.6,0.00,NW,315,3.6,3.8,74,0.00,,---,0.00,VWS V14.01,2013-07-26 01:49:00,
2013-07-25 20:50:00,70.3,61.6,0.00,WNW,292,3.1,3.8,74,0.00,,---,0.00,VWS V14.01,2013-07-26 01:50:00,
2013-07-25 20:51:00,70.7,61.2,0.00,WNW,292,2.2,3.8,72,0.00,,---,0.00,VWS V14.01,2013-07-26 01:51:00,
2013-07-25 20:52:00,70.8,61.8,0.00,West,270,2.0,3.8,73,0.00,,---,0.00,VWS V14.01,2013-07-26 01:52:00,
2013-07-25 20:53:00,71.2,61.7,0.00,NW,315,3.1,3.8,72,0.00,,---,0.00,VWS V14.01,2013-07-26 01:53:00,
2013-07-25 20:54:00,71.2,61.7,0.00,WNW,292,1.3,3.8,72,0.00,,---,0.00,VWS V14.01,2013-07-26 01:54:00,
2013-07-25 20:55:00,71.4,61.9,0.00,NW,315,2.0,3.8,72,0.00,,---,0.00,VWS V14.01,2013-07-26 01:55:00,
2013-07-25 20:56:00,71.4,61.9,0.00,NW,315,1.6,3.8,72,0.00,,---,0.00,VWS V14.01,2013-07-26 01:56:00,
2013-07-25 20:57:00,71.4,61.9,0.00,West,270,2.0,3.8,72,0.00,,---,0.00,VWS V14.01,2013-07-26 01:57:00,
2013-07-25 20:58:00,72.1,62.2,0.00,NW,315,0.0,3.8,71,0.00,,---,0.00,VWS V14.01,2013-07-26 01:58:00,
2013-07-25 20:59:00,72.3,62.4,0.00,NW,315,2.0,3.8,71,0.00,,---,0.00,VWS V14.01,2013-07-26 01:59:00,
2013-07-25 21:00:00,72.3,62.0,0.00,NW,315,0.0,3.8,70,0.00,,---,0.00,VWS V14.01,2013-07-26 02:00:00,
2013-07-25 21:01:00,72.6,62.7,0.00,West,270,2.7,2.7,71,0.00,,---,0.00,VWS V14.01,2013-07-26 02:01:00,
2013-07-25 21:02:00,72.8,62.5,0.00,West,270,2.9,2.9,70,0.00,,---,0.00,VWS V14.01,2013-07-26 02:02:00,
2013-07-25 21:03:00,73.0,61.8,0.00,West,270,2.9,3.6,68,0.00,,---,0.00,VWS V14.01,2013-07-26 02:03:00,
2013-07-25 21:04:00,73.2,61.2,0.00,West,270,2.9,4.0,66,0.00,,---,0.00,VWS V14.01,2013-07-26 02:04:00,
2013-07-25 21:05:00,73.2,61.2,0.00,NW,315,1.6,4.0,66,0.00,,---,0.00,VWS V14.01,2013-07-26 02:05:00,
2013-07-25 21:06:00,73.4,62.2,0.00,WNW,292,2.0,4.0,68,0.00,,---,0.00,VWS V14.01,2013-07-26 02:06:00,
2013-07-25 21:07:00,73.5,61.9,0.00,NW,315,0.0,4.0,67,0.00,,---,0.00,VWS V14.01,2013-07-26 02:07:00,
2013-07-25 21:08:00,73.9,62.7,0.00,NW,315,1.1,4.0,68,0.00,,---,0.00,VWS V14.01,2013-07-26 02:08:00,
2013-07-25 21:09:00,73.9,62.7,0.00,WNW,292,1.3,4.0,68,0.00,,---,0.00,VWS V14.01,2013-07-26 02:09:00,
2013-07-25 21:10:00,73.9,62.3,0.00,NW,315,0.0,4.0,67,0.00,,---,0.00,VWS V14.01,2013-07-26 02:10:00,
2013-07-25 21:11:00,74.3,61.8,0.00,West,270,2.9,4.0,65,0.00,,---,0.00,VWS V14.01,2013-07-26 02:11:00,
2013-07-25 21:12:00,74.3,62.2,0.00,NW,315,2.5,4.0,66,0.00,,---,0.00,VWS V14.01,2013-07-26 02:12:00,
2013-07-25 21:13:00,74.3,61.8,0.00,WNW,292,2.5,4.0,65,0.00,,---,0.00,VWS V14.01,2013-07-26 02:13:00,
2013-07-25 21:14:00,74.4,62.3,0.00,WNW,292,3.1,4.0,66,0.00,,---,0.00,VWS V14.01,2013-07-26 02:14:00,
2013-07-25 21:15:00,74.6,62.1,0.00,WNW,292,3.1,4.0,65,0.00,,---,0.00,VWS V14.01,2013-07-26 02:15:00,
2013-07-25 21:16:00,74.8,61.4,0.00,NW,315,4.0,4.0,63,0.00,,---,0.00,VWS V14.01,2013-07-26 02:16:00,
2013-07-25 21:17:00,74.8,60.5,0.00,West,270,4.3,5.4,61,0.00,,---,0.00,VWS V14.01,2013-07-26 02:17:00,
2013-07-25 21:18:00,74.6,60.8,0.00,West,270,3.4,5.4,62,0.00,,---,0.00,VWS V14.01,2013-07-26 02:18:00,
2013-07-25 21:19:00,74.6,60.8,0.00,WNW,292,2.5,5.4,62,0.00,,---,0.00,VWS V14.01,2013-07-26 02:19:00,
2013-07-25 21:20:00,74.8,61.4,0.00,WNW,292,2.5,5.4,63,0.00,,---,0.00,VWS V14.01,2013-07-26 02:20:00,
2013-07-25 21:21:00,74.8,61.4,0.00,WNW,292,2.5,5.4,63,0.00,,---,0.00,VWS V14.01,2013-07-26 02:21:00,
2013-07-25 21:22:00,74.8,61.4,0.00,NW,315,2.5,5.4,63,0.00,,---,0.00,VWS V14.01,2013-07-26 02:22:00,
2013-07-25 21:23:00,75.0,61.5,0.00,NW,315,2.5,5.4,63,0.00,,---,0.00,VWS V14.01,2013-07-26 02:23:00,
2013-07-25 21:24:00,75.0,61.5,0.00,NW,315,2.7,5.4,63,0.00,,---,0.00,VWS V14.01,2013-07-26 02:24:00,
2013-07-25 21:25:00,75.2,61.7,0.00,NW,315,2.7,5.4,63,0.00,,---,0.00,VWS V14.01,2013-07-26 02:25:00,
2013-07-25 21:26:00,75.2,61.7,0.00,NW,315,2.7,5.4,63,0.00,,---,0.00,VWS V14.01,2013-07-26 02:26:00,
2013-07-25 21:27:00,75.3,61.4,0.00,North,0,3.6,5.4,62,0.00,,---,0.00,VWS V14.01,2013-07-26 02:27:00,
2013-07-25 21:28:00,75.2,61.7,0.00,WNW,292,1.6,5.4,63,0.00,,---,0.00,VWS V14.01,2013-07-26 02:28:00,
2013-07-25 21:29:00,75.3,61.9,0.00,NW,315,2.5,5.4,63,0.00,,---,0.00,VWS V14.01,2013-07-26 02:29:00,
2013-07-25 21:30:00,75.7,61.8,0.00,NW,315,4.0,5.4,62,0.00,,---,0.00,VWS V14.01,2013-07-26 02:30:00,
2013-07-25 21:31:00,75.7,59.9,0.00,North,0,3.4,5.6,58,0.00,,---,0.00,VWS V14.01,2013-07-26 02:31:00,
2013-07-25 21:33:00,75.7,59.9,0.00,NW,315,3.8,5.6,58,0.00,,---,0.00,VWS V14.01,2013-07-26 02:33:00,
2013-07-25 21:35:00,75.9,61.0,0.00,North,0,2.0,5.6,60,0.00,,---,0.00,VWS V14.01,2013-07-26 02:35:00,
2013-07-25 21:36:00,75.7,60.8,0.00,NW,315,3.8,5.6,60,0.00,,---,0.00,VWS V14.01,2013-07-26 02:36:00,
2013-07-25 21:38:00,75.9,61.5,0.00,NW,315,4.0,6.3,61,0.00,,---,0.00,VWS V14.01,2013-07-26 02:38:00,
2013-07-25 21:39:00,75.9,59.6,0.00,NW,315,3.4,6.3,57,0.00,,---,0.00,VWS V14.01,2013-07-26 02:39:00,
2013-07-25 21:40:00,75.5,59.2,0.00,North,0,5.8,6.5,57,0.00,,---,0.00,VWS V14.01,2013-07-26 02:40:00,
2013-07-25 21:41:00,75.3,58.1,0.00,North,0,5.8,7.4,55,0.00,,---,0.00,VWS V14.01,2013-07-26 02:41:00,
2013-07-25 21:42:00,75.2,58.4,0.00,NNE,22,4.9,7.4,56,0.00,,---,0.00,VWS V14.01,2013-07-26 02:42:00,
2013-07-25 21:43:00,75.2,58.4,0.00,NW,315,5.8,7.4,56,0.00,,---,0.00,VWS V14.01,2013-07-26 02:43:00,
2013-07-25 21:44:00,75.5,58.2,0.00,NW,315,3.8,7.4,55,0.00,,---,0.00,VWS V14.01,2013-07-26 02:44:00,
2013-07-25 21:45:00,75.5,58.2,0.00,North,0,5.4,7.4,55,0.00,,---,0.00,VWS V14.01,2013-07-26 02:45:00,
2013-07-25 21:46:00,75.5,58.2,0.00,NE,45,5.6,5.6,55,0.00,,---,0.00,VWS V14.01,2013-07-26 02:46:00,
2013-07-25 21:48:00,75.5,58.2,0.00,NE,45,5.6,5.6,55,0.00,,---,0.00,VWS V14.01,2013-07-26 02:48:00,
2013-07-25 21:49:00,75.5,58.2,0.00,NNE,22,5.8,5.8,55,0.00,,---,0.00,VWS V14.01,2013-07-26 02:49:00,
2013-07-25 21:50:00,75.5,58.2,0.00,NNW,338,4.7,6.9,55,0.00,,---,0.00,VWS V14.01,2013-07-26 02:50:00,
2013-07-25 21:51:00,75.3,58.6,0.00,NW,315,3.6,6.9,56,0.00,,---,0.00,VWS V14.01,2013-07-26 02:51:00,
2013-07-25 21:52:00,75.3,58.6,0.00,North,0,7.6,7.6,56,0.00,,---,0.00,VWS V14.01,2013-07-26 02:52:00,
2013-07-25 21:53:00,75.3,58.6,0.00,North,0,6.0,7.8,56,0.00,,---,0.00,VWS V14.01,2013-07-26 02:53:00,
2013-07-25 21:54:00,75.3,58.6,0.00,NE,45,5.4,7.8,56,0.00,,---,0.00,VWS V14.01,2013-07-26 02:54:00,
2013-07-25 21:55:00,75.2,58.9,0.00,NNE,22,4.7,7.8,57,0.00,,---,0.00,VWS V14.01,2013-07-26 02:55:00,
2013-07-25 21:56:00,75.2,58.4,0.00,NNE,22,6.3,7.8,56,0.00,,---,0.00,VWS V14.01,2013-07-26 02:56:00,
2013-07-25 21:57:00,75.2,59.4,0.00,North,0,4.0,7.8,58,0.00,,---,0.00,VWS V14.01,2013-07-26 02:57:00,
2013-07-25 21:58:00,75.3,60.0,0.00,North,0,6.0,7.8,59,0.00,,---,0.00,VWS V14.01,2013-07-26 02:58:00,
2013-07-25 21:59:00,75.3,60.0,0.00,NE,45,6.5,7.8,59,0.00,,---,0.00,VWS V14.01,2013-07-26 02:59:00,
2013-07-25 22:00:00,75.5,58.7,0.00,NW,315,4.0,7.8,56,0.00,,---,0.00,VWS V14.01,2013-07-26 03:00:00,
2013-07-25 22:01:00,75.3,59.1,0.00,North,0,7.4,7.4,57,0.00,,---,0.00,VWS V14.01,2013-07-26 03:01:00,
2013-07-25 22:02:00,75.3,59.1,0.00,NW,315,5.4,7.4,57,0.00,,---,0.00,VWS V14.01,2013-07-26 03:02:00,
2013-07-25 22:03:00,75.3,59.1,0.00,North,0,4.7,7.4,57,0.00,,---,0.00,VWS V14.01,2013-07-26 03:03:00,
2013-07-25 22:04:00,75.3,59.6,0.00,NW,315,4.3,7.4,58,0.00,,---,0.00,VWS V14.01,2013-07-26 03:04:00,
2013-07-25 22:05:00,75.3,59.6,0.00,North,0,7.4,7.4,58,0.00,,---,0.00,VWS V14.01,2013-07-26 03:05:00,
2013-07-25 22:07:00,75.3,60.0,0.00,NW,315,6.5,7.4,59,0.00,,---,0.00,VWS V14.01,2013-07-26 03:07:00,
2013-07-25 22:08:00,75.5,59.2,0.00,North,0,5.4,7.4,57,0.00,,---,0.00,VWS V14.01,2013-07-26 03:08:00,
2013-07-25 22:09:00,75.5,59.2,0.00,North,0,5.4,7.4,57,0.00,,---,0.00,VWS V14.01,2013-07-26 03:09:00,
2013-07-25 22:10:00,75.5,59.2,0.00,North,0,3.8,7.4,57,0.00,,---,0.00,VWS V14.01,2013-07-26 03:10:00,
2013-07-25 22:11:00,75.5,60.7,0.00,North,0,8.7,9.0,60,0.00,,---,0.00,VWS V14.01,2013-07-26 03:11:00,
2013-07-25 22:12:00,75.2,59.4,0.00,North,0,7.6,9.0,58,0.00,,---,0.00,VWS V14.01,2013-07-26 03:12:00,
2013-07-25 22:13:00,75.2,59.4,0.00,North,0,5.6,9.0,58,0.00,,---,0.00,VWS V14.01,2013-07-26 03:13:00,
2013-07-25 22:14:00,75.5,60.2,0.00,NW,315,3.4,9.0,59,0.00,,---,0.00,VWS V14.01,2013-07-26 03:14:00,
2013-07-25 22:15:00,75.5,59.2,0.00,North,0,7.4,9.0,57,0.00,,---,0.00,VWS V14.01,2013-07-26 03:15:00,
2013-07-25 22:16:00,75.3,58.6,0.00,NW,315,6.0,7.4,56,0.00,,---,0.00,VWS V14.01,2013-07-26 03:16:00,
2013-07-25 22:17:00,75.5,58.2,0.00,NW,315,9.0,9.0,55,0.00,,---,0.00,VWS V14.01,2013-07-26 03:17:00,
2013-07-25 22:19:00,75.5,58.2,0.00,North,0,4.0,9.0,55,0.00,,---,0.00,VWS V14.01,2013-07-26 03:19:00,
2013-07-25 22:20:00,75.3,58.1,0.00,NNE,22,4.7,9.0,55,0.00,,---,0.00,VWS V14.01,2013-07-26 03:20:00,
2013-07-25 22:21:00,75.7,58.9,0.00,North,0,6.9,9.0,56,0.00,,---,0.00,VWS V14.01,2013-07-26 03:21:00,
2013-07-25 22:22:00,75.5,59.2,0.00,NW,315,6.0,9.0,57,0.00,,---,0.00,VWS V14.01,2013-07-26 03:22:00,
2013-07-25 22:23:00,75.9,59.6,0.00,North,0,5.8,9.0,57,0.00,,---,0.00,VWS V14.01,2013-07-26 03:23:00,
2013-07-25 22:24:00,75.9,58.6,0.00,NW,315,6.0,9.0,55,0.00,,---,0.00,VWS V14.01,2013-07-26 03:24:00,
2013-07-25 22:26:00,75.9,58.6,0.00,North,0,4.9,9.0,55,0.00,,---,0.00,VWS V14.01,2013-07-26 03:26:00,
2013-07-25 22:27:00,75.9,59.1,0.00,North,0,6.0,9.0,56,0.00,,---,0.00,VWS V14.01,2013-07-26 03:27:00,
2013-07-25 22:28:00,75.5,59.2,0.00,North,0,9.6,9.6,57,0.00,,---,0.00,VWS V14.01,2013-07-26 03:28:00,
2013-07-25 22:29:00,75.3,58.1,0.00,North,0,4.0,9.6,55,0.00,,---,0.00,VWS V14.01,2013-07-26 03:29:00,
2013-07-25 22:30:00,75.7,58.4,0.00,NNE,22,3.4,9.6,55,0.00,,---,0.00,VWS V14.01,2013-07-26 03:30:00,
2013-07-25 22:31:00,75.9,60.1,0.00,North,0,7.6,7.6,58,0.00,,---,0.00,VWS V14.01,2013-07-26 03:31:00,
2013-07-25 22:32:00,75.9,59.1,0.00,North,0,7.6,7.8,56,0.00,,---,0.00,VWS V14.01,2013-07-26 03:32:00,
2013-07-25 22:33:00,76.1,59.2,0.00,North,0,5.8,7.8,56,0.00,,---,0.00,VWS V14.01,2013-07-26 03:33:00,
2013-07-25 22:34:00,76.1,59.2,0.00,North,0,3.6,7.8,56,0.00,,---,0.00,VWS V14.01,2013-07-26 03:34:00,
2013-07-25 22:35:00,76.1,59.2,0.00,North,0,4.3,7.8,56,0.00,,---,0.00,VWS V14.01,2013-07-26 03:35:00,
2013-07-25 22:36:00,76.6,59.8,0.00,North,0,5.8,7.8,56,0.00,,---,0.00,VWS V14.01,2013-07-26 03:36:00,
2013-07-25 22:37:00,76.6,59.2,0.00,NNW,338,3.4,7.8,55,0.00,,---,0.00,VWS V14.01,2013-07-26 03:37:00,
2013-07-25 22:38:00,76.8,59.4,0.00,North,0,5.8,7.8,55,0.00,,---,0.00,VWS V14.01,2013-07-26 03:38:00,
2013-07-25 22:39:00,75.7,58.4,0.00,NW,315,6.5,7.8,55,0.00,,---,0.00,VWS V14.01,2013-07-26 03:39:00,
2013-07-25 22:40:00,75.7,58.4,0.00,NNE,22,10.1,10.1,55,0.00,,---,0.00,VWS V14.01,2013-07-26 03:40:00,
2013-07-25 22:41:00,75.9,59.1,0.00,North,0,10.1,10.1,56,0.00,,---,0.00,VWS V14.01,2013-07-26 03:41:00,
2013-07-25 22:42:00,75.9,59.1,0.00,NNE,22,6.5,10.1,56,0.00,,---,0.00,VWS V14.01,2013-07-26 03:42:00,
2013-07-25 22:43:00,75.9,58.1,0.00,North,0,6.5,10.1,54,0.00,,---,0.00,VWS V14.01,2013-07-26 03:43:00,
2013-07-25 22:44:00,76.2,58.9,0.00,North,0,6.0,10.1,55,0.00,,---,0.00,VWS V14.01,2013-07-26 03:44:00,
2013-07-25 22:45:00,76.6,58.7,0.00,NNE,22,5.8,10.1,54,0.00,,---,0.00,VWS V14.01,2013-07-26 03:45:00,
2013-07-25 22:46:00,76.8,59.4,0.00,North,0,10.1,10.1,55,0.00,,---,0.00,VWS V14.01,2013-07-26 03:46:00,
2013-07-25 22:47:00,76.8,59.4,0.00,North,0,6.0,10.1,55,0.00,,---,0.00,VWS V14.01,2013-07-26 03:47:00,
2013-07-25 22:49:00,76.4,58.6,0.00,NW,315,4.3,10.1,54,0.00,,---,0.00,VWS V14.01,2013-07-26 03:49:00,
2013-07-25 22:50:00,77.3,59.4,0.00,North,0,6.0,10.1,54,0.00,,---,0.00,VWS V14.01,2013-07-26 03:50:00,
2013-07-25 22:51:00,77.7,59.2,0.00,NNE,22,5.6,10.1,53,0.00,,---,0.00,VWS V14.01,2013-07-26 03:51:00,
2013-07-25 22:52:00,77.7,59.2,0.00,North,0,7.6,10.1,53,0.00,,---,0.00,VWS V14.01,2013-07-26 03:52:00,
2013-07-25 22:53:00,77.7,59.2,0.00,North,0,7.6,10.1,53,0.00,,---,0.00,VWS V14.01,2013-07-26 03:53:00,
2013-07-25 22:54:00,76.6,58.2,0.00,NE,45,7.4,10.1,53,0.00,,---,0.00,VWS V14.01,2013-07-26 03:54:00,
2013-07-25 22:55:00,76.1,57.7,0.00,NE,45,5.8,10.1,53,0.00,,---,0.00,VWS V14.01,2013-07-26 03:55:00,
2013-07-25 22:56:00,75.9,58.1,0.00,North,0,5.8,10.1,54,0.00,,---,0.00,VWS V14.01,2013-07-26 03:56:00,
2013-07-25 22:57:00,75.9,58.1,0.00,North,0,5.4,10.1,54,0.00,,---,0.00,VWS V14.01,2013-07-26 03:57:00,
2013-07-25 22:58:00,75.7,58.9,0.00,North,0,6.5,10.1,56,0.00,,---,0.00,VWS V14.01,2013-07-26 03:58:00,
2013-07-25 22:59:00,75.5,58.7,0.00,NW,315,6.5,10.1,56,0.00,,---,0.00,VWS V14.01,2013-07-26 03:59:00,
2013-07-25 23:00:00,75.5,58.7,0.00,NW,315,3.8,10.1,56,0.00,,---,0.00,VWS V14.01,2013-07-26 04:00:00,
2013-07-25 23:01:00,76.2,57.9,0.00,NW,315,5.6,5.8,53,0.00,,---,0.00,VWS V14.01,2013-07-26 04:01:00,
2013-07-25 23:02:00,76.6,58.2,0.00,North,0,6.3,8.5,53,0.00,,---,0.00,VWS V14.01,2013-07-26 04:02:00,
2013-07-25 23:03:00,77.0,59.6,0.00,North,0,6.5,8.5,55,0.00,,---,0.00,VWS V14.01,2013-07-26 04:03:00,
2013-07-25 23:04:00,76.6,59.2,0.00,NNE,22,7.4,8.5,55,0.00,,---,0.00,VWS V14.01,2013-07-26 04:04:00,
2013-07-25 23:05:00,76.8,57.8,0.00,NNE,22,10.7,10.7,52,0.00,,---,0.00,VWS V14.01,2013-07-26 04:05:00,
2013-07-25 23:06:00,76.8,57.8,0.00,NNW,338,6.3,10.7,52,0.00,,---,0.00,VWS V14.01,2013-07-26 04:06:00,
2013-07-25 23:07:00,76.1,57.7,0.00,NW,315,5.4,10.7,53,0.00,,---,0.00,VWS V14.01,2013-07-26 04:07:00,
2013-07-25 23:08:00,76.1,58.2,0.00,NW,315,5.4,10.7,54,0.00,,---,0.00,VWS V14.01,2013-07-26 04:08:00,
2013-07-25 23:09:00,76.1,57.7,0.00,North,0,3.1,10.7,53,0.00,,---,0.00,VWS V14.01,2013-07-26 04:09:00,
2013-07-25 23:10:00,76.1,57.7,0.00,North,0,4.9,10.7,53,0.00,,---,0.00,VWS V14.01,2013-07-26 04:10:00,
2013-07-25 23:11:00,76.8,58.4,0.00,NE,45,7.4,10.7,53,0.00,,---,0.00,VWS V14.01,2013-07-26 04:11:00,
2013-07-25 23:12:00,76.8,57.3,0.00,NE,45,8.1,10.7,51,0.00,,---,0.00,VWS V14.01,2013-07-26 04:12:00,
2013-07-25 23:14:00,76.8,57.3,0.00,NE,45,8.1,10.7,51,0.00,,---,0.00,VWS V14.01,2013-07-26 04:14:00,
2013-07-25 23:15:00,77.7,59.2,0.00,NE,45,9.6,10.7,53,0.00,,---,0.00,VWS V14.01,2013-07-26 04:15:00,
2013-07-25 23:16:00,78.2,58.6,0.00,NE,45,7.6,9.6,51,0.00,,---,0.00,VWS V14.01,2013-07-26 04:16:00,
2013-07-25 23:18:00,78.2,58.6,0.00,NNE,22,6.0,9.6,51,0.00,,---,0.00,VWS V14.01,2013-07-26 04:18:00,
2013-07-25 23:19:00,76.6,56.6,0.00,NNE,22,8.7,9.6,50,0.00,,---,0.00,VWS V14.01,2013-07-26 04:19:00,
2013-07-25 23:21:00,76.4,57.5,0.00,NNE,22,4.9,9.6,52,0.00,,---,0.00,VWS V14.01,2013-07-26 04:21:00,
2013-07-25 23:22:00,75.9,56.5,0.00,North,0,4.7,9.6,51,0.00,,---,0.00,VWS V14.01,2013-07-26 04:22:00,
2013-07-25 23:23:00,75.5,56.7,0.00,NNE,22,7.4,9.6,52,0.00,,---,0.00,VWS V14.01,2013-07-26 04:23:00,
2013-07-25 23:24:00,75.3,56.5,0.00,NE,45,11.4,11.4,52,0.00,,---,0.00,VWS V14.01,2013-07-26 04:24:00,
2013-07-25 23:25:00,75.3,57.6,0.00,North,0,6.9,12.5,54,0.00,,---,0.00,VWS V14.01,2013-07-26 04:25:00,
2013-07-25 23:26:00,74.8,56.5,0.00,North,0,10.1,12.5,53,0.00,,---,0.00,VWS V14.01,2013-07-26 04:26:00,
2013-07-25 23:27:00,74.6,56.9,0.00,North,0,9.8,12.5,54,0.00,,---,0.00,VWS V14.01,2013-07-26 04:27:00,
2013-07-25 23:28:00,74.4,56.7,0.00,North,0,13.2,13.2,54,0.00,,---,0.00,VWS V14.01,2013-07-26 04:28:00,
2013-07-25 23:29:00,74.8,57.1,0.00,North,0,10.3,13.2,54,0.00,,---,0.00,VWS V14.01,2013-07-26 04:29:00,
2013-07-25 23:30:00,75.2,57.9,0.00,North,0,12.1,13.2,55,0.00,,---,0.00,VWS V14.01,2013-07-26 04:30:00,
2013-07-25 23:31:00,75.3,58.6,0.00,NNE,22,13.0,13.0,56,0.00,,---,0.00,VWS V14.01,2013-07-26 04:31:00,
2013-07-25 23:32:00,75.7,58.4,0.00,NE,45,10.5,13.0,55,0.00,,---,0.00,VWS V14.01,2013-07-26 04:32:00,
2013-07-25 23:33:00,76.1,58.7,0.00,NNE,22,10.3,13.0,55,0.00,,---,0.00,VWS V14.01,2013-07-26 04:33:00,
2013-07-25 23:34:00,76.1,59.2,0.00,North,0,7.8,13.0,56,0.00,,---,0.00,VWS V14.01,2013-07-26 04:34:00,
2013-07-25 23:35:00,76.1,58.7,0.00,North,0,12.5,13.0,55,0.00,,---,0.00,VWS V14.01,2013-07-26 04:35:00,
2013-07-25 23:36:00,75.5,57.7,0.00,North,0,7.4,13.0,54,0.00,,---,0.00,VWS V14.01,2013-07-26 04:36:00,
2013-07-25 23:38:00,75.3,57.6,0.00,NE,45,8.7,13.0,54,0.00,,---,0.00,VWS V14.01,2013-07-26 04:38:00,
2013-07-25 23:39:00,75.2,57.9,0.00,North,0,9.6,13.0,55,0.00,,---,0.00,VWS V14.01,2013-07-26 04:39:00,
2013-07-25 23:40:00,75.2,58.4,0.00,North,0,7.6,13.0,56,0.00,,---,0.00,VWS V14.01,2013-07-26 04:40:00,
2013-07-25 23:42:00,75.2,58.4,0.00,North,0,10.5,13.0,56,0.00,,---,0.00,VWS V14.01,2013-07-26 04:42:00,
2013-07-25 23:43:00,74.8,57.6,0.00,North,0,6.3,13.0,55,0.00,,---,0.00,VWS V14.01,2013-07-26 04:43:00,
2013-07-25 23:44:00,74.6,57.4,0.00,North,0,8.7,13.0,55,0.00,,---,0.00,VWS V14.01,2013-07-26 04:44:00,
2013-07-25 23:45:00,74.3,57.1,0.00,North,0,10.1,13.0,55,0.00,,---,0.00,VWS V14.01,2013-07-26 04:45:00,
2013-07-25 23:46:00,73.9,57.2,0.00,North,0,6.0,10.1,56,0.00,,---,0.00,VWS V14.01,2013-07-26 04:46:00,
2013-07-25 23:47:00,73.9,57.2,0.00,North,0,8.5,10.1,56,0.00,,---,0.00,VWS V14.01,2013-07-26 04:47:00,
2013-07-25 23:48:00,73.5,57.4,0.00,North,0,12.3,12.3,57,0.00,,---,0.00,VWS V14.01,2013-07-26 04:48:00,
2013-07-25 23:49:00,73.4,57.2,0.00,North,0,9.8,12.3,57,0.00,,---,0.00,VWS V14.01,2013-07-26 04:49:00,
2013-07-25 23:50:00,73.4,56.7,0.00,North,0,14.8,15.9,56,0.00,,---,0.00,VWS V14.01,2013-07-26 04:50:00,
2013-07-25 23:51:00,73.5,56.9,0.00,North,0,13.9,15.9,56,0.00,,---,0.00,VWS V14.01,2013-07-26 04:51:00,
2013-07-25 23:52:00,74.3,58.1,0.00,NNE,22,11.0,15.9,57,0.00,,---,0.00,VWS V14.01,2013-07-26 04:52:00,
2013-07-25 23:53:00,74.3,58.1,0.00,NNE,22,10.3,15.9,57,0.00,,---,0.00,VWS V14.01,2013-07-26 04:53:00,
2013-07-25 23:54:00,74.3,57.6,0.00,North,0,11.0,15.9,56,0.00,,---,0.00,VWS V14.01,2013-07-26 04:54:00,
2013-07-25 23:55:00,74.4,57.7,0.00,North,0,10.3,15.9,56,0.00,,---,0.00,VWS V14.01,2013-07-26 04:55:00,
2013-07-25 23:56:00,74.3,57.6,0.00,North,0,10.7,15.9,56,0.00,,---,0.00,VWS V14.01,2013-07-26 04:56:00,
2013-07-25 23:57:00,74.3,57.6,0.00,North,0,10.7,15.9,56,0.00,,---,0.00,VWS V14.01,2013-07-26 04:57:00,
2013-07-25 23:58:00,74.8,58.1,0.00,North,0,12.3,15.9,56,0.00,,---,0.00,VWS V14.01,2013-07-26 04:58:00,
2013-07-25 23:59:00,74.4,57.2,0.00,North,0,15.4,15.9,55,0.00,,---,0.00,VWS V14.01,2013-07-26 04:59:00,